[[{"header":{"parameterUnit":"m.s-1","parameterCategory":1,"la1":30.6,"la2":29.2853,"lo1":-89.7004,"lo2":-87.6739,"dy":0.0162,"dx":0.0183,"nx":112,"ny":82,"refTime":"2024-08-23T00:00:00:Z","depth":0,"parameterNumber":2,"parameterNumberName":"U-component_of_WINDS"},"data":[0.0,0.0,0.0,0.0,0.0,0.0,0.0,0.0,0.0,0.0,0.0,0.0,0.0,0.0,0.0,0.0,0.0,0.0,0.0,0.0,0.0,0.0,0.0,0.0,0.0,0.0,0.0,0.0,0.0,0.0,0.0,0.0,0.0,0.0,0.0,0.0,0.0,0.0,0.0,0.0,0.0,0.0,0.0,0.0,0.0,0.0,0.0,0.0,0.0,0.0,0.0,0.0,0.0,0.0,0.0,0.0,0.0,0.0,0.0,0.0,0.0,0.0,0.0,0.0,0.0,0.0,0.0,0.0,0.0,0.0,0.0,0.0,0.0,0.0,0.0,0.0,0.0,0.0,0.0,0.0,0.0,0.0,0.0,0.0,0.0,0.0,0.0,0.0,0.0,0.0,1.6094,1.7047,1.9285,2.0491,1.9958,1.9749,1.8831,1.6936,0.0,0.0,0.0,0.0,0.0,0.0,0.0,0.0,0.0,0.0,0.0,0.0,0.0,0.0,0.0,0.0,0.0,0.0,0.0,0.0,0.0,0.0,0.0,0.0,0.0,0.0,0.0,0.0,0.0,0.0,0.0,0.0,0.0,0.0,0.0,0.0,0.0,0.0,0.0,0.0,0.0,0.0,0.0,0.0,0.0,0.0,0.0,0.0,0.0,0.0,0.0,0.0,0.0,0.0,0.0,0.0,0.0,0.0,0.0,0.0,0.0,0.0,0.0,0.0,0.0,0.0,0.0,0.0,0.0,0.0,0.0,0.0,0.0,0.0,0.0,0.0,0.0,0.0,0.0,0.0,0.0,0.0,0.0,0.0,0.0,0.0,0.0,0.0,0.0,0.0,0.0,0.0,0.0,0.0,0.0,0.0,0.0,0.0,0.0,0.0,0.0,0.0,0.0,0.0,1.6045,1.8871,2.0076,2.0623,2.042,1.9511,1.8359,1.6972,0.0,0.0,0.0,0.0,0.0,0.0,0.0,0.0,0.0,0.0,0.0,0.0,0.0,0.0,0.0,0.0,0.0,0.0,0.0,0.0,0.0,0.0,0.0,0.0,0.0,0.0,0.0,0.0,0.0,0.0,0.0,0.0,0.0,0.0,0.0,0.0,0.0,0.0,0.0,0.0,0.0,0.0,0.0,0.0,0.0,0.0,0.0,0.0,0.0,0.0,0.0,0.0,0.0,0.0,0.0,0.0,0.0,0.0,0.0,0.0,0.0,0.0,0.0,0.0,0.0,0.0,0.0,0.0,0.0,0.0,0.0,0.0,0.0,0.0,0.0,0.0,0.0,0.0,0.0,0.0,0.0,0.0,0.0,0.0,0.0,0.0,0.0,0.0,0.0,0.0,0.0,0.0,0.0,0.0,0.0,0.0,0.0,0.0,0.0,0.0,0.0,0.0,0.0,1.5214,1.6637,1.9601,2.023,2.0397,2.0347,1.933,1.8185,1.6974,1.4743,0.0,0.0,0.0,0.0,0.0,0.0,0.0,0.0,0.0,0.0,0.0,0.0,0.0,0.0,0.0,0.0,0.0,0.0,0.0,0.0,0.0,0.0,0.0,0.0,0.0,0.0,0.0,0.0,0.0,0.0,0.0,0.0,0.0,0.0,0.0,0.0,0.0,0.0,0.0,0.0,0.0,0.0,0.0,0.0,0.0,0.0,0.0,0.0,0.0,0.0,0.0,0.0,0.0,0.0,0.0,0.0,0.0,0.0,0.0,0.0,0.0,0.0,0.0,0.0,0.0,0.0,0.0,0.0,0.0,0.0,0.0,0.0,0.0,0.0,0.0,0.0,0.0,0.0,0.0,0.0,0.0,0.0,0.0,0.0,0.0,0.0,0.0,0.0,0.0,0.0,0.0,0.0,0.0,0.0,0.0,0.0,0.0,0.0,0.0,0.0,0.0,0.0,1.6628,1.7586,1.9901,2.0182,2.0195,2.0156,1.9057,1.792,1.6876,1.4006,0.0,0.0,0.0,0.0,0.0,0.0,0.0,0.0,0.0,0.0,0.0,0.0,0.0,0.0,0.0,0.0,0.0,0.0,0.0,0.0,0.0,0.0,0.0,0.0,0.0,0.0,0.0,0.0,0.0,0.0,0.0,0.0,0.0,0.0,0.0,0.0,0.0,0.0,0.0,0.0,0.0,0.0,0.0,0.0,0.0,0.0,0.0,0.0,0.0,0.0,0.0,0.0,0.0,0.0,0.0,0.0,0.0,0.0,0.0,0.0,0.0,0.0,0.0,0.0,0.0,0.0,0.0,0.0,0.0,0.0,0.0,0.0,0.0,0.0,0.0,0.0,0.0,0.0,0.0,0.0,0.0,0.0,0.0,0.0,0.0,0.0,0.0,0.0,0.0,0.0,0.0,0.0,0.0,0.0,0.0,0.0,0.0,0.0,0.0,0.0,0.0,0.0,1.7102,1.8828,1.9902,2.0131,2.0144,2.0016,1.8568,1.734,1.6581,1.3476,0.0,0.0,0.0,0.0,0.0,0.0,0.0,0.0,0.0,0.0,0.0,0.0,0.0,0.0,0.0,0.0,0.0,0.0,0.0,0.0,0.0,0.0,0.0,0.0,0.0,0.0,0.0,0.0,0.0,0.0,0.0,0.0,0.0,0.0,0.0,0.0,0.0,0.0,0.0,0.0,0.0,0.0,0.0,0.0,0.0,0.0,0.0,0.0,0.0,0.0,0.0,0.0,0.0,0.0,0.0,0.0,0.0,0.0,0.0,0.0,0.0,0.0,0.0,0.0,0.0,0.0,0.0,0.0,0.0,0.0,0.0,0.0,0.0,0.0,0.0,0.0,0.0,0.0,0.0,0.0,0.0,0.0,0.0,0.0,0.0,0.0,0.0,0.0,0.0,0.0,0.0,0.0,0.0,0.0,0.0,0.0,0.0,0.0,0.0,0.0,0.0,0.0,1.6591,1.8002,1.9686,1.9914,1.9927,1.9875,1.8703,1.7407,1.6082,0.0,0.0,0.0,0.0,0.0,0.0,0.0,0.0,0.0,0.0,0.0,0.0,0.0,0.0,0.0,0.0,0.0,0.0,0.0,0.0,0.0,0.0,0.0,0.0,0.0,0.0,0.0,0.0,0.0,0.0,0.0,0.0,0.0,0.0,0.0,0.0,0.0,0.0,0.0,0.0,0.0,0.0,0.0,0.0,0.0,0.0,0.0,0.0,0.0,0.0,0.0,0.0,0.0,0.0,0.0,0.0,0.0,0.0,0.0,0.0,0.0,0.0,0.0,0.0,0.0,0.0,0.0,0.0,0.0,0.0,0.0,0.0,0.0,0.0,0.0,0.0,0.0,0.0,0.0,0.0,0.0,0.0,0.0,0.0,0.0,0.0,0.0,0.0,0.0,0.0,0.0,0.0,0.0,0.0,0.0,0.0,0.0,0.0,0.0,0.0,0.0,0.0,1.507,1.6321,1.7578,1.9354,1.9708,1.9798,1.9798,1.8656,1.73,1.5804,0.0,0.0,0.0,0.0,0.0,0.0,0.0,0.0,0.0,0.0,0.0,0.0,0.0,0.0,0.0,0.0,0.0,0.0,0.0,0.0,0.0,0.0,0.0,0.0,0.0,0.0,0.0,0.0,0.0,0.0,0.0,0.0,0.0,0.0,0.0,0.0,0.0,0.0,0.0,0.0,0.0,0.0,0.0,0.0,0.0,0.0,0.0,0.0,0.0,0.0,0.0,0.0,0.0,0.0,0.0,0.0,0.0,0.0,0.0,0.0,0.0,0.0,0.0,0.0,0.0,0.0,0.0,0.0,0.0,0.0,0.0,0.0,0.0,0.0,0.0,0.0,0.0,0.0,0.0,0.0,0.0,0.0,0.0,0.0,0.0,0.0,0.0,0.0,0.0,0.0,0.0,0.0,0.0,0.0,0.0,0.0,0.0,0.0,0.0,0.0,0.0,0.0,1.4559,1.6414,1.7871,1.8879,1.9461,1.9785,1.9785,1.8305,1.6898,0.0,0.0,0.0,0.0,0.0,0.0,0.0,0.0,0.0,0.0,0.0,0.0,0.0,0.0,0.0,0.0,0.0,0.0,0.0,0.0,0.0,0.0,0.0,0.0,0.0,0.0,0.0,0.0,0.0,0.0,0.0,0.0,0.0,0.0,0.0,0.0,0.0,0.0,0.0,0.0,0.0,0.0,0.0,0.0,0.0,0.0,0.0,0.0,0.0,0.0,0.0,0.0,0.0,0.0,0.0,0.0,0.0,0.0,0.0,0.0,0.0,0.0,0.0,0.0,0.0,0.0,0.0,0.0,0.0,0.0,0.0,0.0,0.0,0.0,0.0,0.0,0.0,0.0,0.0,0.0,0.0,0.0,0.0,0.0,0.0,0.0,0.0,0.0,0.0,0.0,0.0,0.0,0.0,0.0,0.0,0.0,0.0,0.0,0.0,0.0,0.0,0.0,0.0,1.4674,1.6114,1.7258,1.8258,1.8511,1.8605,1.8605,1.7519,1.6171,1.4594,0.0,0.0,0.0,0.0,0.0,0.0,0.0,0.0,0.0,0.0,0.0,0.0,0.0,0.0,0.0,0.0,0.0,0.0,0.0,0.0,0.0,0.0,0.0,0.0,0.0,0.0,0.0,0.0,0.0,0.0,0.0,0.0,0.0,0.0,0.0,0.0,0.0,0.0,0.0,0.0,0.0,0.0,0.0,0.0,0.0,0.0,0.0,0.0,0.0,0.0,0.0,0.0,0.0,0.0,0.0,0.0,0.0,0.0,0.0,0.0,0.0,0.0,0.0,0.0,0.0,0.0,0.0,0.0,0.0,0.0,0.0,0.0,0.0,0.0,0.0,0.0,0.0,0.0,0.0,0.0,0.0,0.0,0.0,0.0,0.0,0.0,0.0,0.0,0.0,0.0,0.0,0.0,0.0,0.0,0.0,0.0,0.0,0.0,0.0,0.0,0.0,0.0,1.4373,1.5811,1.686,1.7661,1.7957,1.8093,1.8093,1.7176,1.5891,1.4215,0.0,0.0,0.0,0.0,0.0,0.0,0.0,0.0,0.0,0.0,0.0,0.0,0.0,0.0,0.0,0.0,0.0,0.0,0.0,0.0,0.0,0.0,0.0,0.0,0.0,0.0,0.0,0.0,0.0,0.0,0.0,0.0,0.0,0.0,0.0,0.0,0.0,0.0,0.0,0.0,0.0,0.0,0.0,0.0,0.0,0.0,0.0,0.0,0.0,0.0,0.0,0.0,0.0,0.0,0.0,0.0,0.0,0.0,0.0,0.0,0.0,0.0,0.0,0.0,0.0,0.0,0.0,0.0,0.0,0.0,0.0,0.0,0.0,0.0,0.0,0.0,0.0,0.0,0.0,0.0,0.0,0.0,0.0,0.0,0.0,0.0,0.0,0.0,0.0,0.0,0.0,0.0,0.0,0.0,0.0,0.0,0.0,0.0,0.0,0.0,0.0,0.0,1.3828,1.549,1.6618,1.7075,1.7614,1.7929,1.7916,1.704,1.5835,1.4325,0.0,0.0,0.0,0.0,0.0,0.0,0.0,0.0,0.0,0.0,0.0,0.0,0.0,0.0,0.0,0.0,0.0,0.0,0.0,0.0,0.0,0.0,0.0,0.0,0.0,0.0,0.0,0.0,0.0,0.0,0.0,0.0,0.0,0.0,0.0,0.0,0.0,0.0,0.0,0.0,0.0,0.0,0.0,0.0,0.0,0.0,0.0,0.0,0.0,0.0,0.0,0.0,0.0,0.0,0.0,0.0,0.0,0.0,0.0,0.0,1.3818,1.3217,0.0,0.0,0.0,0.0,0.0,0.0,0.0,0.0,0.0,0.0,0.0,0.0,0.0,0.0,0.0,0.0,0.0,0.0,0.0,0.0,0.0,0.0,0.0,0.0,0.0,0.0,0.0,0.0,0.0,0.0,0.0,0.0,0.0,0.0,0.0,0.0,0.0,0.0,0.0,0.0,1.3477,1.4976,1.6049,1.6525,1.669,1.6708,1.6546,1.5994,1.5109,1.3831,1.2289,0.0,0.0,0.0,0.0,0.0,0.0,0.0,0.0,0.0,0.0,0.0,0.0,0.0,0.0,0.0,0.0,0.0,0.0,0.0,0.0,0.0,0.0,0.0,0.0,0.0,0.0,0.0,0.0,0.0,0.0,0.0,0.0,0.0,0.0,0.0,0.0,0.0,0.0,0.0,0.0,0.0,0.0,0.0,0.0,0.0,0.0,0.0,0.0,0.0,0.0,0.0,0.0,0.0,0.0,0.0,0.0,0.0,0.0,0.0,1.5624,1.494,0.0,0.0,0.0,0.0,0.0,0.0,0.0,0.0,0.0,0.0,0.0,0.0,0.0,0.0,0.0,0.0,0.0,0.0,0.0,0.0,0.0,0.0,0.0,0.0,0.0,0.0,0.0,0.0,0.0,0.0,0.0,0.0,0.0,0.0,0.0,0.0,0.0,0.0,0.0,0.0,1.2998,1.4221,1.5209,1.5763,1.5739,1.5768,1.598,1.5566,1.4932,1.4084,1.2738,0.0,0.0,0.0,0.0,0.0,0.0,0.0,0.0,0.0,0.0,0.0,0.0,0.0,0.0,0.0,0.0,0.0,0.0,0.0,0.0,0.0,0.0,0.0,0.0,0.0,0.0,0.0,0.0,0.0,0.0,0.0,0.0,0.0,0.0,0.0,0.0,0.0,0.0,0.0,0.0,0.0,0.0,0.0,0.0,0.0,0.0,0.0,0.0,0.0,0.0,0.0,0.0,0.0,1.9313,1.8466,1.8029,1.8181,1.8563,1.904,1.7938,1.7378,1.7172,1.6433,0.0,0.0,0.0,0.0,0.0,0.0,0.0,0.0,0.0,0.0,0.0,0.0,0.0,0.0,0.0,0.0,0.0,0.0,0.0,0.0,0.0,0.0,1.4466,1.4606,1.4704,1.4369,1.2888,0.0,0.0,0.0,0.0,0.0,0.0,0.0,0.0,0.0,0.0,0.0,1.2562,1.3548,1.4377,1.4932,1.484,1.4952,1.5464,1.5155,1.4735,1.425,1.3208,1.2098,0.0,0.0,0.0,0.0,0.0,0.0,0.0,0.0,0.0,0.0,0.0,0.0,0.0,0.0,0.0,0.0,0.0,0.0,0.0,0.0,0.0,0.0,0.0,0.0,0.0,0.0,0.0,0.0,0.0,0.0,0.0,0.0,1.1895,1.2452,0.0,0.0,0.0,0.0,0.0,0.0,0.0,0.0,0.0,0.0,0.0,0.0,0.0,1.5743,1.7921,1.8708,1.9177,1.9362,2.0209,2.002,1.8951,1.9707,2.0285,2.0699,2.0501,0.0,1.8459,1.7216,0.0,0.0,0.0,0.0,0.0,0.0,0.0,0.0,0.0,0.0,0.0,0.0,0.0,0.0,0.0,0.0,0.0,0.0,0.0,0.0,0.0,0.0,1.5223,1.4863,1.5081,1.5205,1.4587,1.3026,1.1674,1.1379,1.0252,0.9148,0.0,0.0,0.0,0.0,0.0,0.0,1.248,1.3444,1.4055,1.4154,1.413,1.4085,1.4001,1.3933,1.3667,1.3133,1.3109,1.2892,1.2425,1.1877,0.0,0.0,0.0,0.0,0.0,0.0,0.0,0.0,0.0,0.0,0.0,0.0,0.0,0.0,0.0,0.0,0.0,0.0,0.0,0.0,0.0,0.0,0.0,0.0,0.0,0.0,0.0,0.0,0.0,1.1638,1.2651,1.32,1.3313,1.3117,0.0,0.0,0.0,0.0,0.0,0.0,0.0,0.0,0.0,1.5575,1.6353,1.8012,2.0594,2.0625,2.0625,2.0625,2.0654,2.0646,2.0635,2.1021,2.1281,2.1458,2.1458,2.055,1.9023,1.837,1.7561,1.6673,0.0,0.0,0.0,0.0,1.6605,1.7409,1.8404,1.842,1.7896,1.7248,0.0,0.0,0.0,0.0,0.0,0.0,0.0,1.4711,1.455,1.5201,1.5792,1.5309,1.5521,1.5639,1.4841,1.377,1.2855,1.2559,1.1995,1.1121,0.9739,0.9688,0.0,0.0,0.0,1.1816,1.2258,1.2912,1.3402,1.3588,1.3516,1.3486,1.3586,1.3599,1.3485,1.3241,1.3107,1.2856,1.2443,1.196,1.1221,0.0,0.0,0.0,0.0,0.0,0.0,0.0,0.0,0.0,0.0,0.0,0.0,0.0,0.0,0.0,0.0,0.0,0.0,0.0,0.0,0.0,0.0,0.0,0.0,0.0,0.0,0.0,0.0,1.2663,1.3397,1.3963,1.4372,1.4201,0.0,0.0,0.0,0.0,0.0,0.0,1.7009,1.7027,1.7139,1.7505,1.7856,1.8836,2.0479,2.0498,2.0683,2.1021,2.0314,2.0372,2.1031,2.1031,2.1031,2.1031,2.1031,2.0223,1.8892,1.8589,1.7685,1.6502,1.6699,1.6923,1.7107,1.6904,1.74,1.834,1.95,1.9565,1.9003,1.8197,1.7967,1.7743,1.6273,0.0,0.0,0.0,0.0,1.5221,1.4984,1.5408,1.5799,1.5457,1.561,1.5616,1.485,1.4462,1.4052,1.3402,1.3222,1.2635,1.0952,1.1005,0.0,1.0389,1.126,1.2045,1.2179,1.2511,1.2816,1.3073,1.2961,1.294,1.3098,1.3111,1.3085,1.3025,1.2874,1.2635,1.2285,1.2099,1.154,1.0514,0.0,0.0,0.0,0.0,0.0,0.0,0.0,0.0,0.0,0.0,0.0,0.0,0.0,0.0,0.0,0.0,0.0,0.0,0.0,0.0,0.0,0.0,0.0,0.0,0.0,0.0,0.0,0.0,0.0,1.4881,1.5065,0.0,0.0,0.0,0.0,1.3974,1.4706,1.5716,1.7035,1.7506,1.8359,1.9705,1.8545,1.7607,1.696,1.6947,1.7632,1.8945,1.8905,1.8913,1.8945,1.8945,1.8945,1.8945,1.8945,1.8537,1.7811,1.7107,1.6762,1.6698,1.669,1.6685,1.6698,1.7243,1.7365,1.7341,1.7862,1.7725,1.7469,1.8302,1.7972,1.7169,1.6609,1.6194,0.0,0.0,1.5401,1.5646,1.5125,1.5038,1.505,1.5026,1.5042,1.503,1.4995,1.4961,1.4668,1.3685,1.2976,1.2402,1.1981,0.0,1.1517,1.1593,1.1666,1.1894,1.2415,1.2506,1.2511,1.253,1.253,1.2398,1.2101,1.2071,1.1978,1.1715,1.2212,1.2511,1.2487,1.2701,1.2598,1.2087,1.0672,0.0,0.0,0.0,0.0,0.0,0.0,0.0,0.0,0.0,0.0,0.0,0.0,0.0,0.0,0.0,0.0,0.0,0.0,0.0,0.0,0.0,0.0,0.0,0.0,0.0,0.0,0.0,0.0,1.5168,1.5457,0.0,1.4802,1.4682,1.5015,1.5938,1.635,1.7172,1.864,1.8859,1.9092,1.938,1.9415,1.8565,1.6718,1.7606,1.8312,1.8804,1.8804,1.8804,1.8804,1.8804,1.8804,1.8804,1.8804,1.8487,1.7969,1.7701,1.7257,1.6689,1.6689,1.714,1.7776,1.7998,1.8291,1.8584,1.8749,1.8684,1.8556,1.8601,1.8161,1.7614,1.7451,1.7216,1.6891,1.6457,1.6346,1.6238,1.5614,1.5443,1.5423,1.5296,1.5262,1.5203,1.4988,1.4944,1.4774,1.4245,1.3715,1.3156,1.2543,1.2282,1.2032,1.1746,1.2177,1.2604,1.2804,1.3016,1.3067,1.2838,1.2816,1.2684,1.2339,1.212,1.1952,1.1859,1.1898,1.1919,1.1919,1.2012,1.1786,1.1177,1.0441,0.9411,0.0,0.0,0.0,0.0,0.0,0.0,0.0,0.0,0.0,0.0,0.0,0.0,0.0,0.0,0.0,0.0,0.0,0.0,0.0,0.0,0.0,0.0,0.0,0.0,0.0,1.4317,1.5287,1.5635,1.6094,1.6175,1.5695,1.5891,1.6361,1.7119,1.7347,1.7952,1.9095,1.9163,1.9106,1.9005,1.9514,1.9035,1.7424,1.8344,1.8804,1.8804,1.8804,1.8804,1.8804,1.8804,1.8804,1.8781,1.8689,1.8508,1.8314,1.8179,1.771,1.7106,1.7085,1.7482,1.8067,1.8163,1.8379,1.8594,1.8393,1.827,1.8175,1.7853,1.7544,1.728,1.728,1.7203,1.7013,1.6652,1.6465,1.6171,1.5377,1.5165,1.5047,1.4608,1.4482,1.442,1.42,1.4152,1.4117,1.3938,1.3971,1.3874,1.3393,1.2974,1.2682,1.2643,1.2769,1.2981,1.3302,1.3433,1.3411,1.3192,1.317,1.302,1.2699,1.2353,1.212,1.201,1.1752,1.1547,1.1437,1.143,1.1173,1.0616,1.0155,0.9369,0.8224,0.0,0.0,0.0,0.0,0.0,0.0,0.0,0.0,0.0,0.0,0.0,0.0,0.0,0.0,0.0,0.0,0.0,0.0,0.0,0.0,0.0,0.0,0.0,1.361,1.4606,1.5633,1.6342,1.6947,1.7113,1.6587,1.7017,1.7331,1.7331,1.7641,1.7984,1.8311,1.8327,1.8471,1.8789,1.8805,1.8828,1.8836,1.8836,1.8836,1.8836,1.8813,1.8767,1.8697,1.8775,1.8767,1.8705,1.8427,1.8489,1.8735,1.8295,1.8034,1.7883,1.782,1.763,1.7421,1.767,1.7572,1.7196,1.6612,1.6288,1.6131,1.6131,1.6115,1.6108,1.6108,1.6087,1.5984,1.5741,1.563,1.5373,1.4328,1.4055,1.3837,1.2914,1.2696,1.2696,1.2696,1.2696,1.2696,1.2696,1.3628,1.4435,1.4428,1.366,1.3351,1.4289,1.3365,0.0,1.38,1.3637,1.3433,1.347,1.3463,1.3331,1.3017,1.2665,1.232,1.1967,1.1688,1.1391,1.1084,1.1077,1.0924,1.0623,0.9965,0.9329,0.8726,0.0,0.0,0.0,0.0,0.0,0.0,0.0,0.0,0.0,0.0,0.0,0.0,0.0,0.0,0.0,0.0,0.0,0.0,0.0,0.0,0.0,1.4589,1.5316,1.4875,1.5897,1.6771,1.7023,1.7403,1.7611,1.7451,1.78,1.8017,1.8017,1.8343,1.8692,1.9081,1.9105,1.9044,1.8956,1.8964,1.9153,1.9582,1.9606,1.9606,1.9582,1.9198,1.8135,1.6536,1.8248,1.825,1.698,1.804,1.8433,1.8272,1.8156,1.7979,1.7819,1.7703,1.7432,1.7112,1.7195,1.7157,1.7051,1.6886,1.6673,1.6461,1.6461,1.6293,1.6108,1.6108,1.5513,1.4859,1.4776,1.4168,1.3459,1.3169,1.3084,1.3021,1.276,1.2696,1.2696,1.2696,1.2696,1.2696,1.2696,1.296,1.3115,1.2883,1.2412,1.2161,1.242,1.2179,1.205,1.2307,1.2119,1.2208,1.2801,1.2729,1.2583,1.2501,1.206,1.1495,1.0814,1.0203,1.0104,1.0639,1.0519,1.0601,1.096,1.0302,0.9768,0.0,0.0,0.0,0.0,0.0,0.0,0.0,0.0,0.0,0.0,0.0,0.0,0.0,0.0,0.0,0.0,0.0,0.0,0.0,0.0,0.0,0.0,1.5526,1.616,1.6363,1.6874,1.7318,1.7541,1.7808,1.8035,1.8096,1.8374,1.8548,1.8548,1.8785,1.9035,1.9262,1.927,1.9275,1.9285,1.9138,1.8783,1.8228,1.8463,1.8564,1.8564,1.8242,1.727,1.5771,1.6752,1.6607,1.5601,1.6726,1.7155,1.7021,1.6751,1.663,1.6667,0.0,0.0,0.0,0.0,1.59,1.5796,1.5641,1.5407,1.5225,1.5225,1.51,1.4905,1.483,1.4342,1.3803,1.3716,1.3211,1.2611,1.2211,1.2104,1.2019,1.1655,1.1569,1.1569,1.1569,1.1569,1.1569,1.1569,1.1569,0.0,1.1165,1.1338,1.1678,1.2064,1.1668,1.1476,1.1868,1.1677,1.1638,1.1947,1.1929,1.184,1.1688,1.1323,0.0,0.0,0.0,0.9557,0.9769,0.9455,0.0,0.0,0.0,0.0,0.0,0.8898,0.0,0.0,0.8609,0.8663,0.0,0.0,0.0,0.0,0.0,0.0,0.0,0.0,0.0,0.0,0.0,0.0,0.0,0.0,0.0,0.0,1.6178,1.6708,1.7728,1.7592,1.7532,1.7913,1.8173,1.839,1.8528,1.8776,1.8915,1.8915,1.8918,1.8913,1.895,1.8852,0.0,0.0,0.0,1.7877,1.5962,1.6413,1.6672,1.6698,1.6672,1.6333,1.5716,1.5059,1.4674,1.4536,1.5077,1.5392,1.5475,1.4886,1.4696,1.4875,1.5929,1.6052,1.5546,1.4763,1.4372,1.4161,1.38,0.0,0.0,1.3355,1.3331,1.3265,1.3089,1.2951,1.2837,1.2665,1.2529,1.2265,1.1413,1.1192,1.0997,1.0195,0.9994,0.9994,0.9994,0.9973,0.9951,0.9951,0.9929,0.9842,0.9602,1.0419,1.1386,1.2184,1.1345,1.0926,1.1767,1.1583,1.1269,1.1026,1.1101,0.0,1.0697,1.0504,1.0383,1.0293,0.9886,0.9386,0.8752,0.8362,0.8386,0.8863,0.8874,0.9081,0.9505,0.94,0.9393,0.942,0.7865,0.781,0.0,0.0,0.0,0.0,0.0,0.0,0.0,0.0,0.0,0.0,0.0,0.0,0.0,0.0,0.0,1.6791,1.7188,1.7411,1.7635,1.7819,1.8056,1.8341,1.8473,1.8612,1.8808,1.8965,1.9068,1.9068,1.8173,1.7789,1.8106,1.725,1.6807,1.6944,1.6872,1.6648,1.6215,1.6321,1.648,1.6698,1.648,0.0,1.4867,1.5391,1.5012,1.3939,1.4936,1.5258,1.5027,1.4903,1.4265,1.3488,1.4395,1.4674,1.4573,1.4398,1.4308,1.4279,1.42,1.3972,1.3698,1.3698,1.3532,1.3301,1.3253,1.27,0.0,1.2061,1.1558,1.0932,1.0585,1.0496,1.0408,1.0081,0.9994,0.9994,0.9994,0.982,0.9668,0.9668,0.9541,0.9415,0.9367,0.9668,0.9924,0.9946,0.974,0.9651,0.9846,0.9616,0.9654,1.0233,1.0093,0.9913,0.9833,0.9508,0.903,0.8387,0.8596,0.8624,0.8334,0.8896,0.9265,0.9365,0.9371,0.9415,0.9505,0.8794,0.8703,0.9183,0.9211,0.9372,0.0,0.0,0.0,0.0,0.0,0.0,0.0,0.0,0.0,0.0,0.0,1.4446,1.5582,0.0,1.6133,1.7441,1.773,1.788,1.8112,1.8301,1.8394,1.8353,1.8499,1.8428,1.7989,1.8155,1.8042,1.7431,1.6906,1.6685,1.6899,1.6364,1.6059,1.6115,1.6088,1.5829,1.5242,1.5242,1.5001,1.4546,1.4406,1.404,1.3511,1.3965,1.3745,1.3085,1.3656,1.38,1.363,1.3544,1.3049,1.243,1.2886,1.2917,1.2756,1.2756,1.2756,1.2756,1.2756,1.2633,1.2507,1.2507,1.2379,1.2238,1.2126,1.1773,1.1385,1.1287,1.0939,1.0574,1.047,1.0355,1.0213,1.0129,0.992,0.9757,0.9757,0.9587,0.9454,0.9454,0.9367,0.9262,0.913,0.9192,0.9257,0.9305,0.9305,0.9305,0.9305,0.9191,0.9154,0.9327,0.9301,0.9158,0.896,0.8801,0.8481,0.798,0.7988,0.7909,0.7698,0.8044,0.8321,0.8496,0.8501,0.8583,0.8756,0.8309,0.8263,0.8557,0.8888,0.9047,0.0,0.0,0.0,0.0,0.0,0.0,0.0,1.3525,1.3759,1.5104,1.5271,1.5495,1.6591,1.6636,1.6855,1.797,1.7909,1.7866,1.824,1.8057,1.7819,1.7618,1.8018,1.7898,1.6841,1.7027,1.6788,1.5796,1.5635,1.5574,1.5574,1.5355,1.5221,1.5221,1.5221,1.4771,1.3867,1.3846,1.3359,1.2414,1.2414,1.2414,1.2414,1.2414,1.2414,1.2414,1.2414,1.2414,1.24,1.2239,1.2046,1.1853,1.1853,1.1647,1.1312,1.1274,1.1255,1.125,1.1208,1.1194,1.1194,1.1194,1.1194,1.1165,1.1005,1.0929,1.0848,1.0669,1.0599,1.0543,1.0506,1.0333,1.0161,1.012,0.9833,0.9555,0.9515,0.9384,0.9262,0.9222,0.9196,0.9087,0.8867,0.8845,0.8911,0.913,0.9174,0.9174,0.9174,0.9174,0.9026,0.8631,0.8704,0.8632,0.8263,0.829,0.8255,0.8089,0.778,0.753,0.7357,0.7247,0.7312,0.7601,0.7605,0.7728,0.7991,0.7991,0.8012,0.8069,0.8219,0.8295,1.0976,1.1223,1.1812,1.306,1.3212,1.3716,0.0,1.6285,1.6126,1.724,1.7677,1.7919,1.8146,1.8249,1.8389,1.8585,1.7573,1.6769,1.6837,1.5817,1.5171,1.5413,1.6519,1.6888,1.5931,1.5997,1.6031,1.5893,1.4948,1.4379,1.4379,1.3381,1.279,1.279,1.279,1.2735,1.2599,1.2599,1.2518,1.2414,1.2414,1.2414,1.2414,1.2414,1.2414,1.2414,1.2414,1.2414,1.2409,1.2385,1.2258,1.2074,1.2074,1.1933,1.1697,1.1523,1.1482,1.1428,1.126,1.1194,1.1194,1.1194,1.1194,1.1189,1.1165,1.099,1.0814,1.0791,1.0616,1.038,1.0193,1.0125,1.0081,0.99,0.9796,0.9712,0.9546,0.9349,0.9169,0.8985,0.8806,0.8678,0.8634,0.8634,0.8634,0.8678,0.8678,0.8678,0.8678,0.8678,0.8666,0.8601,0.845,0.8278,0.8049,0.8037,0.8037,0.8016,0.7975,0.7935,0.7914,0.7894,0.7914,0.7935,0.7955,0.7971,0.7991,0.7991,0.8097,0.826,0.828,0.8301,1.3227,1.3227,1.3306,1.4524,1.5006,1.5551,1.6981,1.7212,1.7192,1.7416,1.7483,1.7305,1.6721,1.6505,1.6512,1.6735,1.6298,1.5971,1.6161,1.5588,1.4924,1.4413,1.4725,1.4914,1.4613,1.4643,1.4449,1.39,1.3408,1.3142,1.3142,1.2681,1.2414,1.2414,1.2414,1.2414,1.2414,1.2414,1.2414,1.2414,1.2414,1.2414,1.2414,1.2414,1.2414,1.2414,1.2414,1.2414,1.2414,1.2414,1.2362,1.226,1.226,1.2235,1.2112,1.1787,1.1669,1.1636,1.1428,1.1358,1.1364,1.1236,1.1096,1.0973,1.0973,1.0781,1.056,1.056,1.0487,1.0366,1.0292,1.0152,1.0029,0.9928,0.9726,0.9553,0.9458,0.9288,0.909,0.8882,0.8781,0.8682,0.8606,0.859,0.859,0.859,0.859,0.859,0.859,0.859,0.859,0.859,0.8517,0.8444,0.8362,0.8235,0.8174,0.8174,0.8073,0.7991,0.7991,0.7991,0.8065,0.8174,0.8174,0.8227,0.8358,0.8358,0.8399,0.8472,0.8472,0.8472,1.4617,1.4487,1.4348,1.5494,1.6124,1.6569,1.6873,1.7198,1.7352,1.6995,1.675,1.6397,1.5632,1.5259,1.5168,1.5395,1.5151,1.5057,1.5399,1.489,1.4164,1.3362,1.3028,1.2944,1.3143,1.3278,1.3084,1.2449,1.2414,1.2414,1.2414,1.2414,1.2414,1.2414,1.2414,1.2414,1.2414,1.2414,1.2414,1.2414,1.2414,1.2414,1.2414,1.2414,1.2414,1.2414,1.2414,1.2414,1.2414,1.2414,1.2414,1.2382,1.2332,1.2305,1.224,1.1889,1.1771,1.1749,1.1543,1.139,1.1265,1.1112,1.0896,1.0683,1.0683,1.0507,1.029,1.029,1.024,1.0191,1.0191,1.0043,0.9895,0.9895,0.9673,0.9441,0.9412,0.9278,0.9116,0.893,0.883,0.8779,0.868,0.8623,0.859,0.859,0.859,0.859,0.859,0.859,0.859,0.859,0.859,0.859,0.859,0.8464,0.8387,0.8387,0.8239,0.8166,0.8166,0.8166,0.8227,0.8387,0.8387,0.8456,0.859,0.859,0.859,0.859,0.859,0.859,1.4115,1.4078,1.4327,1.5651,1.5963,1.5934,1.6028,1.629,1.6488,1.6273,1.6081,1.5947,1.5964,1.5763,1.5568,1.5498,1.4578,1.3932,1.4212,1.2899,1.1904,1.1853,1.1513,1.1347,1.154,1.1928,1.2224,1.2395,1.2414,1.2414,1.2414,1.2414,1.2414,1.2414,1.2414,1.2414,1.2414,1.2414,1.2414,1.2414,1.2414,1.2414,1.2414,1.2414,1.2414,1.2414,1.2414,1.2414,1.2414,1.2414,1.2414,1.2359,1.2114,1.2005,1.1973,1.1719,1.1652,1.1677,1.1467,1.1117,1.0712,1.0728,1.0571,1.0413,1.0413,1.0216,1.0019,1.0019,0.9821,0.9628,0.9628,0.9628,0.9603,0.9603,0.9599,0.9547,0.9417,0.94,0.9319,0.9125,0.8946,0.8797,0.8789,0.8678,0.859,0.859,0.859,0.859,0.859,0.859,0.859,0.859,0.859,0.859,0.859,0.8586,0.8582,0.8582,0.8578,0.8574,0.8574,0.8574,0.8574,0.8582,0.8582,0.8582,0.859,0.859,0.859,0.859,0.859,0.859,1.4778,1.4856,1.4881,1.5982,1.6103,1.6092,1.6548,1.6375,1.5885,1.5106,1.4632,1.4088,1.3192,1.2937,1.2912,1.3039,1.2844,1.276,1.2977,1.2413,1.1952,1.181,1.1694,1.1608,1.1683,1.1697,1.1843,1.2187,1.2211,1.2272,1.2377,1.2414,1.2414,1.2414,1.2414,1.2414,1.2414,1.2414,1.2414,1.2414,1.2414,1.2223,1.1869,1.206,1.2032,1.1869,1.1869,1.1869,1.1869,1.1869,1.1869,1.1869,1.1759,1.1732,1.1732,1.1623,1.1474,1.131,1.1336,1.1225,1.1054,1.0795,1.0542,1.0313,1.018,0.9945,0.9727,0.9727,0.9677,0.9603,0.9603,0.9603,0.9603,0.9603,0.9603,0.9587,0.9551,0.9535,0.9482,0.9327,0.9242,0.9124,0.8838,0.8775,0.8698,0.8606,0.859,0.859,0.859,0.859,0.859,0.859,0.859,0.859,0.859,0.859,0.859,0.859,0.859,0.859,0.859,0.859,0.859,0.859,0.859,0.859,0.859,0.859,0.859,0.859,0.859,0.859,1.4795,1.4648,1.4372,1.5566,1.5549,1.5267,1.5527,1.5209,1.4549,1.3427,1.2899,1.2318,1.1264,1.1009,1.1099,1.1524,1.1688,1.1923,1.2352,1.2239,1.206,1.1923,1.1839,1.1791,1.1791,1.1674,1.1773,1.2187,1.222,1.225,1.2377,1.2414,1.2414,1.2414,1.2414,1.2355,1.225,1.225,1.2223,1.2114,1.2114,1.1923,1.1623,1.1787,1.1759,1.1596,1.1596,1.1596,1.1596,1.1596,1.1596,1.1596,1.1459,1.1432,1.1404,1.1322,1.1131,1.0977,1.1162,1.113,1.0928,1.0685,1.0412,1.0129,1.0004,0.9797,0.9603,0.9603,0.9603,0.9603,0.9603,0.9603,0.9603,0.9603,0.9603,0.9603,0.9603,0.9603,0.9567,0.9498,0.9425,0.9331,0.9051,0.8958,0.8861,0.8704,0.868,0.8655,0.8598,0.859,0.859,0.859,0.859,0.859,0.859,0.859,0.859,0.859,0.859,0.859,0.859,0.859,0.859,0.859,0.859,0.859,0.859,0.859,0.859,0.859,0.859,0.841,1.4155,1.356,1.3005,1.4472,1.4307,1.363,1.3088,1.2931,1.2563,1.1397,1.0962,1.0679,1.0304,1.0082,1.0246,1.1038,1.1194,1.1505,1.2282,1.2244,1.21,1.2112,1.1942,1.182,1.181,1.1815,1.1989,1.2381,1.24,1.24,1.2414,1.2414,1.2382,1.2387,1.2387,1.225,1.1973,1.1978,1.1841,1.1568,1.1596,1.1568,1.1541,1.1568,1.1568,1.1541,1.1541,1.1541,1.1541,1.1541,1.1514,1.1432,1.1099,1.0989,1.0962,1.0633,1.0551,1.0637,1.0825,1.0691,1.0417,1.0409,1.017,0.9908,0.9917,0.977,0.9616,0.9603,0.9603,0.9603,0.9603,0.9603,0.9603,0.9603,0.9603,0.9603,0.9603,0.9603,0.9603,0.9603,0.9482,0.9404,0.9404,0.9233,0.9039,0.8838,0.8814,0.8771,0.8615,0.859,0.859,0.859,0.859,0.859,0.859,0.859,0.859,0.859,0.859,0.859,0.859,0.859,0.859,0.859,0.859,0.859,0.859,0.859,0.859,0.859,0.8546,0.8014,1.3335,1.3512,1.3591,1.3974,1.363,1.3141,1.2847,1.2068,1.1269,1.0649,0.997,0.9448,0.934,0.9528,0.9873,1.0446,1.1156,1.1763,1.2136,1.225,1.2282,1.2131,1.2197,1.2197,1.2046,1.2164,1.2296,1.2377,1.2272,1.2227,1.2377,1.2414,1.23,1.2114,1.211,1.1978,1.1705,1.1705,1.1541,1.1236,1.1486,1.135,1.0939,1.1131,1.1131,1.0939,1.0939,1.0939,1.0939,1.0939,1.0414,0.9581,0.9499,0.9475,0.9333,0.8386,0.8582,0.9254,0.8413,0.9219,1.0607,1.045,1.0345,1.0241,0.9969,0.9855,0.9791,0.964,0.9603,0.9603,0.9603,0.9603,0.9603,0.9603,0.9603,0.9603,0.9603,0.9603,0.9603,0.9603,0.9482,0.9404,0.9404,0.9233,0.908,0.9035,0.9027,0.8913,0.8631,0.859,0.859,0.859,0.859,0.859,0.859,0.859,0.859,0.859,0.859,0.859,0.859,0.859,0.859,0.859,0.859,0.859,0.859,0.859,0.859,0.859,0.783,0.7375,1.2862,1.3068,1.3061,1.3061,1.2769,1.2357,1.188,1.1201,1.04,0.9636,0.9148,0.875,0.8406,0.8807,0.9382,0.9913,1.0792,1.1556,1.2015,1.226,1.2371,1.2258,1.2316,1.2312,1.2065,1.2158,1.2169,1.206,1.2035,1.2107,1.2214,1.2114,1.1978,1.1841,1.1814,1.1678,1.1373,1.1267,1.1103,1.0935,1.1131,1.1021,1.0719,1.0857,1.0551,0.9915,0.9915,0.9609,0.9106,0.9106,0.872,0.8112,0.8112,0.8112,0.8029,0.7362,0.7529,0.8002,0.7332,0.7999,0.9096,0.8985,0.9268,0.9529,0.8811,0.887,0.9074,0.8424,0.8225,0.8297,0.8775,0.8899,0.9023,0.9476,0.9603,0.9603,0.9603,0.9603,0.9603,0.9603,0.9547,0.9498,0.9498,0.9397,0.9303,0.9246,0.9233,0.9136,0.8859,0.8749,0.8678,0.8678,0.8635,0.859,0.859,0.859,0.859,0.859,0.859,0.859,0.859,0.859,0.859,0.859,0.859,0.859,0.859,0.8164,0.7896,0.7786,0.6802,0.6099,1.2562,1.2467,1.2118,1.2121,1.1928,1.1557,1.0749,1.0314,0.9745,0.8524,0.8349,0.8203,0.7541,0.8055,0.8803,0.9451,1.0283,1.1146,1.1956,1.2217,1.2354,1.2355,1.2355,1.225,1.1978,1.1951,1.1841,1.1623,1.1755,1.1896,1.1946,1.1732,1.1568,1.1541,1.1514,1.135,1.1044,1.0829,1.0692,1.0692,1.0527,1.0468,1.0468,1.0304,0.9636,0.8671,0.8671,0.8057,0.711,0.711,0.7002,0.6864,0.6864,0.6864,0.6864,0.6695,0.6725,0.6864,0.6695,0.6642,0.6695,0.7,0.7728,0.8285,0.7216,0.7458,0.7891,0.6793,0.6453,0.6617,0.7552,0.7798,0.8046,0.9126,0.9278,0.9249,0.9529,0.9603,0.9603,0.9603,0.9603,0.9603,0.9603,0.9603,0.9571,0.9441,0.9437,0.936,0.9185,0.8986,0.8826,0.8801,0.869,0.8615,0.859,0.859,0.859,0.859,0.859,0.859,0.859,0.859,0.859,0.859,0.8478,0.842,0.842,0.739,0.6793,0.6611,0.5638,0.4612,1.2107,1.2284,1.2319,1.2128,1.1824,1.135,1.0541,0.9646,0.8718,0.7845,0.7239,0.6887,0.692,0.7482,0.8255,0.9203,1.0083,1.092,1.173,1.2032,1.2118,1.2069,1.206,1.1951,1.1705,1.1678,1.165,1.1596,1.1404,1.1373,1.165,1.1623,1.1459,1.1208,1.0966,1.0829,1.0774,1.0719,1.0692,1.0692,0.9695,0.9199,0.9168,0.8165,0.7609,0.7418,0.7418,0.7307,0.711,0.711,0.6533,0.5704,0.5704,0.5704,0.5564,0.4561,0.484,0.5564,0.4561,0.4199,0.4533,0.6475,0.7235,0.7312,0.6997,0.702,0.7053,0.6608,0.6487,0.6523,0.6651,0.6672,0.6946,0.8024,0.7596,0.7447,0.9225,0.9603,0.9603,0.9603,0.9603,0.9603,0.9603,0.9603,0.9591,0.9563,0.9555,0.9543,0.9514,0.925,0.8991,0.8814,0.8773,0.8718,0.8602,0.859,0.859,0.859,0.859,0.859,0.859,0.859,0.859,0.859,0.7841,0.7451,0.7451,0.6325,0.5769,0.5699,0.4528,0.3912,1.1999,1.2258,1.2338,1.2022,1.1556,1.0943,0.9993,0.8973,0.8003,0.7149,0.6643,0.6341,0.6337,0.7045,0.7828,0.8425,0.9308,1.0253,1.1203,1.149,1.1716,1.1968,1.2005,1.1841,1.1373,1.135,1.1267,1.1131,1.041,1.0355,1.1291,1.1213,1.1048,1.0911,1.0774,1.0692,1.0692,1.0084,1.0084,1.0692,0.9475,0.8892,0.8892,0.8309,0.7365,0.6228,0.6228,0.5866,0.5282,0.5282,0.4951,0.4451,0.4451,0.4451,0.4397,0.3811,0.3977,0.4369,0.3811,0.3587,0.3782,0.4921,0.5699,0.6082,0.5399,0.5599,0.5917,0.5153,0.4913,0.5,0.5545,0.566,0.5943,0.7024,0.6845,0.6726,0.7711,0.7922,0.7922,0.7922,0.7922,0.8124,0.8676,0.8297,0.8322,0.9426,0.8648,0.8149,0.8697,0.8143,0.7849,0.8245,0.7682,0.7257,0.7191,0.7184,0.7184,0.7184,0.7156,0.7136,0.7136,0.7136,0.7136,0.7136,0.6609,0.6325,0.6302,0.5146,0.4486,0.432,0.3268,0.2721,1.1985,1.217,1.2202,1.1872,1.1316,1.056,0.9533,0.8453,0.7439,0.66,0.6205,0.5979,0.5912,0.663,0.737,0.779,0.8566,0.9505,1.0664,1.0994,1.129,1.1796,1.1814,1.1591,1.1072,1.077,1.0661,1.0692,0.9585,0.942,1.0578,1.0441,1.0441,1.0692,1.0692,1.0582,1.0331,0.9364,0.9254,0.9911,0.8723,0.8146,0.8146,0.7894,0.6755,0.5009,0.5009,0.4479,0.3587,0.3587,0.3587,0.3587,0.3587,0.3587,0.3587,0.3587,0.3587,0.3587,0.3587,0.3587,0.3587,0.3587,0.4229,0.4841,0.3895,0.4216,0.4742,0.3772,0.3465,0.3614,0.4443,0.465,0.4862,0.5706,0.6224,0.6425,0.6128,0.6239,0.6398,0.6398,0.6598,0.6946,0.7549,0.7148,0.7248,0.8697,0.7471,0.6697,0.7546,0.6722,0.6341,0.7085,0.6445,0.5955,0.5905,0.5902,0.5902,0.5902,0.5841,0.5811,0.5811,0.5811,0.5788,0.5742,0.5406,0.5199,0.5128,0.3914,0.3229,0.3012,0.2206,0.1754,1.1947,1.1985,1.1839,1.1801,1.1203,1.0399,0.9495,0.8231,0.7062,0.6365,0.5775,0.5481,0.584,0.6134,0.6704,0.788,0.8297,0.8982,1.0427,1.0756,1.0963,1.1323,1.1246,1.1072,1.0774,0.975,0.9557,1.061,0.9585,0.8951,0.9085,0.9089,0.9557,1.0665,1.0692,1.0166,0.9089,0.8947,0.842,0.7418,0.6258,0.5731,0.5676,0.459,0.3977,0.3755,0.3755,0.3699,0.3587,0.3587,0.3587,0.3587,0.3587,0.3587,0.3587,0.3587,0.3587,0.3587,0.3587,0.3587,0.3587,0.3587,0.3671,0.3755,0.3643,0.3667,0.3706,0.354,0.3493,0.3504,0.3532,0.3545,0.3571,0.3678,0.5135,0.6241,0.5257,0.5767,0.6398,0.6398,0.7198,0.7571,0.6697,0.7273,0.7596,0.6822,0.6523,0.6448,0.6523,0.5604,0.4981,0.5072,0.5745,0.6093,0.5913,0.5902,0.5902,0.5902,0.5892,0.5886,0.5886,0.5886,0.5766,0.5529,0.4728,0.4193,0.3947,0.2737,0.2136,0.2111,0.1788,0.1613,1.1401,1.1694,1.173,1.1505,1.0915,1.0195,0.9312,0.8001,0.6817,0.6304,0.562,0.5247,0.5639,0.5884,0.6308,0.7185,0.7419,0.7921,0.9097,0.9427,0.9526,0.9499,0.9635,0.9393,0.8617,0.8109,0.7725,0.7531,0.7063,0.6785,0.6785,0.7448,0.8026,0.8524,0.8524,0.8303,0.7836,0.7146,0.6894,0.7083,0.5952,0.5399,0.5371,0.4897,0.4285,0.3587,0.3587,0.3587,0.3587,0.3587,0.3587,0.3587,0.3587,0.3587,0.3587,0.3587,0.3587,0.3587,0.3587,0.3587,0.3587,0.3587,0.3587,0.3587,0.3587,0.3587,0.3582,0.3557,0.355,0.3546,0.3523,0.3518,0.3508,0.3471,0.4085,0.4555,0.409,0.4318,0.4592,0.4541,0.4887,0.5224,0.5416,0.5254,0.5404,0.6274,0.5302,0.4705,0.5356,0.4506,0.3833,0.3833,0.418,0.4369,0.4286,0.4285,0.4211,0.4037,0.3992,0.3893,0.3747,0.3723,0.3675,0.3577,0.3109,0.2817,0.2718,0.2063,0.1768,0.1768,0.1642,0.1592,1.0849,1.1227,1.1392,1.1165,1.0546,0.9823,0.9151,0.7814,0.6633,0.6351,0.5643,0.5214,0.561,0.5851,0.6144,0.6633,0.6866,0.7327,0.8271,0.856,0.8693,0.8732,0.8682,0.8348,0.7563,0.7265,0.6475,0.4981,0.5204,0.5232,0.4897,0.5616,0.6389,0.7083,0.711,0.6947,0.6586,0.5815,0.562,0.6058,0.5258,0.4869,0.4869,0.4869,0.4397,0.3587,0.3587,0.3587,0.3587,0.3587,0.3587,0.3587,0.3587,0.3587,0.3587,0.3587,0.3587,0.3587,0.3587,0.3587,0.3587,0.3587,0.3587,0.3587,0.3587,0.3587,0.3587,0.3587,0.3587,0.3587,0.3587,0.3587,0.3576,0.3533,0.351,0.3458,0.3339,0.3372,0.3373,0.3225,0.3529,0.3928,0.4312,0.4004,0.4114,0.5296,0.4171,0.3482,0.4234,0.3607,0.3079,0.3079,0.3002,0.3002,0.3079,0.3002,0.2876,0.2699,0.2641,0.2522,0.2348,0.2323,0.2299,0.2202,0.2082,0.1971,0.187,0.1693,0.1592,0.1592,0.1592,0.1592,1.0375,1.0607,1.0659,1.0844,1.0112,0.926,0.9052,0.7696,0.6506,0.6501,0.5851,0.5422,0.5831,0.6054,0.6266,0.6473,0.6885,0.7482,0.8289,0.8513,0.8899,0.9694,0.8919,0.8316,0.839,0.7602,0.6142,0.3782,0.473,0.4869,0.3671,0.3643,0.4698,0.7027,0.711,0.6561,0.5427,0.5399,0.4814,0.3643,0.3615,0.3615,0.3615,0.3615,0.3615,0.3587,0.3587,0.3587,0.3587,0.3587,0.3587,0.3587,0.3587,0.3587,0.3587,0.3587,0.3587,0.3587,0.3587,0.3587,0.3587,0.3587,0.3587,0.3587,0.3587,0.3587,0.3587,0.3587,0.3587,0.3587,0.3587,0.3587,0.3587,0.3587,0.3541,0.3416,0.3172,0.3265,0.3332,0.3064,0.4068,0.4648,0.3595,0.4243,0.4525,0.35,0.3268,0.3205,0.3205,0.2977,0.2801,0.2801,0.2573,0.2522,0.2775,0.2573,0.2396,0.2396,0.2395,0.2395,0.2395,0.2395,0.227,0.2021,0.1996,0.1869,0.1592,0.1592,0.1592,0.1592,0.1592,0.1592,0.911,0.9403,0.946,0.9247,0.894,0.8566,0.8083,0.7215,0.6464,0.6327,0.5757,0.5391,0.5712,0.5816,0.611,0.6849,0.6983,0.7254,0.8011,0.7762,0.7345,0.6903,0.5803,0.5087,0.5117,0.4864,0.4395,0.3643,0.3949,0.4007,0.3615,0.3587,0.3949,0.4672,0.4698,0.4533,0.4173,0.4173,0.3977,0.3587,0.3587,0.3587,0.3587,0.3587,0.3587,0.3587,0.3587,0.3587,0.3587,0.3587,0.3587,0.3587,0.3587,0.3587,0.3587,0.3587,0.3587,0.3587,0.3587,0.3587,0.3587,0.3587,0.3587,0.3587,0.3587,0.3587,0.3587,0.3587,0.3587,0.3587,0.3587,0.3418,0.3306,0.3559,0.3267,0.2977,0.3087,0.2992,0.289,0.2746,0.3063,0.332,0.315,0.3207,0.3219,0.3118,0.2893,0.2712,0.273,0.2648,0.2584,0.2526,0.2297,0.2247,0.2497,0.2447,0.2321,0.2147,0.2122,0.2045,0.1869,0.1843,0.1818,0.1718,0.1718,0.1693,0.1592,0.1592,0.1628,0.1674,0.1674,0.1658,0.8017,0.8444,0.8604,0.8344,0.8178,0.7941,0.7484,0.6814,0.6233,0.6106,0.5724,0.5478,0.5667,0.5882,0.6171,0.6606,0.6792,0.6954,0.7149,0.6954,0.6413,0.5315,0.4521,0.3912,0.3606,0.3574,0.3587,0.3587,0.3587,0.3587,0.3587,0.3587,0.3587,0.3587,0.3587,0.3587,0.3587,0.3587,0.3587,0.3587,0.3587,0.3587,0.3587,0.3587,0.3587,0.3587,0.3587,0.3587,0.0,0.3587,0.3587,0.3587,0.3587,0.3587,0.3587,0.3587,0.3587,0.3587,0.3587,0.3587,0.3587,0.3587,0.3503,0.339,0.3279,0.3335,0.3418,0.3418,0.3418,0.3418,0.3418,0.325,0.3166,0.3362,0.3057,0.275,0.2915,0.2805,0.2685,0.2657,0.2652,0.2697,0.286,0.2703,0.261,0.2826,0.2649,0.2494,0.2492,0.2421,0.2323,0.2296,0.2028,0.192,0.2095,0.2095,0.202,0.1869,0.1844,0.1768,0.1617,0.1592,0.1592,0.1592,0.1592,0.1592,0.1592,0.1628,0.165,0.1704,0.1704,0.1688,0.0,0.7641,0.7941,0.7941,0.7669,0.7327,0.7158,0.6469,0.0,0.5862,0.5711,0.5602,0.5705,0.6177,0.6409,0.6005,0.6448,0.6624,0.5982,0.6166,0.5934,0.4755,0.4678,0.4407,0.3579,0.3553,0.3587,0.3587,0.3587,0.3587,0.3587,0.3587,0.3587,0.3587,0.3587,0.3587,0.3587,0.3587,0.3587,0.3587,0.3587,0.3587,0.3587,0.3587,0.3587,0.3587,0.3587,0.3587,0.3587,0.3587,0.3587,0.3587,0.3587,0.3587,0.3587,0.3587,0.3587,0.3587,0.3559,0.3559,0.3559,0.3531,0.3335,0.3026,0.2776,0.2861,0.3082,0.3082,0.3082,0.3082,0.3082,0.3054,0.3054,0.3054,0.2859,0.2637,0.2665,0.2637,0.2637,0.2637,0.2637,0.2637,0.2665,0.2603,0.2548,0.2575,0.2513,0.2459,0.2456,0.2236,0.208,0.2074,0.1789,0.1594,0.1592,0.1592,0.1592,0.1592,0.1592,0.1592,0.1592,0.1592,0.1592,0.1592,0.1594,0.1595,0.1595,0.1676,0.1706,0.1707,0.1707,0.1709,0.573,0.0,0.6417,0.6417,0.6346,0.6261,0.0,0.5847,0.5521,0.5521,0.5402,0.5434,0.5913,0.5991,0.6291,0.7191,0.6742,0.6422,0.6814,0.5863,0.4798,0.3959,0.3866,0.38,0.3592,0.3579,0.3587,0.3587,0.3587,0.3587,0.3587,0.3587,0.3587,0.3587,0.3587,0.3587,0.3587,0.3587,0.3587,0.3587,0.3587,0.3587,0.3587,0.3587,0.3587,0.3587,0.3587,0.3587,0.3587,0.3587,0.3587,0.3587,0.3587,0.3587,0.3587,0.3587,0.3587,0.3559,0.3306,0.3222,0.3194,0.2973,0.2862,0.2778,0.2721,0.275,0.2806,0.2806,0.2806,0.2806,0.2806,0.2608,0.2468,0.272,0.2384,0.2076,0.2272,0.216,0.202,0.202,0.202,0.2076,0.2272,0.2125,0.2063,0.2258,0.2112,0.1958,0.196,0.1922,0.1845,0.1796,0.1733,0.1668,0.1594,0.1592,0.1592,0.1592,0.1592,0.1592,0.1592,0.1592,0.1592,0.1592,0.1639,0.1677,0.1677,0.168,0.1736,0.1766,0.1766,0.1778,0.5162,0.5661,0.6181,0.6181,0.6181,0.6154,0.6104,0.5733,0.5378,0.5321,0.5368,0.5421,0.5374,0.5525,0.5737,0.5969,0.5783,0.5683,0.5925,0.4911,0.401,0.3656,0.3587,0.3587,0.3587,0.3587,0.3587,0.3587,0.3587,0.3587,0.3587,0.3587,0.3587,0.3587,0.3587,0.3587,0.3587,0.3587,0.3587,0.3587,0.3587,0.3587,0.3587,0.3587,0.3587,0.3587,0.3587,0.3587,0.3587,0.3587,0.3587,0.3587,0.3587,0.3587,0.3587,0.3418,0.3362,0.3334,0.3027,0.2915,0.2859,0.258,0.2469,0.2441,0.2328,0.23,0.23,0.2441,0.2469,0.2469,0.2469,0.2328,0.2244,0.2441,0.2132,0.1879,0.2132,0.1992,0.1823,0.1964,0.1879,0.1851,0.1992,0.1907,0.1851,0.1992,0.1879,0.1789,0.1801,0.1814,0.1792,0.1759,0.1716,0.1695,0.164,0.1638,0.1632,0.1593,0.1592,0.1592,0.1592,0.1592,0.1624,0.1637,0.1693,0.1715,0.1756,0.1745,0.1767,0.1798,0.1798,0.1807,0.5114,0.5797,0.6482,0.6417,0.644,0.6435,0.6325,0.5846,0.5382,0.5265,0.5386,0.5338,0.4744,0.5002,0.5068,0.4269,0.4582,0.4788,0.4382,0.3844,0.3519,0.358,0.3587,0.3587,0.3587,0.3587,0.3587,0.3587,0.3587,0.3587,0.3587,0.3587,0.3587,0.3587,0.3587,0.3587,0.3587,0.3587,0.3587,0.3587,0.3587,0.3587,0.3587,0.3587,0.3587,0.3587,0.3587,0.3587,0.3587,0.3587,0.3587,0.3587,0.3587,0.3559,0.3503,0.3194,0.3082,0.2998,0.272,0.2609,0.2525,0.2244,0.2132,0.2104,0.1879,0.1795,0.1851,0.2076,0.2132,0.2132,0.2132,0.2132,0.2132,0.2132,0.1964,0.1851,0.2104,0.1964,0.1879,0.2104,0.1964,0.1795,0.1795,0.1795,0.1795,0.1795,0.1795,0.1795,0.1795,0.1801,0.1809,0.1804,0.1754,0.1699,0.1697,0.1695,0.1684,0.1606,0.1626,0.1626,0.1604,0.1604,0.1642,0.1694,0.1723,0.1751,0.1804,0.1809,0.1797,0.1795,0.1795,0.1795,0.5623,0.6128,0.6414,0.6079,0.6165,0.6325,0.6301,0.5879,0.5474,0.5465,0.5049,0.4802,0.519,0.4833,0.4659,0.5168,0.4868,0.4344,0.3674,0.3529,0.3519,0.358,0.3587,0.3587,0.3587,0.3587,0.3587,0.3587,0.3587,0.3587,0.3587,0.3587,0.3587,0.3587,0.3587,0.3587,0.3587,0.3587,0.3587,0.3587,0.3587,0.3587,0.3587,0.3587,0.3587,0.3587,0.3587,0.3587,0.3587,0.3587,0.3587,0.3587,0.3587,0.3418,0.3166,0.3109,0.2943,0.2721,0.2385,0.2132,0.1936,0.1879,0.1851,0.1851,0.1823,0.1795,0.1823,0.1851,0.1851,0.1851,0.1851,0.1851,0.1851,0.1851,0.1823,0.1823,0.1851,0.1823,0.1823,0.1851,0.1823,0.1795,0.1795,0.1795,0.1795,0.1795,0.1795,0.1795,0.1795,0.1791,0.1806,0.1807,0.18,0.1758,0.17,0.1698,0.1696,0.1691,0.1695,0.1692,0.169,0.1691,0.1693,0.1697,0.1754,0.1799,0.1804,0.1803,0.1791,0.1795,0.1795,0.1795,0.5091,0.571,0.6239,0.6054,0.6455,0.6771,0.6303,0.5807,0.5316,0.4839,0.4592,0.4415,0.4293,0.4129,0.4074,0.4225,0.4061,0.3802,0.3499,0.3508,0.3556,0.3583,0.3587,0.3587,0.3587,0.3587,0.3587,0.3587,0.3587,0.3587,0.3587,0.3587,0.3587,0.3587,0.3587,0.3587,0.3587,0.3587,0.3587,0.3587,0.3587,0.3587,0.3587,0.3587,0.3587,0.3587,0.3587,0.3587,0.3587,0.3587,0.3587,0.3587,0.339,0.325,0.3053,0.2746,0.2439,0.2188,0.2048,0.1907,0.1795,0.1795,0.1795,0.1795,0.1795,0.1795,0.1795,0.1795,0.1795,0.1795,0.1795,0.1795,0.1795,0.1795,0.1795,0.1795,0.1795,0.1795,0.1795,0.1795,0.1795,0.1795,0.1795,0.1795,0.1795,0.1795,0.1795,0.1795,0.1795,0.1795,0.179,0.1803,0.1802,0.179,0.1758,0.1756,0.1749,0.1705,0.1692,0.169,0.1703,0.1747,0.1756,0.1756,0.1786,0.1802,0.1802,0.1788,0.1795,0.1795,0.1795,0.1795,0.4786,0.5361,0.5994,0.6148,0.6756,0.7099,0.6299,0.5773,0.522,0.4421,0.4258,0.4084,0.3523,0.3526,0.3549,0.3278,0.3348,0.3469,0.3512,0.3557,0.3587,0.3587,0.3587,0.3587,0.3587,0.3587,0.3587,0.3587,0.3587,0.3587,0.3587,0.3587,0.3587,0.3587,0.3587,0.3587,0.3587,0.3587,0.3587,0.3587,0.3587,0.3587,0.3587,0.3587,0.3587,0.3587,0.3587,0.3587,0.3587,0.3503,0.3475,0.3446,0.3138,0.297,0.283,0.2299,0.1964,0.1795,0.1795,0.1795,0.1795,0.1795,0.1795,0.1795,0.1795,0.1795,0.1795,0.1795,0.1795,0.1795,0.1795,0.1795,0.1795,0.1795,0.1795,0.1795,0.1795,0.1795,0.1795,0.1795,0.1795,0.1795,0.1795,0.1795,0.1795,0.1795,0.1795,0.1795,0.1795,0.1795,0.1795,0.1795,0.1795,0.1813,0.179,0.1787,0.1778,0.1727,0.1725,0.1725,0.1725,0.1775,0.1787,0.1787,0.1811,0.1795,0.1795,0.1795,0.1795,0.1795,0.1795,0.1795,0.5463,0.558,0.5693,0.6316,0.6745,0.6891,0.6318,0.5875,0.5424,0.4869,0.4258,0.3827,0.3767,0.3432,0.3201,0.3368,0.3497,0.3576,0.358,0.3585,0.3587,0.3587,0.3587,0.3587,0.3587,0.3587,0.3587,0.3587,0.3587,0.3587,0.3587,0.3587,0.3587,0.3587,0.3587,0.3587,0.3587,0.3587,0.3587,0.3587,0.3587,0.3587,0.3587,0.3587,0.3587,0.3587,0.3587,0.3587,0.3587,0.325,0.3137,0.311,0.2833,0.2552,0.2216,0.1936,0.1823,0.1795,0.1795,0.1795,0.1795,0.1795,0.1795,0.1795,0.1795,0.1795,0.1795,0.1795,0.1795,0.1795,0.1795,0.1795,0.1795,0.1795,0.1795,0.1795,0.1795,0.1795,0.1795,0.1795,0.1795,0.1795,0.1795,0.1795,0.1795,0.1795,0.1795,0.1795,0.1795,0.1795,0.1795,0.1795,0.1795,0.1794,0.1792,0.1792,0.1791,0.1789,0.1789,0.1789,0.1789,0.1791,0.1792,0.1792,0.1794,0.1795,0.1795,0.1795,0.1795,0.1795,0.1795,0.1795,0.47,0.4795,0.5074,0.5922,0.5817,0.547,0.5297,0.5429,0.5245,0.399,0.3582,0.3424,0.3424,0.332,0.3262,0.3369,0.3511,0.3587,0.3587,0.3587,0.3587,0.3587,0.3587,0.3587,0.3587,0.3587,0.3587,0.3587,0.3587,0.3587,0.3587,0.3587,0.3587,0.3587,0.3587,0.3587,0.3587,0.3587,0.3587,0.3587,0.3587,0.3587,0.3587,0.3587,0.3587,0.3587,0.3587,0.3475,0.3278,0.3166,0.2998,0.2833,0.2496,0.2216,0.1936,0.1823,0.1795,0.1795,0.1795,0.1795,0.1795,0.1795,0.1795,0.1795,0.1795,0.1795,0.1795,0.1795,0.1795,0.1795,0.1795,0.1795,0.1795,0.1795,0.1795,0.1795,0.1795,0.1795,0.1795,0.1795,0.1795,0.1795,0.1795,0.1795,0.1795,0.1795,0.1795,0.1795,0.1795,0.1795,0.1795,0.1795,0.1795,0.1795,0.1795,0.1795,0.1795,0.1795,0.1795,0.1795,0.1795,0.1795,0.1795,0.1795,0.1795,0.1795,0.1795,0.1795,0.1795,0.1795,0.1795,0.1795,0.4095,0.4401,0.4905,0.5139,0.5058,0.4827,0.4462,0.4755,0.4731,0.3435,0.3175,0.3194,0.3252,0.3265,0.3298,0.3422,0.3522,0.3587,0.3587,0.3587,0.3587,0.3587,0.3587,0.3587,0.3587,0.3587,0.3587,0.3587,0.3587,0.3587,0.3587,0.3587,0.3587,0.3587,0.3587,0.3587,0.3587,0.3587,0.3587,0.3587,0.3503,0.3503,0.3587,0.3587,0.3531,0.3446,0.3446,0.325,0.297,0.2858,0.2663,0.2385,0.216,0.1964,0.1795,0.1795,0.1795,0.1795,0.1795,0.1795,0.1795,0.1795,0.1795,0.1795,0.1795,0.1795,0.1795,0.1795,0.1795,0.1795,0.1795,0.1795,0.1795,0.1795,0.1795,0.1795,0.1795,0.1795,0.1795,0.1795,0.1795,0.1795,0.1795,0.1795,0.1795,0.1795,0.1795,0.1795,0.1795,0.1795,0.1795,0.1795,0.1795,0.1795,0.1795,0.1795,0.1795,0.1795,0.1795,0.1795,0.1795,0.1795,0.1795,0.1795,0.1795,0.1795,0.1795,0.1795,0.1795,0.1795,0.1795,0.1795,0.3897,0.4621,0.5276,0.4021,0.4648,0.5244,0.3994,0.3855,0.3878,0.34,0.3202,0.3173,0.3352,0.3289,0.3265,0.3467,0.3548,0.3587,0.3587,0.3587,0.3587,0.3587,0.3587,0.3587,0.3587,0.3587,0.3587,0.3587,0.3587,0.3587,0.3587,0.3587,0.3587,0.3587,0.3587,0.3587,0.3587,0.3587,0.3587,0.3587,0.325,0.3278,0.3587,0.3587,0.3418,0.3109,0.3109,0.2943,0.2665,0.2328,0.2048,0.1795,0.1795,0.1795,0.1795,0.1795,0.1795,0.1795,0.1795,0.1795,0.1795,0.1795,0.1795,0.1795,0.1795,0.1795,0.1795,0.1795,0.1795,0.1795,0.1795,0.1795,0.1795,0.1795,0.1795,0.1795,0.1795,0.1795,0.1795,0.1795,0.1795,0.1795,0.1795,0.1795,0.1795,0.1795,0.1795,0.1795,0.1795,0.1795,0.1795,0.1795,0.1795,0.1795,0.1795,0.1795,0.1795,0.1795,0.1795,0.1795,0.1795,0.1795,0.1795,0.1795,0.1795,0.1795,0.1795,0.1795,0.1795,0.1795,0.1795,0.1795,0.4588,0.4408,0.4409,0.4744,0.4265,0.3757,0.4,0.4209,0.4191,0.362,0.3446,0.3407,0.3462,0.3441,0.3435,0.3488,0.3548,0.3587,0.3587,0.3587,0.3587,0.3587,0.3587,0.3587,0.3587,0.3587,0.3587,0.3587,0.3587,0.3587,0.3587,0.3587,0.3587,0.3587,0.3587,0.3587,0.3587,0.3362,0.325,0.325,0.2943,0.2973,0.325,0.3057,0.2917,0.2833,0.2833,0.2636,0.2328,0.2048,0.1879,0.1795,0.1795,0.1795,0.1795,0.1795,0.1795,0.1795,0.1795,0.1795,0.1795,0.1795,0.1795,0.1795,0.1795,0.1795,0.1795,0.1795,0.1795,0.1795,0.1795,0.1795,0.1795,0.1795,0.1795,0.1795,0.1795,0.1795,0.1795,0.1795,0.1795,0.1795,0.1795,0.1795,0.1795,0.1795,0.1795,0.1795,0.1795,0.1795,0.1795,0.1795,0.1795,0.1795,0.1795,0.1795,0.1795,0.1795,0.1795,0.1795,0.1795,0.1795,0.1795,0.1795,0.1795,0.1795,0.1795,0.1795,0.1795,0.1795,0.1795,0.1795,0.4391,0.42,0.4102,0.4207,0.3754,0.3388,0.376,0.3954,0.398,0.3658,0.3521,0.3477,0.3523,0.3495,0.3478,0.3525,0.3564,0.3587,0.3587,0.3587,0.3587,0.3587,0.3587,0.3587,0.3587,0.3587,0.3587,0.3587,0.3587,0.3587,0.3587,0.3587,0.3587,0.3587,0.3475,0.339,0.339,0.3083,0.2943,0.2943,0.2636,0.258,0.2746,0.272,0.2637,0.2497,0.2385,0.2216,0.202,0.1879,0.1795,0.1795,0.1795,0.1795,0.1795,0.1795,0.1795,0.1795,0.1795,0.1795,0.1795,0.1795,0.1795,0.1795,0.1795,0.1795,0.1795,0.1795,0.1795,0.1795,0.1795,0.1795,0.1795,0.1795,0.1795,0.1795,0.1795,0.1795,0.1795,0.1795,0.1795,0.1795,0.1795,0.1795,0.1795,0.1795,0.1795,0.1795,0.1795,0.1795,0.1795,0.1795,0.1795,0.1795,0.1795,0.1795,0.1795,0.1795,0.1795,0.1795,0.1795,0.1795,0.1795,0.1795,0.1795,0.1795,0.1795,0.1795,0.1795,0.1795,0.1795,0.1795,0.3702,0.4032,0.411,0.2981,0.3282,0.3743,0.3382,0.3338,0.3437,0.3555,0.3499,0.3461,0.3568,0.35,0.3463,0.357,0.3587,0.3587,0.3587,0.3587,0.3587,0.3587,0.3587,0.3587,0.3587,0.3587,0.3587,0.3587,0.3587,0.3587,0.3559,0.3559,0.3531,0.3531,0.3222,0.3054,0.3054,0.2805,0.2665,0.2637,0.2328,0.216,0.2188,0.2469,0.2441,0.216,0.1907,0.1795,0.1795,0.1795,0.1795,0.1795,0.1795,0.1795,0.1795,0.1795,0.1795,0.1795,0.1795,0.1795,0.1795,0.1795,0.1795,0.1795,0.1795,0.1795,0.1795,0.1795,0.1795,0.1795,0.1795,0.1795,0.1795,0.1795,0.1795,0.1795,0.1795,0.1795,0.1795,0.1795,0.1795,0.1795,0.1795,0.1795,0.1795,0.1795,0.1795,0.1795,0.1795,0.1795,0.1795,0.1795,0.1795,0.1795,0.1795,0.1795,0.1795,0.1795,0.1795,0.1795,0.1795,0.1795,0.1795,0.1795,0.1795,0.1795,0.1795,0.1795,0.1795,0.1795,0.1795,0.1795,0.4285,0.3896,0.3495,0.3526,0.3415,0.3279,0.3299,0.3307,0.3348,0.3492,0.3534,0.3557,0.3582,0.3567,0.3557,0.3583,0.3587,0.3587,0.3587,0.3587,0.3587,0.3587,0.3587,0.3587,0.3587,0.3587,0.3587,0.3587,0.3587,0.3475,0.3222,0.3222,0.311,0.289,0.2834,0.2778,0.2778,0.2468,0.23,0.23,0.202,0.1879,0.1879,0.1964,0.1964,0.1879,0.1823,0.1795,0.1795,0.1795,0.1795,0.1795,0.1795,0.1795,0.1795,0.1795,0.1795,0.1795,0.1795,0.1795,0.1795,0.1795,0.1795,0.1795,0.1795,0.1795,0.1795,0.1795,0.1795,0.1795,0.1795,0.1795,0.1795,0.1795,0.1795,0.1795,0.1795,0.1795,0.1795,0.1795,0.1795,0.1795,0.1795,0.1795,0.1795,0.1795,0.1795,0.1795,0.1795,0.1795,0.1795,0.1795,0.1795,0.1795,0.1795,0.1795,0.1795,0.1795,0.1795,0.1795,0.1795,0.1795,0.1795,0.1795,0.1795,0.1795,0.1795,0.1795,0.1795,0.1795,0.1795,0.1795,0.3995,0.3481,0.2927,0.3361,0.3278,0.3138,0.3217,0.3274,0.3313,0.3399,0.3482,0.3544,0.3544,0.3568,0.3587,0.3587,0.3587,0.3587,0.3587,0.3587,0.3587,0.3587,0.3587,0.3531,0.3362,0.3362,0.3307,0.3169,0.3169,0.3085,0.2915,0.2915,0.2833,0.2693,0.2553,0.2469,0.2469,0.216,0.202,0.202,0.1879,0.1795,0.1795,0.1795,0.1795,0.1795,0.1795,0.1795,0.1795,0.1795,0.1795,0.1795,0.1795,0.1795,0.1795,0.1795,0.1795,0.1795,0.1795,0.1795,0.1795,0.1795,0.1795,0.1795,0.1795,0.1795,0.1795,0.1795,0.1795,0.1795,0.1795,0.1795,0.1795,0.1795,0.1795,0.1795,0.1795,0.1795,0.1795,0.1795,0.1795,0.1795,0.1795,0.1795,0.1795,0.1795,0.1795,0.1795,0.1795,0.1795,0.1795,0.1795,0.1795,0.1795,0.1795,0.1795,0.1795,0.1795,0.1795,0.1795,0.1795,0.1795,0.1795,0.1795,0.1795,0.1795,0.1795,0.1795,0.1795,0.1795,0.1795,0.1711,0.3414,0.301,0.2516,0.2964,0.3081,0.3126,0.3165,0.3236,0.3281,0.3281,0.3399,0.3481,0.3481,0.3531,0.3572,0.3572,0.358,0.3587,0.3531,0.3503,0.3503,0.3449,0.3447,0.3335,0.3054,0.3026,0.2943,0.2721,0.2693,0.2665,0.2609,0.2609,0.2581,0.2553,0.2272,0.2132,0.2132,0.1907,0.1795,0.1795,0.1795,0.1795,0.1795,0.1795,0.1795,0.1795,0.1795,0.1795,0.1795,0.1795,0.1795,0.1795,0.1795,0.1795,0.1795,0.1795,0.1795,0.1795,0.1795,0.1795,0.1795,0.1795,0.1795,0.1795,0.1795,0.1795,0.1795,0.1795,0.1795,0.1795,0.1795,0.1795,0.1795,0.1795,0.1795,0.1795,0.1795,0.1795,0.1795,0.1795,0.1795,0.1795,0.1795,0.1795,0.1795,0.1795,0.1795,0.1795,0.1795,0.1795,0.1795,0.1795,0.1795,0.1795,0.1795,0.1795,0.1795,0.1795,0.1795,0.1795,0.1795,0.1795,0.1795,0.1795,0.1795,0.1795,0.1795,0.1739,0.1711,0.1711,0.1655,0.1374,0.3104,0.2804,0.2476,0.2839,0.3021,0.3091,0.3112,0.3174,0.3217,0.3217,0.3313,0.3424,0.3424,0.347,0.3508,0.3508,0.3553,0.3503,0.3222,0.3166,0.3082,0.2862,0.2834,0.2806,0.275,0.275,0.275,0.2693,0.2693,0.2581,0.2272,0.2272,0.216,0.1936,0.1879,0.1851,0.1851,0.1823,0.1795,0.1795,0.1795,0.1795,0.1795,0.1795,0.1795,0.1795,0.1795,0.1795,0.1795,0.1795,0.1795,0.1795,0.1795,0.1795,0.1795,0.1795,0.1795,0.1795,0.1795,0.1795,0.1795,0.1795,0.1795,0.1795,0.1795,0.1795,0.1795,0.1795,0.1795,0.1795,0.1795,0.1795,0.1795,0.1795,0.1795,0.1795,0.1795,0.1795,0.1795,0.1795,0.1795,0.1795,0.1795,0.1795,0.1795,0.1795,0.1795,0.1795,0.1795,0.1795,0.1795,0.1795,0.1795,0.1795,0.1795,0.1795,0.1795,0.1795,0.1795,0.1795,0.1795,0.1795,0.1795,0.1795,0.1795,0.1795,0.1795,0.1514,0.1374,0.1374,0.1121,0.0448,0.2623,0.2479,0.2433,0.2812,0.2936,0.2999,0.3092,0.3112,0.3155,0.3155,0.3224,0.3294,0.3329,0.341,0.3396,0.3233,0.3255,0.3161,0.2861,0.2834,0.279,0.2653,0.2656,0.2582,0.2438,0.2413,0.2356,0.2216,0.2188,0.2132,0.1992,0.1964,0.1936,0.1795,0.1795,0.1795,0.1795,0.1795,0.1795,0.1795,0.1795,0.1795,0.1795,0.1795,0.1795,0.1795,0.1795,0.1795,0.1795,0.1795,0.1795,0.1795,0.1795,0.1795,0.1795,0.1795,0.1795,0.1795,0.1795,0.1795,0.1795,0.1795,0.1795,0.1795,0.1795,0.1795,0.1795,0.1795,0.1795,0.1795,0.1795,0.1795,0.1795,0.1795,0.1795,0.1795,0.1795,0.1795,0.1795,0.1795,0.1795,0.1795,0.1795,0.1795,0.1795,0.1795,0.1795,0.1795,0.1795,0.1795,0.1795,0.1795,0.1795,0.1795,0.1795,0.1795,0.1795,0.1795,0.1795,0.1795,0.1795,0.1795,0.1655,0.129,0.1402,0.1486,0.1514,0.1234,0.1065,0.1065,0.0252,-0.0476,0.2191,0.2117,0.2267,0.2647,0.2816,0.2901,0.3027,0.3087,0.3092,0.3092,0.314,0.3171,0.3138,0.3206,0.3177,0.2911,0.2896,0.2798,0.2531,0.2504,0.2463,0.2387,0.2363,0.2297,0.2115,0.209,0.201,0.1822,0.1795,0.1795,0.1795,0.1795,0.1795,0.1795,0.1795,0.1795,0.1795,0.1795,0.1795,0.1795,0.1795,0.1795,0.1795,0.1795,0.1795,0.1795,0.1795,0.1795,0.1795,0.1795,0.1795,0.1795,0.1795,0.1795,0.1795,0.1795,0.1795,0.1795,0.1795,0.1795,0.1795,0.1795,0.1795,0.1795,0.1795,0.1795,0.1795,0.1795,0.1795,0.1795,0.1795,0.1795,0.1795,0.1795,0.1795,0.1795,0.1795,0.1795,0.1795,0.1795,0.1795,0.1795,0.1795,0.1795,0.1795,0.1795,0.1795,0.1795,0.1795,0.1795,0.1795,0.1795,0.1795,0.1795,0.1795,0.1795,0.1795,0.1795,0.1795,0.1795,0.1795,0.1795,0.143,0.0673,0.0925,0.1093,0.1206,0.0925,0.0785,0.0729,-0.0532,-0.1399,0.1901,0.1777,0.1911,0.2255,0.2578,0.2827,0.289,0.3018,0.3102,0.3102,0.3102,0.3022,0.2779,0.2839,0.2832,0.2571,0.2582,0.2531,0.2264,0.2211,0.2105,0.1786,0.176,0.1772,0.1804,0.1834,0.1819,0.1793,0.1795,0.1795,0.1795,0.1795,0.1795,0.1795,0.1795,0.1795,0.1795,0.1795,0.1795,0.1795,0.1795,0.1795,0.1795,0.1795,0.1795,0.1795,0.1795,0.1795,0.1795,0.1795,0.1795,0.1795,0.1795,0.1795,0.1795,0.1795,0.1795,0.1795,0.1795,0.1795,0.1795,0.1795,0.1795,0.1795,0.1795,0.1795,0.1795,0.1795,0.1795,0.1795,0.1795,0.1795,0.1795,0.1795,0.1795,0.1795,0.1795,0.1795,0.1795,0.1795,0.1795,0.1795,0.1795,0.1795,0.1795,0.1795,0.1795,0.1795,0.1795,0.1795,0.1795,0.1795,0.1795,0.1795,0.1795,0.1795,0.1795,0.1795,0.1795,0.1795,0.1795,0.1795,0.1234,0.0056,0.0421,0.0729,0.0925,0.0589,0.0421,0.0393,-0.1064,-0.2379,0.1821,0.1679,0.1807,0.2106,0.233,0.2502,0.2619,0.2816,0.2983,0.2983,0.3037,0.2962,0.253,0.266,0.2702,0.2244,0.2206,0.2112,0.1855,0.1803,0.1785,0.1701,0.1704,0.1715,0.1745,0.1747,0.1725,0.1736,0.1737,0.1737,0.1737,0.1783,0.1794,0.1794,0.1812,0.1795,0.1795,0.1795,0.1795,0.1795,0.1795,0.1795,0.1795,0.1795,0.1795,0.1795,0.1795,0.1795,0.1795,0.1795,0.1795,0.1795,0.1795,0.1795,0.1795,0.1795,0.1795,0.1795,0.1795,0.1795,0.1795,0.1795,0.1795,0.1795,0.1795,0.1795,0.1795,0.1795,0.1795,0.1795,0.1795,0.1795,0.1795,0.1795,0.1795,0.1795,0.1795,0.1795,0.1795,0.1795,0.1795,0.1795,0.1795,0.1795,0.1795,0.1795,0.1795,0.1795,0.1795,0.1795,0.1795,0.1795,0.1795,0.1795,0.1795,0.1795,0.1795,0.1795,0.1795,0.1458,0.0673,0.0645,0.0449,0.0,0.014,0.0336,0.0589,0.028,0.014,0.0112,-0.1456,-0.2408,0.1665,0.1544,0.1664,0.1968,0.2093,0.2229,0.2486,0.265,0.2791,0.2853,0.2983,0.2901,0.2362,0.2473,0.2457,0.195,0.1877,0.1806,0.1615,0.1592,0.1624,0.167,0.1673,0.1684,0.1688,0.169,0.1694,0.1703,0.1704,0.1704,0.1704,0.175,0.1766,0.1804,0.1796,0.1812,0.1795,0.1795,0.1795,0.1795,0.1795,0.1795,0.1795,0.1795,0.1795,0.1795,0.1795,0.1795,0.1795,0.1795,0.1795,0.1795,0.1795,0.1795,0.1795,0.1795,0.1795,0.1795,0.1795,0.1795,0.1795,0.1795,0.1795,0.1795,0.1795,0.1795,0.1795,0.1795,0.1795,0.1795,0.1795,0.1795,0.1795,0.1795,0.1795,0.1795,0.1795,0.1795,0.1795,0.1795,0.1795,0.1795,0.1795,0.1795,0.1795,0.1795,0.1795,0.1795,0.1795,0.1795,0.1795,0.1795,0.1795,0.1795,0.1795,0.1795,0.1627,0.1234,0.1206,0.0841,0.0028,0.0,0.0,0.0,0.0,0.0084,0.0252,0.0084,0.0,-0.0028,-0.1652,-0.2547,0.0,0.0,0.0,0.181,0.1887,0.2014,0.2473,0.2537,0.2549,0.2756,0.2886,0.2809,0.2286,0.2256,0.2133,0.1661,0.1594,0.1605,0.1585,0.159,0.159,0.159,0.1591,0.1628,0.1684,0.1687,0.1699,0.1699,0.1701,0.1701,0.1701,0.1703,0.1717,0.1802,0.1804,0.1792,0.1793,0.1795,0.1795,0.1795,0.1795,0.1795,0.1795,0.1795,0.1795,0.1795,0.1795,0.1795,0.1795,0.1795,0.1795,0.1795,0.1795,0.1795,0.1795,0.1795,0.1795,0.1795,0.1795,0.1795,0.1795,0.1795,0.1795,0.1795,0.1795,0.1795,0.1795,0.1795,0.1795,0.1795,0.1795,0.1795,0.1795,0.1795,0.1795,0.1795,0.1795,0.1795,0.1795,0.1795,0.1795,0.1795,0.1795,0.1795,0.1795,0.1795,0.1795,0.1795,0.1795,0.1795,0.1795,0.1795,0.1795,0.1795,0.1739,0.1739,0.1234,0.0084,0.0,0.0,0.0,0.0,0.0,0.0,0.0,0.0,0.0,0.0,0.0,-0.0028,-0.1596,-0.2743,0.1428,0.0,0.0,0.0,0.0,0.0,0.2047,0.2085,0.2144,0.2455,0.25,0.2423,0.2171,0.2183,0.2068,0.1595,0.1524,0.1517,0.1526,0.157,0.1609,0.1609,0.1604,0.1595,0.1628,0.1629,0.1633,0.164,0.1615,0.1615,0.1615,0.1662,0.1713,0.1716,0.1765,0.1809,0.179,0.1812,0.1795,0.1795,0.1795,0.1795,0.1795,0.1795,0.1795,0.1795,0.1795,0.1795,0.1795,0.1795,0.1795,0.1795,0.1795,0.1795,0.1795,0.1795,0.1795,0.1795,0.1795,0.1795,0.1795,0.1795,0.1795,0.1795,0.1795,0.1795,0.1795,0.1795,0.1795,0.1795,0.1795,0.1795,0.1795,0.1795,0.1795,0.1795,0.1795,0.1795,0.1795,0.1795,0.1795,0.1795,0.1795,0.1795,0.1795,0.1795,0.1795,0.1795,0.1795,0.1795,0.1795,0.1795,0.1795,0.1458,0.0561,0.0505,0.0364,0.0028,0.0,0.0,0.0,0.0,0.0,0.0,0.0,0.0,0.0,0.0,0.0,0.0,-0.0448,-0.0784,0.1514,0.1485,0.1548,0.1598,0.0,0.0,0.1969,0.1959,0.1974,0.2261,0.2282,0.2201,0.2006,0.1977,0.1874,0.1526,0.1457,0.1459,0.1497,0.1541,0.1553,0.1553,0.1579,0.1598,0.1598,0.1609,0.1592,0.1592,0.1592,0.1592,0.1592,0.1634,0.1682,0.1712,0.1731,0.1746,0.1758,0.1788,0.1804,0.1804,0.1789,0.1795,0.1795,0.1795,0.1795,0.1795,0.1795,0.1795,0.1795,0.1795,0.1795,0.1795,0.1795,0.1795,0.1795,0.1795,0.1795,0.1795,0.1795,0.1795,0.1795,0.1795,0.1795,0.1795,0.1795,0.1795,0.1795,0.1795,0.1795,0.1795,0.1795,0.1795,0.1795,0.1795,0.1795,0.1795,0.1795,0.1795,0.1795,0.1795,0.1795,0.1795,0.1795,0.1795,0.1795,0.1795,0.1795,0.1795,0.1795,0.1795,0.1598,0.1093,0.1037,0.0757,0.0056,0.0,0.0,0.0,0.0,0.0,0.0,0.0,0.0,0.0,0.0,0.0,0.0,0.0,0.0,0.0,0.0,0.0,0.1675,0.1652,0.0,0.1854,0.1732,0.0,0.2058,0.1989,0.1915,0.21,0.2115,0.2035,0.1794,0.1719,0.1605,0.1419,0.1373,0.1412,0.148,0.1495,0.1498,0.1498,0.1548,0.1591,0.1591,0.1591,0.1583,0.1611,0.159,0.1592,0.1592,0.1592,0.1629,0.1682,0.1686,0.17,0.1699,0.1756,0.1799,0.1799,0.1803,0.179,0.179,0.1793,0.1795,0.1795,0.1795,0.1795,0.1795,0.1795,0.1795,0.1795,0.1795,0.1795,0.1795,0.1795,0.1795,0.1795,0.1795,0.1795,0.1795,0.1795,0.1795,0.1795,0.1795,0.1795,0.1795,0.1795,0.1795,0.1795,0.1795,0.1795,0.1795,0.1795,0.1795,0.1795,0.1795,0.1795,0.1795,0.1795,0.1795,0.1795,0.1795,0.1795,0.1795,0.1795,0.1795,0.1795,0.1795,0.1683,0.1177,0.0112,0.0,0.0,0.0,0.0,0.0,0.0,0.0,0.0,0.0,0.0,0.0,0.0,0.0,0.0,0.0,0.0,0.0,0.0,0.0,0.0,0.1951,0.2005,0.2042,0.1867,0.1939,0.0,0.1844,0.1683,0.1613,0.1771,0.1631,0.1476,0.1482,0.1513,0.1478,0.128,0.1291,0.1351,0.1418,0.1474,0.1489,0.1489,0.1516,0.1511,0.1511,0.1516,0.1554,0.1603,0.1603,0.1592,0.1592,0.1592,0.1594,0.1626,0.1675,0.1691,0.1696,0.1725,0.1713,0.1713,0.1772,0.1814,0.1787,0.1812,0.1795,0.1795,0.1795,0.1795,0.1795,0.1795,0.1795,0.1795,0.1795,0.1795,0.1795,0.1795,0.1795,0.1795,0.1795,0.1795,0.1795,0.1795,0.1795,0.1795,0.1795,0.1795,0.1795,0.1795,0.1795,0.1795,0.1795,0.1795,0.1795,0.1795,0.1795,0.1795,0.1795,0.1795,0.1795,0.1795,0.1795,0.1795,0.1795,0.1795,0.1795,0.1795,0.1795,0.1795,0.1795,0.0953,0.0252,0.0028,0.0,0.0,0.0,0.0,0.0,0.0,0.0,0.0,0.0,0.0,0.0,0.0,0.0,0.0,0.0,0.0,0.0,0.0,0.0,0.0,0.214,0.2153,0.2177,0.2072,0.2104,0.0,0.0,0.1737,0.1589,0.1729,0.1476,0.127,0.134,0.1303,0.1234,0.1211,0.1236,0.1253,0.1297,0.138,0.1458,0.1458,0.1485,0.1503,0.1503,0.1493,0.1508,0.1548,0.1577,0.1594,0.1594,0.1609,0.1592,0.1592,0.1632,0.1639,0.1639,0.1695,0.1709,0.171,0.174,0.1754,0.1755,0.1786,0.18,0.1801,0.1789,0.1795,0.1795,0.1795,0.1795,0.1795,0.1795,0.1795,0.1795,0.1795,0.1795,0.1795,0.1795,0.1795,0.1795,0.1795,0.1795,0.1795,0.1795,0.1795,0.1795,0.1795,0.1795,0.1795,0.1795,0.1795,0.1795,0.1795,0.1795,0.1795,0.1795,0.1795,0.1795,0.1795,0.1795,0.1795,0.1795,0.1795,0.1795,0.1795,0.1795,0.157,0.0981,0.0364,0.0,0.0,0.0,0.0,0.0,0.0,0.0,0.0,0.0,0.0,0.0,0.0,0.0,0.0,0.0,0.0,0.0,0.0,0.0,0.0,0.0,0.0,0.2323,0.2303,0.231,0.2301,0.2259,0.2207,0.0,0.0,0.0,0.1728,0.1419,0.1157,0.1228,0.1097,0.1017,0.1128,0.1154,0.1159,0.1159,0.1276,0.1364,0.137,0.1429,0.1455,0.1455,0.1454,0.1471,0.1476,0.1523,0.1566,0.1578,0.1588,0.1608,0.1608,0.1588,0.1592,0.1592,0.1641,0.1679,0.1679,0.1682,0.1696,0.1697,0.1754,0.1799,0.1806,0.1803,0.1789,0.1795,0.1795,0.1795,0.1795,0.1795,0.1795,0.1795,0.1795,0.1795,0.1795,0.1795,0.1795,0.1795,0.1795,0.1795,0.1795,0.1795,0.1795,0.1795,0.1795,0.1795,0.1795,0.1795,0.1795,0.1795,0.1795,0.1795,0.1795,0.1795,0.1795,0.1795,0.1795,0.1795,0.1795,0.1795,0.1795,0.1795,0.1795,0.1598,0.1093,0.0112,0.0,0.0,0.0,0.0,0.0,0.0,0.0,0.0,0.0,0.0,0.0,0.0,0.0,0.0,0.0,0.0,0.0,0.0,0.0,0.0,-0.0028,-0.105,-0.1512,0.2659,0.2681,0.2659,0.2363,0.246,0.2531,0.2121,0.0,0.1667,0.155,0.0,0.0955,0.1027,0.0,0.0,0.0932,0.0985,0.1021,0.1021,0.1136,0.1226,0.1214,0.1291,0.132,0.132,0.1323,0.1357,0.1403,0.1408,0.1457,0.1511,0.1569,0.1601,0.1601,0.1603,0.1592,0.1592,0.162,0.1622,0.1622,0.1678,0.1693,0.1694,0.1697,0.1751,0.1804,0.1808,0.1798,0.1795,0.1795,0.1795,0.1795,0.1795,0.1795,0.1795,0.1795,0.1795,0.1795,0.1795,0.1795,0.1795,0.1795,0.1795,0.1795,0.1795,0.1795,0.1795,0.1795,0.1795,0.1795,0.1795,0.1795,0.1795,0.1795,0.1795,0.1795,0.1795,0.1795,0.1795,0.1795,0.1795,0.1795,0.1795,0.1795,0.1795,0.1795,0.0897,0.0168,0.0028,0.0,0.0,0.0,0.0,0.0,0.0,0.0,0.0,0.0,0.0,0.0,0.0,0.0,0.0,0.0,0.0,0.0,0.0,0.0,0.0,-0.0112,-0.4802,-0.6996,0.2709,0.2711,0.2692,0.251,0.2493,0.2473,0.2236,0.1907,0.1677,0.1769,0.0,0.0,0.0,0.0,0.0,0.0,0.0975,0.098,0.0945,0.1016,0.1113,0.1196,0.1219,0.1256,0.1292,0.1259,0.1276,0.1339,0.1344,0.137,0.1429,0.1553,0.1596,0.1596,0.1601,0.1592,0.1592,0.1592,0.1592,0.1592,0.163,0.1636,0.1637,0.1693,0.1713,0.1754,0.1789,0.1812,0.1797,0.1788,0.1795,0.1795,0.1795,0.1795,0.1795,0.1795,0.1795,0.1795,0.1795,0.1795,0.1795,0.1795,0.1795,0.1795,0.1795,0.1795,0.1795,0.1795,0.1795,0.1795,0.1795,0.1795,0.1795,0.1795,0.1795,0.1795,0.1795,0.1795,0.1795,0.1795,0.1795,0.1795,0.1795,0.1795,0.157,0.0869,0.0336,0.0,0.0,0.0,0.0,0.0,0.0,0.0,0.0,0.0,0.0,0.0,0.0,0.0,0.0,0.0,0.0,0.0,0.0,0.0,0.0,0.0,0.0,-0.0056,-0.2273,-0.4958,0.2775,0.2764,0.2715,0.2604,0.249,0.2398,0.2291,0.2002,0.1763,0.1893,0.1511,0.0,0.0,0.0,0.0962,0.1,0.0,0.0982,0.0906,0.0947,0.1011,0.1101,0.1157,0.1195,0.1241,0.1181,0.1182,0.1271,0.125,0.1281,0.1363,0.1489,0.1566,0.1583,0.1589,0.1609,0.1592,0.1592,0.1592,0.1592,0.1592,0.1592,0.1592,0.164,0.168,0.1691,0.1761,0.1789,0.1806,0.1801,0.1787,0.1795,0.1795,0.1795,0.1795,0.1795,0.1795,0.1795,0.1795,0.1795,0.1795,0.1795,0.1795,0.1795,0.1795,0.1795,0.1795,0.1795,0.1795,0.1795,0.1795,0.1795,0.1795,0.1795,0.1795,0.1795,0.1795,0.1795,0.1795,0.1795,0.1795,0.1795,0.1795,0.1514,0.1009,0.014,0.0,0.0,0.0,0.0,0.0,0.0,0.0,0.0,0.0,0.0,0.0,0.0,0.0,0.0,0.0,0.0,0.0,0.0,0.0,0.0,0.0,0.0,0.0,0.0,0.0,-0.2451,0.289,0.289,0.2833,0.2572,0.2491,0.2446,0.2247,0.214,0.2022,0.1763,0.1641,0.1496,0.1261,0.1138,0.108,0.0,0.1007,0.0,0.0,0.0902,0.0911,0.0902,0.1024,0.1097,0.1098,0.1039,0.1059,0.1202,0.1145,0.1156,0.1301,0.1364,0.1444,0.1502,0.1557,0.1612,0.1591,0.1592,0.1592,0.1592,0.1592,0.1592,0.1592,0.1593,0.1635,0.1688,0.1691,0.175,0.1804,0.1805,0.1796,0.1795,0.1795,0.1795,0.1795,0.1795,0.1795,0.1795,0.1795,0.1795,0.1795,0.1795,0.1795,0.1795,0.1795,0.1795,0.1795,0.1795,0.1795,0.1795,0.1795,0.1795,0.1795,0.1795,0.1795,0.1795,0.1795,0.1795,0.1795,0.1795,0.1795,0.1795,0.1795,0.0841,0.0056,0.0,0.0,0.0,0.0,0.0,0.0,0.0,0.0,0.0,0.0,0.0,0.0,0.0,0.0,0.0,0.0,0.0,0.0,0.0,0.0,0.0,0.0,0.0,0.0,0.0,0.0,-0.1454,0.2897,0.2897,0.2857,0.2672,0.257,0.2449,0.2311,0.2179,0.2046,0.1869,0.17,0.1541,0.1374,0.1213,0.0,0.0,0.0,0.0975,0.0,0.0867,0.0839,0.0836,0.0909,0.0966,0.097,0.0948,0.0987,0.1128,0.1145,0.1209,0.1299,0.14,0.1484,0.1501,0.1555,0.1611,0.1591,0.1592,0.1592,0.1592,0.1592,0.1592,0.1592,0.1592,0.1622,0.1633,0.1679,0.1726,0.1747,0.1788,0.181,0.1794,0.1787,0.1795,0.1795,0.1795,0.1795,0.1795,0.1795,0.1795,0.1795,0.1795,0.1795,0.1795,0.1795,0.1795,0.1795,0.1795,0.1795,0.1795,0.1795,0.1795,0.1795,0.1795,0.1795,0.1683,0.129,0.1514,0.1795,0.1795,0.1149,0.0617,0.0617,0.028,0.0,0.0,0.0,0.0,0.0,0.0,0.0,0.0,0.0,0.0,0.0,0.0,0.0,0.0,0.0,0.0,0.0,0.0,0.0,0.0,0.0,0.0,0.0,0.0,0.0,-0.0084,-0.3269,-0.3514,0.2897,0.2897,0.2867,0.2723,0.2572,0.2419,0.2342,0.2173,0.1998,0.1893,0.1739,0.1572,0.1406,0.1244,0.1122,0.0,0.0,0.0,0.0,0.0862,0.0836,0.0836,0.0867,0.0905,0.0896,0.0902,0.0941,0.1049,0.1102,0.1176,0.1288,0.1391,0.1462,0.15,0.1545,0.1575,0.1591,0.1592,0.1592,0.1592,0.1592,0.1592,0.1592,0.1592,0.1592,0.1593,0.1637,0.1678,0.1692,0.174,0.1767,0.1807,0.1811,0.1795,0.1795,0.1795,0.1795,0.1795,0.1795,0.1795,0.1795,0.1795,0.1795,0.1795,0.1795,0.1795,0.1795,0.1795,0.1795,0.1795,0.1795,0.1795,0.1795,0.1795,0.1458,0.1065,0.0673,0.0897,0.1149,0.1149,0.0533,0.0,0.0,0.0,0.0,0.0,0.0,0.0,0.0,0.0,0.0,0.0,0.0,0.0,0.0,0.0,0.0,0.0,0.0,0.0,0.0,0.0,0.0,0.0,0.0,0.0,0.0,0.0,0.0,-0.0084,-0.3187,-0.3883]},{"header":{"parameterUnit":"m.s-1","parameterCategory":1,"la1":30.6,"la2":29.2853,"lo1":-89.7004,"lo2":-87.6739,"dy":0.0162,"dx":0.0183,"nx":112,"ny":82,"refTime":"2024-08-23T00:00:00:Z","depth":0,"parameterNumber":3,"parameterNumberName":"V-component_of_WINDS"},"data":[0.0,0.0,0.0,0.0,0.0,0.0,0.0,0.0,0.0,0.0,0.0,0.0,0.0,0.0,0.0,0.0,0.0,0.0,0.0,0.0,0.0,0.0,0.0,0.0,0.0,0.0,0.0,0.0,0.0,0.0,0.0,0.0,0.0,0.0,0.0,0.0,0.0,0.0,0.0,0.0,0.0,0.0,0.0,0.0,0.0,0.0,0.0,0.0,0.0,0.0,0.0,0.0,0.0,0.0,0.0,0.0,0.0,0.0,0.0,0.0,0.0,0.0,0.0,0.0,0.0,0.0,0.0,0.0,0.0,0.0,0.0,0.0,0.0,0.0,0.0,0.0,0.0,0.0,0.0,0.0,0.0,0.0,0.0,0.0,0.0,0.0,0.0,0.0,0.0,0.0,1.7146,1.834,2.1138,2.2707,2.2214,2.1982,2.0732,1.8043,0.0,0.0,0.0,0.0,0.0,0.0,0.0,0.0,0.0,0.0,0.0,0.0,0.0,0.0,0.0,0.0,0.0,0.0,0.0,0.0,0.0,0.0,0.0,0.0,0.0,0.0,0.0,0.0,0.0,0.0,0.0,0.0,0.0,0.0,0.0,0.0,0.0,0.0,0.0,0.0,0.0,0.0,0.0,0.0,0.0,0.0,0.0,0.0,0.0,0.0,0.0,0.0,0.0,0.0,0.0,0.0,0.0,0.0,0.0,0.0,0.0,0.0,0.0,0.0,0.0,0.0,0.0,0.0,0.0,0.0,0.0,0.0,0.0,0.0,0.0,0.0,0.0,0.0,0.0,0.0,0.0,0.0,0.0,0.0,0.0,0.0,0.0,0.0,0.0,0.0,0.0,0.0,0.0,0.0,0.0,0.0,0.0,0.0,0.0,0.0,0.0,0.0,0.0,0.0,1.751,2.1143,2.2345,2.2904,2.2929,2.1933,2.0683,1.9225,0.0,0.0,0.0,0.0,0.0,0.0,0.0,0.0,0.0,0.0,0.0,0.0,0.0,0.0,0.0,0.0,0.0,0.0,0.0,0.0,0.0,0.0,0.0,0.0,0.0,0.0,0.0,0.0,0.0,0.0,0.0,0.0,0.0,0.0,0.0,0.0,0.0,0.0,0.0,0.0,0.0,0.0,0.0,0.0,0.0,0.0,0.0,0.0,0.0,0.0,0.0,0.0,0.0,0.0,0.0,0.0,0.0,0.0,0.0,0.0,0.0,0.0,0.0,0.0,0.0,0.0,0.0,0.0,0.0,0.0,0.0,0.0,0.0,0.0,0.0,0.0,0.0,0.0,0.0,0.0,0.0,0.0,0.0,0.0,0.0,0.0,0.0,0.0,0.0,0.0,0.0,0.0,0.0,0.0,0.0,0.0,0.0,0.0,0.0,0.0,0.0,0.0,0.0,1.6603,1.866,2.24,2.2992,2.3131,2.3201,2.2041,2.0759,1.9483,1.6867,0.0,0.0,0.0,0.0,0.0,0.0,0.0,0.0,0.0,0.0,0.0,0.0,0.0,0.0,0.0,0.0,0.0,0.0,0.0,0.0,0.0,0.0,0.0,0.0,0.0,0.0,0.0,0.0,0.0,0.0,0.0,0.0,0.0,0.0,0.0,0.0,0.0,0.0,0.0,0.0,0.0,0.0,0.0,0.0,0.0,0.0,0.0,0.0,0.0,0.0,0.0,0.0,0.0,0.0,0.0,0.0,0.0,0.0,0.0,0.0,0.0,0.0,0.0,0.0,0.0,0.0,0.0,0.0,0.0,0.0,0.0,0.0,0.0,0.0,0.0,0.0,0.0,0.0,0.0,0.0,0.0,0.0,0.0,0.0,0.0,0.0,0.0,0.0,0.0,0.0,0.0,0.0,0.0,0.0,0.0,0.0,0.0,0.0,0.0,0.0,0.0,0.0,1.8981,2.0141,2.3046,2.3319,2.3308,2.3341,2.202,2.0705,1.9542,1.6291,0.0,0.0,0.0,0.0,0.0,0.0,0.0,0.0,0.0,0.0,0.0,0.0,0.0,0.0,0.0,0.0,0.0,0.0,0.0,0.0,0.0,0.0,0.0,0.0,0.0,0.0,0.0,0.0,0.0,0.0,0.0,0.0,0.0,0.0,0.0,0.0,0.0,0.0,0.0,0.0,0.0,0.0,0.0,0.0,0.0,0.0,0.0,0.0,0.0,0.0,0.0,0.0,0.0,0.0,0.0,0.0,0.0,0.0,0.0,0.0,0.0,0.0,0.0,0.0,0.0,0.0,0.0,0.0,0.0,0.0,0.0,0.0,0.0,0.0,0.0,0.0,0.0,0.0,0.0,0.0,0.0,0.0,0.0,0.0,0.0,0.0,0.0,0.0,0.0,0.0,0.0,0.0,0.0,0.0,0.0,0.0,0.0,0.0,0.0,0.0,0.0,0.0,1.976,2.1779,2.3328,2.3363,2.3352,2.3487,2.1693,2.0302,1.9717,1.6024,0.0,0.0,0.0,0.0,0.0,0.0,0.0,0.0,0.0,0.0,0.0,0.0,0.0,0.0,0.0,0.0,0.0,0.0,0.0,0.0,0.0,0.0,0.0,0.0,0.0,0.0,0.0,0.0,0.0,0.0,0.0,0.0,0.0,0.0,0.0,0.0,0.0,0.0,0.0,0.0,0.0,0.0,0.0,0.0,0.0,0.0,0.0,0.0,0.0,0.0,0.0,0.0,0.0,0.0,0.0,0.0,0.0,0.0,0.0,0.0,0.0,0.0,0.0,0.0,0.0,0.0,0.0,0.0,0.0,0.0,0.0,0.0,0.0,0.0,0.0,0.0,0.0,0.0,0.0,0.0,0.0,0.0,0.0,0.0,0.0,0.0,0.0,0.0,0.0,0.0,0.0,0.0,0.0,0.0,0.0,0.0,0.0,0.0,0.0,0.0,0.0,0.0,1.9426,2.1124,2.3332,2.3523,2.3512,2.3556,2.2142,2.063,1.9166,0.0,0.0,0.0,0.0,0.0,0.0,0.0,0.0,0.0,0.0,0.0,0.0,0.0,0.0,0.0,0.0,0.0,0.0,0.0,0.0,0.0,0.0,0.0,0.0,0.0,0.0,0.0,0.0,0.0,0.0,0.0,0.0,0.0,0.0,0.0,0.0,0.0,0.0,0.0,0.0,0.0,0.0,0.0,0.0,0.0,0.0,0.0,0.0,0.0,0.0,0.0,0.0,0.0,0.0,0.0,0.0,0.0,0.0,0.0,0.0,0.0,0.0,0.0,0.0,0.0,0.0,0.0,0.0,0.0,0.0,0.0,0.0,0.0,0.0,0.0,0.0,0.0,0.0,0.0,0.0,0.0,0.0,0.0,0.0,0.0,0.0,0.0,0.0,0.0,0.0,0.0,0.0,0.0,0.0,0.0,0.0,0.0,0.0,0.0,0.0,0.0,0.0,1.8281,1.9755,2.13,2.3583,2.3696,2.3595,2.3595,2.2233,2.0617,1.8813,0.0,0.0,0.0,0.0,0.0,0.0,0.0,0.0,0.0,0.0,0.0,0.0,0.0,0.0,0.0,0.0,0.0,0.0,0.0,0.0,0.0,0.0,0.0,0.0,0.0,0.0,0.0,0.0,0.0,0.0,0.0,0.0,0.0,0.0,0.0,0.0,0.0,0.0,0.0,0.0,0.0,0.0,0.0,0.0,0.0,0.0,0.0,0.0,0.0,0.0,0.0,0.0,0.0,0.0,0.0,0.0,0.0,0.0,0.0,0.0,0.0,0.0,0.0,0.0,0.0,0.0,0.0,0.0,0.0,0.0,0.0,0.0,0.0,0.0,0.0,0.0,0.0,0.0,0.0,0.0,0.0,0.0,0.0,0.0,0.0,0.0,0.0,0.0,0.0,0.0,0.0,0.0,0.0,0.0,0.0,0.0,0.0,0.0,0.0,0.0,0.0,0.0,1.8888,2.1008,2.2745,2.4164,2.3899,2.3606,2.3606,2.1839,2.0139,0.0,0.0,0.0,0.0,0.0,0.0,0.0,0.0,0.0,0.0,0.0,0.0,0.0,0.0,0.0,0.0,0.0,0.0,0.0,0.0,0.0,0.0,0.0,0.0,0.0,0.0,0.0,0.0,0.0,0.0,0.0,0.0,0.0,0.0,0.0,0.0,0.0,0.0,0.0,0.0,0.0,0.0,0.0,0.0,0.0,0.0,0.0,0.0,0.0,0.0,0.0,0.0,0.0,0.0,0.0,0.0,0.0,0.0,0.0,0.0,0.0,0.0,0.0,0.0,0.0,0.0,0.0,0.0,0.0,0.0,0.0,0.0,0.0,0.0,0.0,0.0,0.0,0.0,0.0,0.0,0.0,0.0,0.0,0.0,0.0,0.0,0.0,0.0,0.0,0.0,0.0,0.0,0.0,0.0,0.0,0.0,0.0,0.0,0.0,0.0,0.0,0.0,0.0,1.9853,2.1678,2.3164,2.4563,2.4593,2.4522,2.4522,2.3091,2.1122,1.8638,0.0,0.0,0.0,0.0,0.0,0.0,0.0,0.0,0.0,0.0,0.0,0.0,0.0,0.0,0.0,0.0,0.0,0.0,0.0,0.0,0.0,0.0,0.0,0.0,0.0,0.0,0.0,0.0,0.0,0.0,0.0,0.0,0.0,0.0,0.0,0.0,0.0,0.0,0.0,0.0,0.0,0.0,0.0,0.0,0.0,0.0,0.0,0.0,0.0,0.0,0.0,0.0,0.0,0.0,0.0,0.0,0.0,0.0,0.0,0.0,0.0,0.0,0.0,0.0,0.0,0.0,0.0,0.0,0.0,0.0,0.0,0.0,0.0,0.0,0.0,0.0,0.0,0.0,0.0,0.0,0.0,0.0,0.0,0.0,0.0,0.0,0.0,0.0,0.0,0.0,0.0,0.0,0.0,0.0,0.0,0.0,0.0,0.0,0.0,0.0,0.0,0.0,2.0527,2.2476,2.3911,2.5019,2.5001,2.4902,2.4902,2.3613,2.1698,1.9123,0.0,0.0,0.0,0.0,0.0,0.0,0.0,0.0,0.0,0.0,0.0,0.0,0.0,0.0,0.0,0.0,0.0,0.0,0.0,0.0,0.0,0.0,0.0,0.0,0.0,0.0,0.0,0.0,0.0,0.0,0.0,0.0,0.0,0.0,0.0,0.0,0.0,0.0,0.0,0.0,0.0,0.0,0.0,0.0,0.0,0.0,0.0,0.0,0.0,0.0,0.0,0.0,0.0,0.0,0.0,0.0,0.0,0.0,0.0,0.0,0.0,0.0,0.0,0.0,0.0,0.0,0.0,0.0,0.0,0.0,0.0,0.0,0.0,0.0,0.0,0.0,0.0,0.0,0.0,0.0,0.0,0.0,0.0,0.0,0.0,0.0,0.0,0.0,0.0,0.0,0.0,0.0,0.0,0.0,0.0,0.0,0.0,0.0,0.0,0.0,0.0,0.0,2.0991,2.3264,2.4812,2.5494,2.5243,2.502,2.503,2.3807,2.2148,2.0106,0.0,0.0,0.0,0.0,0.0,0.0,0.0,0.0,0.0,0.0,0.0,0.0,0.0,0.0,0.0,0.0,0.0,0.0,0.0,0.0,0.0,0.0,0.0,0.0,0.0,0.0,0.0,0.0,0.0,0.0,0.0,0.0,0.0,0.0,0.0,0.0,0.0,0.0,0.0,0.0,0.0,0.0,0.0,0.0,0.0,0.0,0.0,0.0,0.0,0.0,0.0,0.0,0.0,0.0,0.0,0.0,0.0,0.0,0.0,0.0,1.6781,1.563,0.0,0.0,0.0,0.0,0.0,0.0,0.0,0.0,0.0,0.0,0.0,0.0,0.0,0.0,0.0,0.0,0.0,0.0,0.0,0.0,0.0,0.0,0.0,0.0,0.0,0.0,0.0,0.0,0.0,0.0,0.0,0.0,0.0,0.0,0.0,0.0,0.0,0.0,0.0,0.0,2.1334,2.3621,2.5253,2.597,2.5979,2.5945,2.6003,2.5196,2.3745,2.1502,1.922,0.0,0.0,0.0,0.0,0.0,0.0,0.0,0.0,0.0,0.0,0.0,0.0,0.0,0.0,0.0,0.0,0.0,0.0,0.0,0.0,0.0,0.0,0.0,0.0,0.0,0.0,0.0,0.0,0.0,0.0,0.0,0.0,0.0,0.0,0.0,0.0,0.0,0.0,0.0,0.0,0.0,0.0,0.0,0.0,0.0,0.0,0.0,0.0,0.0,0.0,0.0,0.0,0.0,0.0,0.0,0.0,0.0,0.0,0.0,2.0923,1.9383,0.0,0.0,0.0,0.0,0.0,0.0,0.0,0.0,0.0,0.0,0.0,0.0,0.0,0.0,0.0,0.0,0.0,0.0,0.0,0.0,0.0,0.0,0.0,0.0,0.0,0.0,0.0,0.0,0.0,0.0,0.0,0.0,0.0,0.0,0.0,0.0,0.0,0.0,0.0,0.0,2.1766,2.4446,2.6243,2.6462,2.6521,2.6504,2.6399,2.5714,2.4637,2.3095,2.0965,0.0,0.0,0.0,0.0,0.0,0.0,0.0,0.0,0.0,0.0,0.0,0.0,0.0,0.0,0.0,0.0,0.0,0.0,0.0,0.0,0.0,0.0,0.0,0.0,0.0,0.0,0.0,0.0,0.0,0.0,0.0,0.0,0.0,0.0,0.0,0.0,0.0,0.0,0.0,0.0,0.0,0.0,0.0,0.0,0.0,0.0,0.0,0.0,0.0,0.0,0.0,0.0,0.0,2.9213,2.7217,2.6049,2.63,2.7199,2.8362,2.5589,2.3973,2.318,2.1708,0.0,0.0,0.0,0.0,0.0,0.0,0.0,0.0,0.0,0.0,0.0,0.0,0.0,0.0,0.0,0.0,0.0,0.0,0.0,0.0,0.0,0.0,2.2927,2.3346,2.4932,2.5172,2.0827,0.0,0.0,0.0,0.0,0.0,0.0,0.0,0.0,0.0,0.0,0.0,2.2603,2.5446,2.7217,2.6939,2.6945,2.6906,2.6683,2.6117,2.5457,2.4745,2.282,2.0823,0.0,0.0,0.0,0.0,0.0,0.0,0.0,0.0,0.0,0.0,0.0,0.0,0.0,0.0,0.0,0.0,0.0,0.0,0.0,0.0,0.0,0.0,0.0,0.0,0.0,0.0,0.0,0.0,0.0,0.0,0.0,0.0,1.6297,1.7099,0.0,0.0,0.0,0.0,0.0,0.0,0.0,0.0,0.0,0.0,0.0,0.0,0.0,2.2405,2.7928,2.965,3.0578,3.0761,3.138,3.1013,2.9819,3.1121,3.1726,3.176,3.1307,0.0,2.5938,2.5375,0.0,0.0,0.0,0.0,0.0,0.0,0.0,0.0,0.0,0.0,0.0,0.0,0.0,0.0,0.0,0.0,0.0,0.0,0.0,0.0,0.0,0.0,2.8294,2.7733,2.8325,2.8635,2.7327,2.4596,2.2306,2.1975,1.9853,1.7785,0.0,0.0,0.0,0.0,0.0,0.0,2.4527,2.6315,2.7363,2.7334,2.7325,2.7348,2.7369,2.7272,2.6969,2.6341,2.5148,2.4025,2.3034,2.086,0.0,0.0,0.0,0.0,0.0,0.0,0.0,0.0,0.0,0.0,0.0,0.0,0.0,0.0,0.0,0.0,0.0,0.0,0.0,0.0,0.0,0.0,0.0,0.0,0.0,0.0,0.0,0.0,0.0,1.5927,1.7654,1.894,1.8621,1.7992,0.0,0.0,0.0,0.0,0.0,0.0,0.0,0.0,0.0,2.4745,2.4824,2.7473,3.2917,3.2966,3.2966,3.2966,3.2695,3.2722,3.2983,3.364,3.3892,3.3804,3.3804,3.3128,3.1817,2.947,2.6344,2.2844,0.0,0.0,0.0,0.0,2.3852,2.4576,2.6716,2.6989,2.6377,2.6152,0.0,0.0,0.0,0.0,0.0,0.0,0.0,2.6101,2.7656,2.9475,3.0994,3.1344,3.2001,3.2378,3.1827,3.0127,2.7925,2.5362,2.3765,2.2063,1.9587,1.9591,0.0,0.0,0.0,2.4983,2.6027,2.8049,2.9114,2.8488,2.8457,2.8234,2.7664,2.7614,2.7496,2.7224,2.6398,2.5541,2.4721,2.3191,2.144,0.0,0.0,0.0,0.0,0.0,0.0,0.0,0.0,0.0,0.0,0.0,0.0,0.0,0.0,0.0,0.0,0.0,0.0,0.0,0.0,0.0,0.0,0.0,0.0,0.0,0.0,0.0,0.0,1.8148,1.9516,2.0996,2.1333,2.0906,0.0,0.0,0.0,0.0,0.0,0.0,2.7419,2.7889,2.9097,3.1297,3.0238,3.1542,3.556,3.5594,3.6005,3.678,3.5677,3.5734,3.6797,3.6797,3.6797,3.6797,3.6797,3.6958,3.6977,3.3666,3.106,2.8947,2.7151,2.6919,2.7679,2.8168,2.8187,2.8309,3.0905,3.1349,3.0709,3.0285,2.9718,2.8778,2.6426,0.0,0.0,0.0,0.0,2.9046,3.0807,3.2077,3.3124,3.4016,3.4654,3.4972,3.4668,3.4175,3.2609,2.8619,2.745,2.6194,2.3188,2.3466,0.0,2.2028,2.496,2.7455,2.7886,2.9699,3.0609,2.9755,2.9719,2.9322,2.833,2.8237,2.8142,2.7933,2.7335,2.6714,2.6122,2.526,2.3925,2.2012,0.0,0.0,0.0,0.0,0.0,0.0,0.0,0.0,0.0,0.0,0.0,0.0,0.0,0.0,0.0,0.0,0.0,0.0,0.0,0.0,0.0,0.0,0.0,0.0,0.0,0.0,0.0,0.0,0.0,2.3728,2.5354,0.0,0.0,0.0,0.0,2.6987,2.8478,3.0352,3.2594,3.3406,3.4347,3.5548,3.4424,3.4979,3.7431,3.7458,3.897,4.1935,4.1846,4.1863,4.1935,4.1935,4.1935,4.1935,4.1935,4.109,3.9596,3.7921,3.7156,3.7013,3.6888,3.5428,3.349,3.4396,3.3853,3.2786,3.3638,3.3467,3.3072,3.4421,3.3889,3.259,3.1737,3.0984,0.0,0.0,3.2794,3.365,3.489,3.5267,3.5347,3.54,3.5436,3.5462,3.5434,3.5406,3.4661,3.2192,3.0478,2.913,2.8184,0.0,2.7299,2.7945,2.8252,2.8982,3.0584,3.0905,3.0966,3.0917,3.0917,3.0591,2.9763,2.9691,2.937,2.8591,2.8212,2.8017,2.7964,2.7006,2.6082,2.52,2.2218,0.0,0.0,0.0,0.0,0.0,0.0,0.0,0.0,0.0,0.0,0.0,0.0,0.0,0.0,0.0,0.0,0.0,0.0,0.0,0.0,0.0,0.0,0.0,0.0,0.0,0.0,0.0,0.0,2.7434,2.8655,0.0,2.7987,2.9366,3.0531,3.1029,3.2659,3.4301,3.5854,3.618,3.6676,3.7428,3.7146,3.7186,3.7604,3.9602,4.1191,4.2297,4.2297,4.2297,4.2297,4.2297,4.2297,4.2297,4.2297,4.1583,4.036,3.9817,3.8817,3.7595,3.7595,3.681,3.5702,3.605,3.5705,3.509,3.5356,3.5279,3.5082,3.5169,3.4518,3.3658,3.339,3.316,3.324,3.4455,3.5004,3.5528,3.6784,3.711,3.7119,3.7213,3.7248,3.7104,3.658,3.6471,3.6055,3.471,3.3112,3.1567,3.0236,2.9836,2.9411,2.8621,2.9858,3.1098,3.1691,3.2216,3.2343,3.1825,3.177,3.1444,3.0636,3.0092,2.9676,2.9397,2.8769,2.8422,2.8422,2.8086,2.7269,2.5936,2.4339,2.1806,0.0,0.0,0.0,0.0,0.0,0.0,0.0,0.0,0.0,0.0,0.0,0.0,0.0,0.0,0.0,0.0,0.0,0.0,0.0,0.0,0.0,0.0,0.0,0.0,0.0,2.5962,2.8414,3.0196,3.1629,3.2223,3.148,3.3362,3.4739,3.5003,3.6368,3.7637,3.8667,3.8699,3.901,3.9623,3.9789,3.963,3.9192,4.1262,4.2297,4.2297,4.2297,4.2297,4.2297,4.2297,4.2297,4.2308,4.2348,4.1937,4.1254,4.1314,4.0368,3.882,3.8487,3.803,3.756,3.7709,3.7474,3.704,3.6791,3.6744,3.6703,3.6252,3.5773,3.5381,3.5381,3.5418,3.5618,3.6434,3.6711,3.697,3.794,3.8193,3.8261,3.843,3.8478,3.8314,3.7791,3.7663,3.7509,3.6972,3.541,3.3807,3.2737,3.2675,3.2349,3.1145,3.221,3.3113,3.3027,3.3248,3.3194,3.2651,3.2596,3.2277,3.148,3.0672,3.0092,2.9821,2.904,2.8491,2.8219,2.8201,2.7568,2.6234,2.5135,2.3009,1.9763,0.0,0.0,0.0,0.0,0.0,0.0,0.0,0.0,0.0,0.0,0.0,0.0,0.0,0.0,0.0,0.0,0.0,0.0,0.0,0.0,0.0,0.0,0.0,2.6603,2.8397,3.0395,3.2029,3.4413,3.5678,3.502,3.734,3.887,3.887,3.9565,4.0332,4.1127,4.1163,4.1548,4.2325,4.2361,4.2351,4.2369,4.2369,4.2369,4.2369,4.2379,4.2399,4.243,4.2417,4.2399,4.2384,4.2506,4.2458,4.2328,4.252,4.2101,4.1251,4.032,3.9656,3.93,3.9745,3.9468,3.8737,3.8034,3.7855,3.7944,3.7944,3.7908,3.789,3.789,3.7899,3.7943,3.8002,3.8026,3.811,3.8515,3.8615,3.8673,3.895,3.9001,3.9001,3.9001,3.9001,3.9001,3.9001,3.7316,3.5898,3.588,3.6054,3.6128,3.5872,3.5393,0.0,3.47,3.3966,3.3459,3.3444,3.3426,3.31,3.2321,3.1494,3.0686,2.9901,2.9066,2.8238,2.7477,2.7417,2.7037,2.6252,2.4664,2.3089,2.1563,0.0,0.0,0.0,0.0,0.0,0.0,0.0,0.0,0.0,0.0,0.0,0.0,0.0,0.0,0.0,0.0,0.0,0.0,0.0,0.0,0.0,2.926,3.171,3.0968,3.2774,3.4868,3.6714,3.8023,3.8701,3.8516,3.9687,4.0467,4.0467,4.1199,4.1984,4.2794,4.2848,4.3089,4.3596,4.3614,4.3723,4.3982,4.3971,4.3971,4.3982,4.4151,4.4535,4.5049,4.4953,4.4678,4.4236,4.3687,4.3098,4.253,4.258,4.2485,4.2235,4.1329,4.0574,4.001,4.0144,4.0054,3.9866,3.966,3.922,3.878,3.878,3.8384,3.789,3.789,3.8095,3.8334,3.8366,3.8533,3.8744,3.8865,3.8893,3.8915,3.898,3.9001,3.9001,3.9001,3.9001,3.9001,3.9001,3.8523,3.7954,3.7414,3.6894,3.6545,3.6458,3.6333,3.6212,3.6125,3.5384,3.4775,3.4582,3.4046,3.36,3.338,3.2044,3.1212,3.1186,2.9269,2.8289,2.8551,2.7949,2.7437,2.7085,2.5497,2.4176,0.0,0.0,0.0,0.0,0.0,0.0,0.0,0.0,0.0,0.0,0.0,0.0,0.0,0.0,0.0,0.0,0.0,0.0,0.0,0.0,0.0,0.0,3.2735,3.5155,3.6114,3.6761,3.7782,3.9631,4.0175,4.0566,4.0945,4.1697,4.2154,4.2154,4.2946,4.3647,4.4102,4.412,4.433,4.4752,4.4815,4.5346,4.6349,4.6277,4.6237,4.6237,4.6385,4.6735,4.7221,4.6737,4.6332,4.5959,4.5187,4.4545,4.4053,4.378,4.3679,4.3561,0.0,0.0,0.0,0.0,4.1219,4.1217,4.0879,4.0467,4.0118,4.0118,3.979,3.9341,3.9015,3.9072,3.9183,3.8799,3.885,3.9029,3.9176,3.9209,3.9235,3.9345,3.9371,3.9371,3.9371,3.9371,3.9371,3.9371,3.9371,0.0,3.8857,3.8278,3.7828,3.7687,3.7504,3.7318,3.7216,3.6477,3.5751,3.5257,3.4768,3.4324,3.4004,3.2767,0.0,0.0,0.0,2.8931,2.8675,2.7853,0.0,0.0,0.0,0.0,0.0,2.6886,0.0,0.0,2.4695,2.4676,0.0,0.0,0.0,0.0,0.0,0.0,0.0,0.0,0.0,0.0,0.0,0.0,0.0,0.0,0.0,0.0,3.5705,3.7971,4.0893,4.01,3.9785,4.1259,4.1423,4.1733,4.2547,4.3312,4.3763,4.3763,4.4569,4.5101,4.5191,4.5233,0.0,0.0,0.0,4.7029,4.8763,4.8612,4.8504,4.8495,4.8504,4.8639,4.8822,4.7944,4.7532,4.7452,4.675,4.6338,4.6084,4.5559,4.5231,4.4946,4.3691,4.3292,4.3372,4.2799,4.2643,4.2631,4.1928,0.0,0.0,4.1641,4.1567,4.1362,4.066,4.0458,4.033,3.9565,3.9363,3.9425,3.964,3.9682,3.9737,3.9869,3.99,3.99,3.99,3.9905,3.9911,3.9911,3.9916,3.9938,3.9996,3.9751,3.9464,3.9164,3.8765,3.8418,3.8189,3.7449,3.6646,3.5924,3.5615,0.0,3.4452,3.3571,3.3056,3.3084,3.1595,3.0053,2.8572,2.7895,2.8254,2.9743,2.978,3.0473,3.1895,3.1926,3.203,3.2124,2.7714,2.7181,0.0,0.0,0.0,0.0,0.0,0.0,0.0,0.0,0.0,0.0,0.0,0.0,0.0,0.0,0.0,3.6111,3.8719,4.0647,4.1294,4.1662,4.1964,4.2245,4.2869,4.3319,4.3384,4.4209,4.4718,4.4718,4.5194,4.5745,4.6334,4.668,4.7215,4.8016,4.8062,4.8264,4.8638,4.8602,4.8549,4.8495,4.8549,0.0,4.9107,4.872,4.8348,4.8018,4.7553,4.6958,4.6335,4.6211,4.5942,4.5443,4.422,4.3778,4.3791,4.3664,4.3632,4.3621,4.3462,4.3002,4.2474,4.2474,4.2036,4.1474,4.1325,4.1458,0.0,4.1465,4.1588,4.1615,4.102,4.0861,4.0702,4.006,3.99,3.99,3.99,3.9943,3.998,3.998,4.0031,4.0081,4.0072,3.998,3.9897,3.9892,3.9802,3.9723,3.9675,3.8928,3.8274,3.7941,3.6704,3.5822,3.5682,3.4211,3.341,3.3638,3.2576,3.1497,3.0503,3.0771,3.109,3.1427,3.1446,3.1596,3.1895,3.2119,3.2912,3.4198,3.2388,3.1894,0.0,0.0,0.0,0.0,0.0,0.0,0.0,0.0,0.0,0.0,0.0,3.0372,3.3227,0.0,3.6773,3.9462,4.1083,4.2315,4.3192,4.3642,4.373,4.3302,4.358,4.4013,4.4594,4.5433,4.6023,4.6237,4.6847,4.7362,4.7721,4.7949,4.8257,4.8692,4.87,4.8806,4.8992,4.8992,4.9067,4.9204,4.9224,4.937,4.9558,4.9412,4.9251,4.9046,4.8829,4.8525,4.8127,4.7725,4.7153,4.6492,4.5881,4.5141,4.4395,4.4395,4.4395,4.4395,4.4395,4.4146,4.3796,4.3796,4.3528,4.3121,4.2727,4.2724,4.2768,4.2309,4.23,4.2312,4.1895,4.1823,4.1737,4.1295,4.0924,4.0642,4.0642,4.0321,4.0052,4.0052,4.0072,4.0117,4.0147,4.0113,4.0098,4.0106,4.0106,4.0106,4.0106,3.9712,3.9259,3.8757,3.7919,3.725,3.6876,3.5628,3.4741,3.4479,3.3595,3.271,3.1836,3.2113,3.2688,3.353,3.3549,3.3951,3.4794,3.4944,3.5436,3.625,3.615,3.5869,0.0,0.0,0.0,0.0,0.0,0.0,0.0,2.8237,2.9422,3.2437,3.3221,3.4449,3.8043,3.8896,3.9949,4.2658,4.3171,4.3738,4.5146,4.5261,4.502,4.4511,4.4456,4.4862,4.5957,4.6783,4.7408,4.7727,4.8479,4.8929,4.8929,4.8978,4.9019,4.9019,4.9019,4.9177,4.948,4.9506,4.964,4.9905,4.9905,4.9905,4.9905,4.9905,4.9905,4.9905,4.9905,4.9905,4.9848,4.9204,4.8426,4.7649,4.7649,4.6714,4.5369,4.5217,4.5141,4.5122,4.4952,4.4895,4.4895,4.4895,4.4895,4.4781,4.4137,4.3934,4.3814,4.3093,4.2909,4.2883,4.2731,4.2733,4.2734,4.2563,4.2069,4.1592,4.1421,4.085,4.0317,4.0146,4.0132,4.0157,4.0206,4.021,4.0196,4.0147,4.0137,4.0137,4.0137,4.0137,3.989,3.9238,3.8961,3.8537,3.7759,3.7013,3.63,3.5656,3.5005,3.432,3.3618,3.3642,3.4308,3.5664,3.5683,3.6356,3.7697,3.7697,3.7793,3.796,3.8667,3.8611,2.4296,2.4913,2.6297,2.9119,2.9458,3.0538,0.0,3.6257,3.6007,3.844,3.9528,4.0425,4.1733,4.2604,4.352,4.473,4.5263,4.5608,4.5792,4.5451,4.5424,4.6064,4.6488,4.6875,4.727,4.8072,4.8616,4.8641,4.9083,4.9334,4.9334,4.9614,4.979,4.979,4.979,4.9804,4.9838,4.9838,4.9859,4.9905,4.9905,4.9905,4.9905,4.9905,4.9905,4.9905,4.9905,4.9905,4.9886,4.9791,4.9279,4.854,4.854,4.7972,4.7024,4.6323,4.6051,4.5944,4.516,4.4895,4.4895,4.4895,4.4895,4.4876,4.4781,4.4805,4.4827,4.4732,4.4754,4.4629,4.3931,4.3746,4.3556,4.2775,4.2539,4.2278,4.1554,4.1319,4.1039,4.032,4.0239,4.0287,4.0296,4.0296,4.0296,4.0287,4.0287,4.0287,4.0287,4.0287,4.0229,4.0143,3.9437,3.8635,3.7765,3.7608,3.7508,3.7412,3.7321,3.723,3.7135,3.7139,3.7234,3.743,3.7426,3.7502,3.7697,3.7697,3.8094,3.8858,3.8954,3.8949,2.9665,2.9708,2.9886,3.2573,3.3705,3.498,3.8085,3.8602,3.9188,4.1853,4.2734,4.3375,4.4501,4.504,4.5598,4.6452,4.6752,4.705,4.7523,4.7014,4.6799,4.7327,4.7149,4.7212,4.7796,4.8175,4.8682,4.939,4.9607,4.9698,4.9698,4.9817,4.9905,4.9905,4.9905,4.9905,4.9905,4.9905,4.9905,4.9905,4.9905,4.9905,4.9905,4.9905,4.9905,4.9905,4.9905,4.9905,4.9905,4.9905,4.9696,4.94,4.94,4.9185,4.8692,4.7384,4.691,4.6778,4.5944,4.5659,4.5577,4.5066,4.4919,4.4949,4.4949,4.5016,4.5068,4.5068,4.5085,4.5013,4.469,4.4641,4.4549,4.4211,4.3756,4.3314,4.2995,4.2553,4.1976,4.1122,4.0984,4.0845,4.0382,4.0306,4.0306,4.0306,4.0306,4.0306,4.0306,4.0306,4.0306,4.0306,3.9962,3.9618,3.9236,3.8744,3.8457,3.8457,3.798,3.7697,3.7697,3.7697,3.7941,3.8457,3.8457,3.8706,3.9217,3.9217,3.9408,3.9752,3.9752,3.9752,3.283,3.2973,3.3098,3.5688,3.7586,3.9094,4.0175,4.1013,4.2217,4.4564,4.4949,4.5204,4.6382,4.6444,4.6597,4.7468,4.769,4.8027,4.8841,4.814,4.7626,4.7877,4.6977,4.6676,4.7492,4.7982,4.8723,4.9816,4.9905,4.9905,4.9905,4.9905,4.9905,4.9905,4.9905,4.9905,4.9905,4.9905,4.9905,4.9905,4.9905,4.9905,4.9905,4.9905,4.9905,4.9905,4.9905,4.9905,4.9905,4.9905,4.9905,4.9893,4.9925,4.9932,4.9787,4.8586,4.7991,4.7675,4.6841,4.6436,4.6145,4.5519,4.5169,4.5039,4.5039,4.5061,4.5131,4.5131,4.5142,4.5153,4.5153,4.5186,4.5219,4.5219,4.4788,4.4298,4.4045,4.3534,4.2889,4.2011,4.1652,4.1304,4.0726,4.0458,4.0306,4.0306,4.0306,4.0306,4.0306,4.0306,4.0306,4.0306,4.0306,4.0306,4.0306,3.9713,3.935,3.935,3.8763,3.8419,3.8419,3.8419,3.8706,3.935,3.935,3.9675,4.0306,4.0306,4.0306,4.0306,4.0306,4.0306,3.175,3.3065,3.5183,3.8376,4.0524,4.2335,4.4112,4.5139,4.6002,4.7009,4.6538,4.6233,4.7197,4.6688,4.6444,4.7435,4.7868,4.8386,4.926,4.8247,4.7415,4.7428,4.5963,4.53,4.6177,4.7731,4.9026,4.9829,4.9905,4.9905,4.9905,4.9905,4.9905,4.9905,4.9905,4.9905,4.9905,4.9905,4.9905,4.9905,4.9905,4.9905,4.9905,4.9905,4.9905,4.9905,4.9905,4.9905,4.9905,4.9905,4.9905,4.9918,4.9978,5.0005,4.9992,5.0012,4.9486,4.8637,4.7764,4.6984,4.6397,4.6353,4.5788,4.5103,4.5103,4.5148,4.5192,4.5192,4.5235,4.5297,4.5297,4.5297,4.5302,4.5302,4.5283,4.5034,4.4183,4.3987,4.3725,4.2928,4.2087,4.15,4.1461,4.0826,4.0306,4.0306,4.0306,4.0306,4.0306,4.0306,4.0306,4.0306,4.0306,4.0306,4.0306,4.0287,4.0267,4.0267,4.0248,4.0229,4.0229,4.0229,4.0229,4.0267,4.0267,4.0267,4.0306,4.0306,4.0306,4.0306,4.0306,4.0306,3.5187,3.6886,3.8577,4.123,4.2856,4.4213,4.5855,4.6083,4.6296,4.7458,4.6584,4.5812,4.6485,4.6354,4.6462,4.7318,4.8039,4.8789,4.962,4.8878,4.8047,4.7479,4.6904,4.6664,4.6967,4.7024,4.7611,4.8995,4.909,4.9336,4.9874,4.9905,4.9905,4.9905,4.9905,4.9905,4.9905,4.9905,4.9905,4.9905,4.9905,4.9952,5.0037,4.9992,4.9998,5.0037,5.0037,5.0037,5.0037,5.0037,5.0037,5.0037,5.0063,5.007,5.007,5.0095,4.9949,4.9606,4.8738,4.8262,4.7881,4.6758,4.6235,4.5926,4.5336,4.5208,4.5275,4.5275,4.5286,4.5302,4.5302,4.5302,4.5302,4.5302,4.5302,4.5225,4.4934,4.4857,4.4609,4.3763,4.3362,4.2808,4.1691,4.1285,4.0922,4.0382,4.0306,4.0306,4.0306,4.0306,4.0306,4.0306,4.0306,4.0306,4.0306,4.0306,4.0306,4.0306,4.0306,4.0306,4.0306,4.0306,4.0306,4.0306,4.0306,4.0306,4.0306,4.0306,4.0306,4.0306,4.0306,4.0306,3.8107,3.9771,4.1156,4.4111,4.5399,4.6215,4.7261,4.7159,4.6856,4.6824,4.5735,4.4701,4.4454,4.4156,4.4516,4.6222,4.6986,4.7934,4.9658,4.9204,4.8483,4.7934,4.7593,4.7403,4.7403,4.6929,4.7327,4.8995,4.9128,4.9362,4.9874,4.9905,4.9905,4.9905,4.9905,4.9899,4.9945,4.9945,4.9952,4.9978,4.9978,5.0024,5.0095,5.0057,5.0063,5.0101,5.0101,5.0101,5.0101,5.0101,5.0101,5.0101,5.0133,5.0139,5.0145,5.0164,5.0207,5.0161,4.9579,4.9186,4.8791,4.7705,4.6965,4.6407,4.5835,4.548,4.5302,4.5302,4.5302,4.5302,4.5302,4.5302,4.5302,4.5302,4.5302,4.5302,4.5302,4.5302,4.513,4.4565,4.4222,4.3663,4.2584,4.2144,4.1686,4.084,4.0726,4.0611,4.0344,4.0306,4.0306,4.0306,4.0306,4.0306,4.0306,4.0306,4.0306,4.0306,4.0306,4.0306,4.0306,4.0306,4.0306,4.0306,4.0306,4.0306,4.0306,4.0306,4.0306,4.0306,4.0306,4.0324,4.0322,4.1657,4.3039,4.6879,4.8011,4.8228,4.8317,4.8258,4.7507,4.5186,4.3966,4.2829,4.1232,4.0341,4.0904,4.4169,4.4895,4.6146,4.9374,4.9223,4.8755,4.8692,4.801,4.7517,4.7479,4.7498,4.8199,4.9772,4.9848,4.9848,4.9905,4.9905,4.9893,4.9912,4.9912,4.9945,4.9992,5.0011,5.0044,5.0108,5.0101,5.0108,5.0114,5.0108,5.0108,5.0114,5.0114,5.0114,5.0114,5.0114,5.012,5.0139,5.0194,5.0218,5.0224,5.0294,5.0312,5.0314,5.0253,4.9763,4.9142,4.9104,4.7977,4.6615,4.6533,4.5965,4.5359,4.5302,4.5302,4.5302,4.5302,4.5302,4.5302,4.5302,4.5302,4.5302,4.5302,4.5302,4.5302,4.5302,4.4609,4.4006,4.4006,4.3324,4.2526,4.1691,4.1576,4.1266,4.042,4.0306,4.0306,4.0306,4.0306,4.0306,4.0306,4.0306,4.0306,4.0306,4.0306,4.0306,4.0306,4.0306,4.0306,4.0306,4.0306,4.0306,4.0306,4.0306,4.0306,4.0306,4.0315,4.0404,4.1894,4.4457,4.6817,4.7845,4.8228,4.8202,4.7634,4.6143,4.4372,4.2515,3.9987,3.7983,3.7547,3.8305,3.9689,4.18,4.4743,4.7289,4.8787,4.9362,4.9374,4.8768,4.9033,4.9033,4.8426,4.89,4.9431,4.9874,4.9336,4.9267,4.9874,4.9905,4.9913,4.9978,4.9959,5.0011,5.0076,5.0076,5.0114,5.0163,5.0126,5.0158,5.0249,5.0207,5.0207,5.0249,5.0249,5.0249,5.0249,5.0249,5.034,5.0466,5.0481,5.0506,5.0512,5.0619,5.0605,5.0546,5.0614,5.0354,4.9901,4.9295,4.8798,4.8181,4.6901,4.6366,4.6061,4.5474,4.5302,4.5302,4.5302,4.5302,4.5302,4.5302,4.5302,4.5302,4.5302,4.5302,4.5302,4.5302,4.4609,4.4006,4.4006,4.3324,4.2717,4.2507,4.2469,4.1934,4.0497,4.0306,4.0306,4.0306,4.0306,4.0306,4.0306,4.0306,4.0306,4.0306,4.0306,4.0306,4.0306,4.0306,4.0306,4.0306,4.0306,4.0306,4.0306,4.0306,4.0306,4.0306,4.04,4.0784,4.467,4.6824,4.8426,4.8426,4.818,4.7461,4.5526,4.3805,4.1711,3.856,3.6689,3.5178,3.3714,3.5405,3.7718,3.9759,4.3284,4.6455,4.8414,4.94,4.9734,4.9279,4.9627,4.9729,4.9307,4.9686,4.9965,4.9992,4.9535,4.9478,4.9914,4.9978,5.0011,5.0044,5.005,5.0082,5.0132,5.0176,5.0213,5.023,5.0207,5.0231,5.0296,5.0267,5.0312,5.0421,5.0421,5.046,5.0514,5.0514,5.0582,5.0683,5.0683,5.0683,5.0696,5.0778,5.0753,5.07,5.0762,5.0681,5.0456,5.0,4.9551,4.9024,4.8126,4.7281,4.6546,4.6152,4.5771,4.546,4.541,4.5386,4.5361,4.5309,4.5302,4.5302,4.5302,4.5302,4.5302,4.5302,4.4914,4.4565,4.4565,4.4208,4.3768,4.3381,4.3324,4.2865,4.1566,4.1051,4.0826,4.0826,4.0516,4.0306,4.0306,4.0306,4.0306,4.0306,4.0306,4.0306,4.0306,4.0306,4.0306,4.0306,4.0306,4.0306,4.0306,4.0354,4.0388,4.0409,4.0923,4.1428,4.7609,4.8643,4.8831,4.873,4.7953,4.6354,4.3013,4.127,3.8996,3.4188,3.3486,3.2899,3.0105,3.2231,3.5306,3.8083,4.1338,4.4706,4.8066,4.9229,4.9779,4.9899,4.9899,4.9945,5.0011,5.0018,5.0044,5.0095,5.0044,5.0031,4.9999,5.007,5.0108,5.0114,5.012,5.0158,5.0206,5.0273,5.0302,5.0302,5.0337,5.0329,5.0329,5.0363,5.0455,5.063,5.063,5.0692,5.0794,5.0794,5.0828,5.0847,5.0847,5.0847,5.0847,5.085,5.0866,5.0847,5.085,5.0877,5.085,5.0809,5.0209,4.9507,4.9575,4.8453,4.7157,4.7031,4.6468,4.5814,4.5589,4.5528,4.5485,4.5361,4.535,4.5336,4.5317,4.5302,4.5302,4.5302,4.5302,4.5302,4.5302,4.5302,4.5029,4.4298,4.4159,4.3916,4.3214,4.2278,4.1633,4.1519,4.0883,4.042,4.0306,4.0306,4.0306,4.0306,4.0306,4.0306,4.0306,4.0306,4.0306,4.0306,4.0429,4.0481,4.0481,4.0741,4.0865,4.0875,4.177,4.2327,4.8109,4.9152,4.9526,4.8869,4.7536,4.552,4.2179,3.8598,3.4965,3.1318,2.9033,2.7752,2.7885,3.0079,3.3107,3.6997,4.0442,4.3796,4.7157,4.837,4.9173,4.9909,4.9992,5.0018,5.0076,5.0082,5.0089,5.0101,5.0145,5.0132,5.0089,5.0095,5.0133,5.0169,5.0243,5.0273,5.0284,5.0296,5.0302,5.0302,5.0464,5.0557,5.0542,5.0655,5.0721,5.0769,5.0769,5.0786,5.0794,5.0794,5.0911,5.1049,5.1049,5.1049,5.1065,5.1164,5.1139,5.1065,5.1164,5.1215,5.1167,5.0898,5.0677,5.043,4.9784,4.9366,4.8829,4.7393,4.6897,4.6596,4.5868,4.5667,4.5627,4.5509,4.5543,4.5567,4.5341,4.5302,4.5302,4.5302,4.5302,4.5302,4.5302,4.5302,4.5244,4.5111,4.5073,4.5015,4.4881,4.352,4.2297,4.1576,4.1385,4.1017,4.0363,4.0306,4.0306,4.0306,4.0306,4.0306,4.0306,4.0306,4.0306,4.0306,4.1055,4.1465,4.1465,4.2323,4.2737,4.2747,4.3083,4.3614,4.8237,4.9279,4.9602,4.8332,4.6455,4.3891,4.0081,3.5988,3.2023,2.8673,2.6706,2.5553,2.5534,2.8256,3.1322,3.379,3.7334,4.1124,4.4933,4.619,4.7542,4.9732,5.0005,5.0044,5.0132,5.0158,5.0176,5.0207,5.0321,5.0333,5.0151,5.0188,5.0225,5.0255,5.0284,5.0302,5.0302,5.0407,5.0407,5.0302,5.0506,5.0592,5.0592,5.0671,5.0797,5.0949,5.0949,5.0992,5.1056,5.1056,5.1128,5.1193,5.1193,5.1193,5.1218,5.1284,5.1252,5.122,5.1284,5.13,5.1267,5.1111,5.1011,5.0907,5.0572,5.0118,4.9531,4.8771,4.8266,4.7825,4.7293,4.7161,4.7127,4.6997,4.6669,4.6212,4.5622,4.5507,4.5507,4.5507,4.5507,4.5491,4.5429,4.546,4.5455,4.5319,4.5414,4.5487,4.5405,4.4753,4.3953,4.3045,4.2614,4.2233,4.1848,4.1809,4.1809,4.1809,4.1378,4.1124,4.1124,4.1124,4.1124,4.1124,4.2022,4.2481,4.2484,4.3073,4.3362,4.3379,4.398,4.4487,4.818,4.904,4.9052,4.7725,4.5388,4.2356,3.8324,3.3903,2.9768,2.6596,2.5003,2.4093,2.3768,2.6528,2.9423,3.117,3.4358,3.821,4.2773,4.4301,4.6139,4.9372,4.993,5.0082,5.02,5.0265,5.0289,5.0302,5.0485,5.0516,5.0306,5.0335,5.0335,5.0302,5.0302,5.0325,5.0357,5.0526,5.0546,5.0402,5.0601,5.0717,5.0717,5.0737,5.0882,5.1142,5.1142,5.1191,5.13,5.13,5.13,5.13,5.13,5.13,5.13,5.13,5.13,5.13,5.13,5.13,5.13,5.13,5.1232,5.1158,5.1278,5.0743,5.0108,5.0014,4.9547,4.8988,4.8645,4.8567,4.8546,4.8434,4.7681,4.6827,4.6157,4.5847,4.5707,4.5707,4.5678,4.5627,4.557,4.5615,4.5599,4.5405,4.5563,4.5664,4.5551,4.566,4.5478,4.4735,4.3944,4.3402,4.3212,4.3192,4.3192,4.3192,4.257,4.218,4.218,4.218,4.2183,4.2189,4.306,4.3519,4.3527,4.3908,4.4101,4.4116,4.4907,4.5278,4.8028,4.818,4.7593,4.7441,4.4933,4.1611,3.8173,3.3013,2.8191,2.5648,2.3218,2.1983,2.3423,2.4659,2.6952,3.153,3.3278,3.6026,4.1725,4.3957,4.5997,4.8681,4.97,5.02,5.0284,5.0453,5.049,5.0319,5.0485,5.0601,5.0557,5.0576,5.049,5.0308,5.0302,5.0391,5.0576,5.0582,5.0653,5.0769,5.0965,5.1046,5.1053,5.1181,5.1252,5.1288,5.1288,5.1292,5.13,5.13,5.13,5.13,5.13,5.13,5.13,5.13,5.13,5.13,5.13,5.13,5.13,5.13,5.1294,5.1288,5.1296,5.1236,5.0998,5.0227,4.9956,4.972,4.8974,4.8778,4.8776,4.8768,4.785,4.7009,4.7051,4.6342,4.5707,4.5707,4.5607,4.5547,4.5664,4.5595,4.5543,4.5645,4.5689,4.57,4.5689,4.585,4.5942,4.5853,4.4966,4.4053,4.327,4.3192,4.3192,4.3192,4.3115,4.3076,4.3076,4.3076,4.3073,4.3084,4.4063,4.4569,4.4552,4.5562,4.6044,4.6045,4.6137,4.6183,4.5729,4.6904,4.7157,4.6146,4.3777,4.0796,3.7433,3.2164,2.7407,2.5401,2.2593,2.0995,2.2669,2.3654,2.536,2.8885,3.0176,3.2446,3.7265,3.9456,4.21,4.6301,4.8027,4.9328,5.0481,5.0664,5.0743,5.0772,5.0859,5.0897,5.0897,5.0785,5.0677,5.0596,5.0596,5.0632,5.0726,5.0848,5.0863,5.0798,5.1001,5.1102,5.1105,5.1153,5.1227,5.13,5.13,5.13,5.13,5.13,5.13,5.13,5.13,5.13,5.13,5.13,5.13,5.13,5.13,5.13,5.13,5.13,5.13,5.13,5.13,5.13,5.1222,5.0872,5.0774,5.0716,5.0385,5.0307,5.017,4.9644,4.9166,4.8694,4.8264,4.7852,4.7415,4.689,4.6737,4.6524,4.5971,4.5892,4.5874,4.5724,4.5866,4.5971,4.5899,4.601,4.613,4.613,4.5766,4.5376,4.5031,4.5011,4.5018,4.5015,4.4509,4.4223,4.4216,4.4218,4.4222,4.4211,4.5166,4.5655,4.5661,4.6087,4.6294,4.6294,4.6299,4.6301,4.3411,4.5028,4.5691,4.4781,4.2299,3.9399,3.6789,3.1486,2.6789,2.5591,2.2687,2.0862,2.2555,2.3521,2.4757,2.6789,2.826,3.0519,3.4451,3.6711,3.9724,4.4403,4.6561,4.8268,4.9859,5.0496,5.0898,5.1145,5.1122,5.112,5.1153,5.102,5.0889,5.0798,5.0794,5.0836,5.0884,5.1037,5.1059,5.095,5.1097,5.1155,5.1155,5.1155,5.1218,5.13,5.13,5.13,5.13,5.13,5.13,5.13,5.13,5.13,5.13,5.13,5.13,5.13,5.13,5.13,5.13,5.13,5.13,5.13,5.13,5.13,5.13,5.13,5.13,5.13,5.13,5.13,5.1145,5.0521,5.019,4.9841,4.9301,4.8986,4.8613,4.7997,4.7839,4.7592,4.6931,4.6645,4.6439,4.626,4.6218,4.6177,4.6075,4.6148,4.6206,4.6206,4.6191,4.6191,4.6206,4.6191,4.62,4.6191,4.5627,4.5281,4.5271,4.5272,4.5293,4.5318,4.5968,4.6306,4.631,4.6297,4.6301,4.6301,4.6301,4.6301,4.1516,4.2445,4.2653,4.3493,4.0555,3.7225,3.6391,3.1012,2.6216,2.6197,2.3521,2.1696,2.3386,2.4397,2.525,2.6084,2.8336,3.1165,3.4527,3.7243,4.0139,4.3503,4.5621,4.7163,4.8042,4.9754,5.094,5.1267,5.1168,5.1155,5.1294,5.1296,5.1132,5.0805,5.0794,5.0907,5.1099,5.1102,5.1161,5.1296,5.1298,5.1298,5.1298,5.1298,5.1298,5.13,5.13,5.13,5.13,5.13,5.13,5.13,5.13,5.13,5.13,5.13,5.13,5.13,5.13,5.13,5.13,5.13,5.13,5.13,5.13,5.13,5.13,5.13,5.13,5.13,5.13,5.13,5.13,5.13,5.0638,5.002,5.0075,4.9404,4.8793,4.879,4.8639,4.8547,4.8735,4.7898,4.7264,4.7449,4.6741,4.6197,4.6197,4.6193,4.6204,4.6204,4.6198,4.6201,4.6206,4.6198,4.6207,4.6207,4.6188,4.6188,4.6188,4.6188,4.6214,4.6284,4.6305,4.629,4.6301,4.6301,4.6301,4.6301,4.6301,4.6301,3.6538,3.7713,3.794,3.7087,3.5855,3.4358,3.2345,2.8938,2.6046,2.5496,2.3142,2.1724,2.3455,2.3993,2.5388,2.9087,3.04,3.2141,3.5494,3.8801,4.1523,4.3281,4.7262,4.9976,5.0267,5.0803,5.1198,5.1296,5.1254,5.1269,5.1298,5.13,5.1254,5.1154,5.1132,5.1167,5.1236,5.1236,5.1252,5.13,5.13,5.13,5.13,5.13,5.13,5.13,5.13,5.13,5.13,5.13,5.13,5.13,5.13,5.13,5.13,5.13,5.13,5.13,5.13,5.13,5.13,5.13,5.13,5.13,5.13,5.13,5.13,5.13,5.13,5.13,5.13,5.1292,5.13,5.1302,5.1126,5.0948,5.0922,5.0732,5.0405,4.9807,4.9632,4.942,4.8883,4.8527,4.8311,4.8376,4.8155,4.7755,4.7167,4.7093,4.6862,4.6259,4.6232,4.6254,4.6202,4.6205,4.6211,4.6278,4.6279,4.6263,4.6271,4.6272,4.6273,4.6296,4.6296,4.6297,4.6301,4.6301,4.6612,4.7197,4.7197,4.7471,3.208,3.3866,3.451,3.3468,3.2724,3.1777,2.9878,2.7267,2.5117,2.4605,2.301,2.2125,2.3546,2.4559,2.6016,2.8542,3.0323,3.2367,3.5139,3.8577,4.1816,4.4488,4.8049,5.0415,5.077,5.1106,5.13,5.13,5.13,5.13,5.13,5.13,5.13,5.13,5.13,5.13,5.13,5.13,5.13,5.13,5.13,5.13,5.13,5.13,5.13,5.13,5.13,5.13,0.0,5.13,5.13,5.13,5.13,5.13,5.13,5.13,5.13,5.13,5.13,5.13,5.13,5.13,5.1306,5.1294,5.1321,5.1317,5.1292,5.1292,5.1292,5.1292,5.1292,5.1303,5.1309,5.1296,5.1354,5.1391,5.1343,5.1369,5.1238,5.0692,5.0595,5.0416,4.9879,4.9516,4.9286,4.9294,4.901,4.8608,4.806,4.7692,4.7287,4.674,4.646,4.6288,4.6242,4.6242,4.6264,4.629,4.6291,4.6294,4.63,4.6301,4.6301,4.6301,4.6301,4.6301,4.6301,4.6632,4.7237,4.8056,4.8056,4.833,0.0,3.0503,3.1777,3.1777,3.0617,2.9252,2.851,2.5884,0.0,2.3619,2.3013,2.2839,2.3879,2.5915,2.7084,2.6075,2.9159,3.2376,3.4366,3.7603,4.1729,4.6967,4.8309,4.9139,5.0009,5.0813,5.13,5.13,5.13,5.13,5.13,5.13,5.13,5.13,5.13,5.13,5.13,5.13,5.13,5.13,5.13,5.13,5.13,5.13,5.13,5.13,5.13,5.13,5.13,5.13,5.13,5.13,5.13,5.13,5.13,5.13,5.13,5.13,5.1302,5.1302,5.1302,5.1304,5.1317,5.1317,5.137,5.1366,5.1314,5.1314,5.1314,5.1314,5.1314,5.1315,5.1315,5.1315,5.1346,5.1397,5.1396,5.1397,5.1397,5.1397,5.1397,5.1397,5.1396,5.0734,5.0189,5.0188,4.9506,4.8962,4.8903,4.819,4.763,4.7513,4.6841,4.6379,4.6301,4.6301,4.6301,4.6301,4.6301,4.6301,4.6301,4.6301,4.6301,4.6301,4.6359,4.6398,4.6398,4.7255,4.8095,4.8896,4.8896,4.8935,2.2928,0.0,2.5736,2.5736,2.5451,2.511,0.0,2.3784,2.2778,2.2778,2.2666,2.3421,2.6196,2.6679,2.8233,3.3035,3.4185,3.5736,3.9395,4.3079,4.6629,4.996,5.0536,5.0756,5.0967,5.1183,5.13,5.13,5.13,5.13,5.13,5.13,5.13,5.13,5.13,5.13,5.13,5.13,5.13,5.13,5.13,5.13,5.13,5.13,5.13,5.13,5.13,5.13,5.13,5.13,5.13,5.13,5.13,5.13,5.13,5.13,5.13,5.1302,5.13,5.1305,5.1307,5.1359,5.1385,5.139,5.1393,5.1391,5.1388,5.1388,5.1388,5.1388,5.1388,5.1379,5.1386,5.1373,5.139,5.1403,5.1395,5.14,5.1406,5.1406,5.1406,5.1403,5.1395,5.1225,5.1091,5.1083,5.0913,5.0548,4.9883,4.9611,4.9008,4.77,4.741,4.7021,4.6359,4.6301,4.6301,4.6301,4.6301,4.6301,4.6301,4.6301,4.6301,4.6301,4.6944,4.7294,4.7294,4.8115,4.8953,4.9793,4.9793,5.0144,2.0654,2.2703,2.4848,2.4848,2.4848,2.4855,2.4887,2.3651,2.2511,2.2544,2.3195,2.4325,2.6193,2.7776,2.9864,3.3218,3.539,3.8311,4.3012,4.6479,4.9231,5.108,5.13,5.13,5.13,5.13,5.13,5.13,5.13,5.13,5.13,5.13,5.13,5.13,5.13,5.13,5.13,5.13,5.13,5.13,5.13,5.13,5.13,5.13,5.13,5.13,5.13,5.13,5.13,5.13,5.13,5.13,5.13,5.13,5.13,5.1292,5.1296,5.1298,5.1336,5.1343,5.1346,5.138,5.1405,5.1407,5.1392,5.1394,5.1394,5.1407,5.1405,5.1405,5.1405,5.1392,5.1396,5.1407,5.1401,5.1391,5.1401,5.1407,5.1393,5.1408,5.1391,5.1392,5.1407,5.139,5.1392,5.1407,5.1391,5.1238,5.0769,5.0358,4.9753,4.8835,4.8387,4.7802,4.6963,4.6905,4.6729,4.634,4.6301,4.6301,4.6301,4.6301,4.6495,4.6885,4.7724,4.8348,4.8757,4.9188,4.9832,5.0691,5.0691,5.0944,2.0464,2.3414,2.6303,2.5917,2.6011,2.6234,2.6281,2.4528,2.2912,2.2979,2.4233,2.5522,2.6155,2.9303,3.1885,3.2021,3.6176,4.103,4.5767,4.85,5.0326,5.1203,5.13,5.13,5.13,5.13,5.13,5.13,5.13,5.13,5.13,5.13,5.13,5.13,5.13,5.13,5.13,5.13,5.13,5.13,5.13,5.13,5.13,5.13,5.13,5.13,5.13,5.13,5.13,5.13,5.13,5.13,5.13,5.1302,5.1306,5.1307,5.1314,5.1319,5.1373,5.1399,5.1403,5.1396,5.1401,5.1402,5.1391,5.1394,5.1392,5.1403,5.1401,5.1401,5.1401,5.1401,5.1401,5.1401,5.1408,5.1392,5.1402,5.1408,5.1391,5.1402,5.1408,5.1394,5.1394,5.1394,5.1394,5.1394,5.1394,5.1394,5.1394,5.0769,5.0241,5.0104,4.9441,4.8662,4.7841,4.7782,4.747,4.673,4.6573,4.6554,4.6672,4.6672,4.7022,4.7763,4.8583,4.9363,5.0104,5.0221,5.0671,5.1394,5.1394,5.1394,2.2552,2.5163,2.6782,2.4612,2.5194,2.6281,2.6307,2.5463,2.4693,2.4715,2.5601,2.7236,3.0103,3.1862,3.4235,3.8443,4.2318,4.5633,4.8024,4.9307,5.0326,5.1203,5.13,5.13,5.13,5.13,5.13,5.13,5.13,5.13,5.13,5.13,5.13,5.13,5.13,5.13,5.13,5.13,5.13,5.13,5.13,5.13,5.13,5.13,5.13,5.13,5.13,5.13,5.13,5.13,5.13,5.13,5.13,5.1292,5.1309,5.1292,5.1341,5.1393,5.1409,5.1401,5.1409,5.1391,5.1392,5.1392,5.1393,5.1394,5.1393,5.1392,5.1392,5.1392,5.1392,5.1392,5.1392,5.1392,5.1393,5.1393,5.1392,5.1393,5.1393,5.1392,5.1393,5.1394,5.1394,5.1394,5.1394,5.1394,5.1394,5.1394,5.1394,5.1277,5.0925,5.0182,4.9987,4.9559,4.8681,4.8623,4.8564,4.8427,4.7782,4.7704,4.8388,4.8427,4.8486,4.8603,4.9461,4.9967,5.0104,5.0847,5.1277,5.1394,5.1394,5.1394,2.0852,2.3898,2.6562,2.5402,2.7414,2.9847,3.0388,2.9532,2.8771,2.931,3.016,3.1292,3.2885,3.5051,3.8162,4.2898,4.5836,4.7974,4.927,5.017,5.0852,5.1242,5.13,5.13,5.13,5.13,5.13,5.13,5.13,5.13,5.13,5.13,5.13,5.13,5.13,5.13,5.13,5.13,5.13,5.13,5.13,5.13,5.13,5.13,5.13,5.13,5.13,5.13,5.13,5.13,5.13,5.13,5.1294,5.1303,5.1296,5.1333,5.1368,5.1399,5.1404,5.139,5.1394,5.1394,5.1394,5.1394,5.1394,5.1394,5.1394,5.1394,5.1394,5.1394,5.1394,5.1394,5.1394,5.1394,5.1394,5.1394,5.1394,5.1394,5.1394,5.1394,5.1394,5.1394,5.1394,5.1394,5.1394,5.1394,5.1394,5.1394,5.1394,5.1394,5.1258,5.0847,5.0808,5.0456,4.9578,4.95,4.9305,4.8837,4.8447,4.8408,4.8779,4.9246,4.95,4.95,5.0359,5.0808,5.0808,5.1199,5.1394,5.1394,5.1394,5.1394,1.9982,2.2936,2.6158,2.6764,2.963,3.2695,3.4091,3.3272,3.2612,3.4011,3.4838,3.5331,3.5372,3.8373,4.2155,4.6153,4.8263,4.9605,5.0229,5.0872,5.13,5.13,5.13,5.13,5.13,5.13,5.13,5.13,5.13,5.13,5.13,5.13,5.13,5.13,5.13,5.13,5.13,5.13,5.13,5.13,5.13,5.13,5.13,5.13,5.13,5.13,5.13,5.13,5.13,5.1306,5.1308,5.129,5.131,5.132,5.1328,5.1374,5.1408,5.1394,5.1394,5.1394,5.1394,5.1394,5.1394,5.1394,5.1394,5.1394,5.1394,5.1394,5.1394,5.1394,5.1394,5.1394,5.1394,5.1394,5.1394,5.1394,5.1394,5.1394,5.1394,5.1394,5.1394,5.1394,5.1394,5.1394,5.1394,5.1394,5.1394,5.1394,5.1394,5.1394,5.1394,5.1394,5.1394,5.112,5.0456,5.0398,5.0125,4.9442,4.9403,4.9403,4.9403,5.0047,5.0398,5.0398,5.1062,5.1394,5.1394,5.1394,5.1394,5.1394,5.1394,5.1394,2.2812,2.4289,2.5745,2.8128,3.0113,3.2161,3.4723,3.4642,3.4735,3.7301,3.7926,3.8011,3.8036,4.1577,4.5415,4.8164,5.0014,5.1145,5.1203,5.1261,5.13,5.13,5.13,5.13,5.13,5.13,5.13,5.13,5.13,5.13,5.13,5.13,5.13,5.13,5.13,5.13,5.13,5.13,5.13,5.13,5.13,5.13,5.13,5.13,5.13,5.13,5.13,5.13,5.13,5.1303,5.1291,5.1312,5.1367,5.1382,5.1397,5.1409,5.1393,5.1394,5.1394,5.1394,5.1394,5.1394,5.1394,5.1394,5.1394,5.1394,5.1394,5.1394,5.1394,5.1394,5.1394,5.1394,5.1394,5.1394,5.1394,5.1394,5.1394,5.1394,5.1394,5.1394,5.1394,5.1394,5.1394,5.1394,5.1394,5.1394,5.1394,5.1394,5.1394,5.1394,5.1394,5.1394,5.1394,5.1375,5.1316,5.1316,5.1277,5.1219,5.1219,5.1219,5.1219,5.1277,5.1316,5.1316,5.1375,5.1394,5.1394,5.1394,5.1394,5.1394,5.1394,5.1394,2.0563,2.3699,2.7048,2.7934,3.1101,3.4412,3.5979,3.7736,3.9674,4.192,4.2819,4.3204,4.3204,4.5014,4.7016,4.8555,5.0209,5.13,5.13,5.13,5.13,5.13,5.13,5.13,5.13,5.13,5.13,5.13,5.13,5.13,5.13,5.13,5.13,5.13,5.13,5.13,5.13,5.13,5.13,5.13,5.13,5.13,5.13,5.13,5.13,5.13,5.13,5.1308,5.1301,5.1309,5.1319,5.1367,5.1385,5.1397,5.1409,5.1393,5.1394,5.1394,5.1394,5.1394,5.1394,5.1394,5.1394,5.1394,5.1394,5.1394,5.1394,5.1394,5.1394,5.1394,5.1394,5.1394,5.1394,5.1394,5.1394,5.1394,5.1394,5.1394,5.1394,5.1394,5.1394,5.1394,5.1394,5.1394,5.1394,5.1394,5.1394,5.1394,5.1394,5.1394,5.1394,5.1394,5.1394,5.1394,5.1394,5.1394,5.1394,5.1394,5.1394,5.1394,5.1394,5.1394,5.1394,5.1394,5.1394,5.1394,5.1394,5.1394,5.1394,5.1394,5.1394,5.1394,1.9796,2.3458,2.7555,2.8069,3.1708,3.5612,3.7352,3.9992,4.2766,4.5221,4.5769,4.6042,4.6879,4.7055,4.7542,4.8943,5.0365,5.13,5.13,5.13,5.13,5.13,5.13,5.13,5.13,5.13,5.13,5.13,5.13,5.13,5.13,5.13,5.13,5.13,5.13,5.13,5.13,5.13,5.13,5.13,5.1306,5.1306,5.13,5.13,5.1304,5.129,5.129,5.1303,5.132,5.1327,5.1357,5.1409,5.14,5.1408,5.1394,5.1394,5.1394,5.1394,5.1394,5.1394,5.1394,5.1394,5.1394,5.1394,5.1394,5.1394,5.1394,5.1394,5.1394,5.1394,5.1394,5.1394,5.1394,5.1394,5.1394,5.1394,5.1394,5.1394,5.1394,5.1394,5.1394,5.1394,5.1394,5.1394,5.1394,5.1394,5.1394,5.1394,5.1394,5.1394,5.1394,5.1394,5.1394,5.1394,5.1394,5.1394,5.1394,5.1394,5.1394,5.1394,5.1394,5.1394,5.1394,5.1394,5.1394,5.1394,5.1394,5.1394,5.1394,5.1394,5.1394,5.1394,2.1485,2.3913,2.6909,2.8842,3.1811,3.5217,3.8818,4.0971,4.3244,4.6791,4.6158,4.573,4.8321,4.7405,4.7055,4.9586,5.0735,5.13,5.13,5.13,5.13,5.13,5.13,5.13,5.13,5.13,5.13,5.13,5.13,5.13,5.13,5.13,5.13,5.13,5.13,5.13,5.13,5.13,5.13,5.13,5.1303,5.1301,5.13,5.13,5.1292,5.1292,5.1292,5.1341,5.1396,5.1392,5.1404,5.1394,5.1394,5.1394,5.1394,5.1394,5.1394,5.1394,5.1394,5.1394,5.1394,5.1394,5.1394,5.1394,5.1394,5.1394,5.1394,5.1394,5.1394,5.1394,5.1394,5.1394,5.1394,5.1394,5.1394,5.1394,5.1394,5.1394,5.1394,5.1394,5.1394,5.1394,5.1394,5.1394,5.1394,5.1394,5.1394,5.1394,5.1394,5.1394,5.1394,5.1394,5.1394,5.1394,5.1394,5.1394,5.1394,5.1394,5.1394,5.1394,5.1394,5.1394,5.1394,5.1394,5.1394,5.1394,5.1394,5.1394,5.1394,5.1394,5.1394,5.1394,2.2426,2.5738,2.9615,3.071,3.5054,3.947,4.1075,4.3213,4.5883,4.9438,4.9274,4.8729,4.9508,4.9216,4.9118,4.9878,5.0735,5.13,5.13,5.13,5.13,5.13,5.13,5.13,5.13,5.13,5.13,5.13,5.13,5.13,5.13,5.13,5.13,5.13,5.13,5.13,5.13,5.1296,5.1303,5.1303,5.1341,5.1359,5.1303,5.1354,5.1362,5.1367,5.1367,5.1378,5.1392,5.1404,5.1391,5.1394,5.1394,5.1394,5.1394,5.1394,5.1394,5.1394,5.1394,5.1394,5.1394,5.1394,5.1394,5.1394,5.1394,5.1394,5.1394,5.1394,5.1394,5.1394,5.1394,5.1394,5.1394,5.1394,5.1394,5.1394,5.1394,5.1394,5.1394,5.1394,5.1394,5.1394,5.1394,5.1394,5.1394,5.1394,5.1394,5.1394,5.1394,5.1394,5.1394,5.1394,5.1394,5.1394,5.1394,5.1394,5.1394,5.1394,5.1394,5.1394,5.1394,5.1394,5.1394,5.1394,5.1394,5.1394,5.1394,5.1394,5.1394,5.1394,5.1394,5.1394,2.4512,2.8106,3.1964,3.3506,3.7488,4.16,4.3804,4.5767,4.7901,5.0728,5.0346,4.9722,5.0385,4.9976,4.9742,5.0404,5.0969,5.13,5.13,5.13,5.13,5.13,5.13,5.13,5.13,5.13,5.13,5.13,5.13,5.13,5.13,5.13,5.13,5.13,5.1308,5.1294,5.1294,5.1333,5.1341,5.1341,5.1378,5.138,5.1333,5.1373,5.1397,5.1404,5.1409,5.1397,5.1406,5.1391,5.1394,5.1394,5.1394,5.1394,5.1394,5.1394,5.1394,5.1394,5.1394,5.1394,5.1394,5.1394,5.1394,5.1394,5.1394,5.1394,5.1394,5.1394,5.1394,5.1394,5.1394,5.1394,5.1394,5.1394,5.1394,5.1394,5.1394,5.1394,5.1394,5.1394,5.1394,5.1394,5.1394,5.1394,5.1394,5.1394,5.1394,5.1394,5.1394,5.1394,5.1394,5.1394,5.1394,5.1394,5.1394,5.1394,5.1394,5.1394,5.1394,5.1394,5.1394,5.1394,5.1394,5.1394,5.1394,5.1394,5.1394,5.1394,5.1394,5.1394,5.1394,5.1394,2.7092,3.0496,3.3774,3.6597,3.9238,4.2256,4.6537,4.8107,4.9157,5.0833,5.0034,4.9488,5.1028,5.0053,4.9527,5.1047,5.13,5.13,5.13,5.13,5.13,5.13,5.13,5.13,5.13,5.13,5.13,5.13,5.13,5.13,5.1302,5.1302,5.1304,5.1304,5.1305,5.1315,5.1315,5.1369,5.1396,5.1397,5.1392,5.14,5.1399,5.1405,5.1407,5.14,5.139,5.1394,5.1394,5.1394,5.1394,5.1394,5.1394,5.1394,5.1394,5.1394,5.1394,5.1394,5.1394,5.1394,5.1394,5.1394,5.1394,5.1394,5.1394,5.1394,5.1394,5.1394,5.1394,5.1394,5.1394,5.1394,5.1394,5.1394,5.1394,5.1394,5.1394,5.1394,5.1394,5.1394,5.1394,5.1394,5.1394,5.1394,5.1394,5.1394,5.1394,5.1394,5.1394,5.1394,5.1394,5.1394,5.1394,5.1394,5.1394,5.1394,5.1394,5.1394,5.1394,5.1394,5.1394,5.1394,5.1394,5.1394,5.1394,5.1394,5.1394,5.1394,5.1394,5.1394,5.1394,5.1394,2.7342,3.0494,3.3961,3.7255,4.056,4.3803,4.6817,4.7659,4.8263,4.9937,5.0541,5.0872,5.1222,5.1008,5.0872,5.1242,5.13,5.13,5.13,5.13,5.13,5.13,5.13,5.13,5.13,5.13,5.13,5.13,5.13,5.1308,5.1305,5.1305,5.1312,5.1384,5.1387,5.139,5.139,5.1386,5.1394,5.1394,5.1406,5.1391,5.1391,5.1408,5.1408,5.1391,5.1393,5.1394,5.1394,5.1394,5.1394,5.1394,5.1394,5.1394,5.1394,5.1394,5.1394,5.1394,5.1394,5.1394,5.1394,5.1394,5.1394,5.1394,5.1394,5.1394,5.1394,5.1394,5.1394,5.1394,5.1394,5.1394,5.1394,5.1394,5.1394,5.1394,5.1394,5.1394,5.1394,5.1394,5.1394,5.1394,5.1394,5.1394,5.1394,5.1394,5.1394,5.1394,5.1394,5.1394,5.1394,5.1394,5.1394,5.1394,5.1394,5.1394,5.1394,5.1394,5.1394,5.1394,5.1394,5.1394,5.1394,5.1394,5.1394,5.1394,5.1394,5.1394,5.1394,5.1394,5.1394,5.1394,2.7662,3.1154,3.4995,3.9662,4.2236,4.4185,4.6373,4.7191,4.7756,4.8612,4.98,5.0677,5.0677,5.1028,5.13,5.13,5.13,5.13,5.13,5.13,5.13,5.13,5.13,5.1304,5.1296,5.1296,5.1319,5.1348,5.1348,5.1353,5.1343,5.1343,5.1367,5.1394,5.1401,5.1405,5.1405,5.14,5.1406,5.1406,5.1391,5.1394,5.1394,5.1394,5.1394,5.1394,5.1394,5.1394,5.1394,5.1394,5.1394,5.1394,5.1394,5.1394,5.1394,5.1394,5.1394,5.1394,5.1394,5.1394,5.1394,5.1394,5.1394,5.1394,5.1394,5.1394,5.1394,5.1394,5.1394,5.1394,5.1394,5.1394,5.1394,5.1394,5.1394,5.1394,5.1394,5.1394,5.1394,5.1394,5.1394,5.1394,5.1394,5.1394,5.1394,5.1394,5.1394,5.1394,5.1394,5.1394,5.1394,5.1394,5.1394,5.1394,5.1394,5.1394,5.1394,5.1394,5.1394,5.1394,5.1394,5.1394,5.1394,5.1394,5.1394,5.1394,5.1394,5.1394,5.1394,5.1394,5.1394,5.1397,2.7189,3.1438,3.5986,4.1731,4.3387,4.401,4.5613,4.6646,4.7289,4.7289,4.8612,4.9781,4.9781,5.0502,5.1086,5.1086,5.1203,5.13,5.1304,5.1306,5.1306,5.1329,5.131,5.1317,5.1315,5.1317,5.1341,5.1393,5.1394,5.1396,5.1399,5.1399,5.14,5.1401,5.1395,5.1401,5.1401,5.139,5.1394,5.1394,5.1394,5.1394,5.1394,5.1394,5.1394,5.1394,5.1394,5.1394,5.1394,5.1394,5.1394,5.1394,5.1394,5.1394,5.1394,5.1394,5.1394,5.1394,5.1394,5.1394,5.1394,5.1394,5.1394,5.1394,5.1394,5.1394,5.1394,5.1394,5.1394,5.1394,5.1394,5.1394,5.1394,5.1394,5.1394,5.1394,5.1394,5.1394,5.1394,5.1394,5.1394,5.1394,5.1394,5.1394,5.1394,5.1394,5.1394,5.1394,5.1394,5.1394,5.1394,5.1394,5.1394,5.1394,5.1394,5.1394,5.1394,5.1394,5.1394,5.1394,5.1394,5.1394,5.1394,5.1394,5.1394,5.1394,5.1394,5.1396,5.1397,5.1397,5.1399,5.1388,2.4295,2.9633,3.5695,4.0291,4.2529,4.3856,4.4853,4.5749,4.6373,4.6373,4.7756,4.8962,4.8962,4.9625,5.017,5.017,5.0813,5.1306,5.1305,5.1309,5.1314,5.1385,5.1387,5.1388,5.1391,5.1391,5.1391,5.1394,5.1394,5.14,5.1395,5.1395,5.14,5.1409,5.1391,5.1392,5.1392,5.1393,5.1394,5.1394,5.1394,5.1394,5.1394,5.1394,5.1394,5.1394,5.1394,5.1394,5.1394,5.1394,5.1394,5.1394,5.1394,5.1394,5.1394,5.1394,5.1394,5.1394,5.1394,5.1394,5.1394,5.1394,5.1394,5.1394,5.1394,5.1394,5.1394,5.1394,5.1394,5.1394,5.1394,5.1394,5.1394,5.1394,5.1394,5.1394,5.1394,5.1394,5.1394,5.1394,5.1394,5.1394,5.1394,5.1394,5.1394,5.1394,5.1394,5.1394,5.1394,5.1394,5.1394,5.1394,5.1394,5.1394,5.1394,5.1394,5.1394,5.1394,5.1394,5.1394,5.1394,5.1394,5.1394,5.1394,5.1394,5.1394,5.1394,5.1403,5.1407,5.1407,5.1394,5.1365,2.6629,3.0858,3.5072,3.9901,4.1654,4.2551,4.3875,4.4853,4.5477,4.5477,4.647,4.7483,4.799,4.8768,4.9336,4.9328,4.9659,4.99,4.9898,4.99,5.0098,5.0614,5.0673,5.0852,5.1348,5.1408,5.1391,5.1397,5.1399,5.1401,5.1407,5.1408,5.1409,5.1394,5.1394,5.1394,5.1394,5.1394,5.1394,5.1394,5.1394,5.1394,5.1394,5.1394,5.1394,5.1394,5.1394,5.1394,5.1394,5.1394,5.1394,5.1394,5.1394,5.1394,5.1394,5.1394,5.1394,5.1394,5.1394,5.1394,5.1394,5.1394,5.1394,5.1394,5.1394,5.1394,5.1394,5.1394,5.1394,5.1394,5.1394,5.1394,5.1394,5.1394,5.1394,5.1394,5.1394,5.1394,5.1394,5.1394,5.1394,5.1394,5.1394,5.1394,5.1394,5.1394,5.1394,5.1394,5.1394,5.1394,5.1394,5.1394,5.1394,5.1394,5.1394,5.1394,5.1394,5.1394,5.1394,5.1394,5.1394,5.1394,5.1399,5.1409,5.1407,5.1404,5.1403,5.1391,5.1395,5.1395,5.1366,5.1326,2.7452,3.0278,3.2675,3.7857,3.9959,4.1167,4.2627,4.3798,4.4561,4.4561,4.5262,4.6063,4.6711,4.7724,4.847,4.8467,4.8664,4.8806,4.8801,4.8803,4.904,4.9689,4.9768,5.0104,5.0991,5.107,5.1152,5.1374,5.1394,5.1394,5.1394,5.1394,5.1394,5.1394,5.1394,5.1394,5.1394,5.1394,5.1394,5.1394,5.1394,5.1394,5.1394,5.1394,5.1394,5.1394,5.1394,5.1394,5.1394,5.1394,5.1394,5.1394,5.1394,5.1394,5.1394,5.1394,5.1394,5.1394,5.1394,5.1394,5.1394,5.1394,5.1394,5.1394,5.1394,5.1394,5.1394,5.1394,5.1394,5.1394,5.1394,5.1394,5.1394,5.1394,5.1394,5.1394,5.1394,5.1394,5.1394,5.1394,5.1394,5.1394,5.1394,5.1394,5.1394,5.1394,5.1394,5.1394,5.1394,5.1394,5.1394,5.1394,5.1394,5.1394,5.1394,5.1394,5.1394,5.1394,5.1394,5.1394,5.1394,5.1394,5.1406,5.1402,5.1398,5.1395,5.1392,5.1398,5.14,5.1401,5.1325,5.1289,2.3497,2.5407,2.7336,3.25,3.6863,4.0115,4.1011,4.2491,4.3679,4.3679,4.4364,4.4977,4.5031,4.6417,4.7572,4.7567,4.8251,4.8801,4.8795,4.8798,4.8822,4.8854,4.8874,4.9206,5.0085,5.0162,5.0514,5.1336,5.1394,5.1394,5.1394,5.1394,5.1394,5.1394,5.1394,5.1394,5.1394,5.1394,5.1394,5.1394,5.1394,5.1394,5.1394,5.1394,5.1394,5.1394,5.1394,5.1394,5.1394,5.1394,5.1394,5.1394,5.1394,5.1394,5.1394,5.1394,5.1394,5.1394,5.1394,5.1394,5.1394,5.1394,5.1394,5.1394,5.1394,5.1394,5.1394,5.1394,5.1394,5.1394,5.1394,5.1394,5.1394,5.1394,5.1394,5.1394,5.1394,5.1394,5.1394,5.1394,5.1394,5.1394,5.1394,5.1394,5.1394,5.1394,5.1394,5.1394,5.1394,5.1394,5.1394,5.1394,5.1394,5.1394,5.1394,5.1394,5.1394,5.1394,5.1394,5.1394,5.1394,5.1394,5.1391,5.1406,5.1404,5.1401,5.1398,5.1403,5.1404,5.1405,5.1337,5.1273,2.2661,2.42,2.5835,2.9887,3.3317,3.6066,3.7448,3.9959,4.2003,4.2003,4.3096,4.408,4.4127,4.5528,4.668,4.6723,4.6999,4.7199,4.721,4.7192,4.7408,4.7958,4.8036,4.8368,4.9188,4.9266,4.9403,4.9716,4.9735,4.9735,4.9735,5.0261,5.0574,5.0574,5.1101,5.1394,5.1394,5.1394,5.1394,5.1394,5.1394,5.1394,5.1394,5.1394,5.1394,5.1394,5.1394,5.1394,5.1394,5.1394,5.1394,5.1394,5.1394,5.1394,5.1394,5.1394,5.1394,5.1394,5.1394,5.1394,5.1394,5.1394,5.1394,5.1394,5.1394,5.1394,5.1394,5.1394,5.1394,5.1394,5.1394,5.1394,5.1394,5.1394,5.1394,5.1394,5.1394,5.1394,5.1394,5.1394,5.1394,5.1394,5.1394,5.1394,5.1394,5.1394,5.1394,5.1394,5.1394,5.1394,5.1394,5.1394,5.1394,5.1394,5.1394,5.1394,5.1394,5.1394,5.1394,5.1405,5.1402,5.1402,5.1404,5.1406,5.1406,5.1405,5.1403,5.1405,5.1406,5.1406,5.1327,5.1291,2.1302,2.2427,2.3985,2.7704,2.9927,3.213,3.5558,3.7896,3.9609,4.0485,4.2003,4.3184,4.3256,4.4404,4.5461,4.5818,4.586,4.5961,4.6261,4.6301,4.6515,4.7099,4.7158,4.749,4.833,4.8408,4.8505,4.8779,4.8798,4.8798,4.8798,4.9344,4.9793,5.0085,5.0652,5.1101,5.1394,5.1394,5.1394,5.1394,5.1394,5.1394,5.1394,5.1394,5.1394,5.1394,5.1394,5.1394,5.1394,5.1394,5.1394,5.1394,5.1394,5.1394,5.1394,5.1394,5.1394,5.1394,5.1394,5.1394,5.1394,5.1394,5.1394,5.1394,5.1394,5.1394,5.1394,5.1394,5.1394,5.1394,5.1394,5.1394,5.1394,5.1394,5.1394,5.1394,5.1394,5.1394,5.1394,5.1394,5.1394,5.1394,5.1394,5.1394,5.1394,5.1394,5.1394,5.1394,5.1394,5.1394,5.1394,5.1394,5.1394,5.1394,5.1394,5.1394,5.14,5.1391,5.1392,5.1399,5.1406,5.1406,5.1406,5.1406,5.1406,5.1406,5.1406,5.1406,5.1406,5.1406,5.1321,5.1284,0.0,0.0,0.0,2.5678,2.6769,2.8581,3.5363,3.6279,3.6454,3.9102,4.0953,4.2153,4.2301,4.3046,4.3913,4.4774,4.4933,4.5264,4.6105,4.6242,4.6262,4.6262,4.6281,4.6632,4.749,4.7568,4.7899,4.8662,4.872,4.872,4.872,4.8759,4.9169,5.0026,5.0085,5.0515,5.1355,5.1394,5.1394,5.1394,5.1394,5.1394,5.1394,5.1394,5.1394,5.1394,5.1394,5.1394,5.1394,5.1394,5.1394,5.1394,5.1394,5.1394,5.1394,5.1394,5.1394,5.1394,5.1394,5.1394,5.1394,5.1394,5.1394,5.1394,5.1394,5.1394,5.1394,5.1394,5.1394,5.1394,5.1394,5.1394,5.1394,5.1394,5.1394,5.1394,5.1394,5.1394,5.1394,5.1394,5.1394,5.1394,5.1394,5.1394,5.1394,5.1394,5.1394,5.1394,5.1394,5.1394,5.1394,5.1394,5.1394,5.1394,5.1396,5.1396,5.1391,5.1406,5.1406,5.1406,5.1406,5.1406,5.1406,5.1406,5.1406,5.1406,5.1406,5.1406,5.1406,5.1406,5.1323,5.1274,1.9361,0.0,0.0,0.0,0.0,0.0,2.9049,3.0534,3.2175,3.5384,3.6908,3.8244,4.0176,4.1231,4.2098,4.2978,4.3645,4.4134,4.4388,4.4953,4.5362,4.5362,4.5929,4.6398,4.6632,4.6651,4.6749,4.6963,4.6984,4.6984,4.6984,4.7588,4.8309,4.913,4.9773,5.0221,5.0456,5.1081,5.1394,5.1394,5.1394,5.1394,5.1394,5.1394,5.1394,5.1394,5.1394,5.1394,5.1394,5.1394,5.1394,5.1394,5.1394,5.1394,5.1394,5.1394,5.1394,5.1394,5.1394,5.1394,5.1394,5.1394,5.1394,5.1394,5.1394,5.1394,5.1394,5.1394,5.1394,5.1394,5.1394,5.1394,5.1394,5.1394,5.1394,5.1394,5.1394,5.1394,5.1394,5.1394,5.1394,5.1394,5.1394,5.1394,5.1394,5.1394,5.1394,5.1394,5.1394,5.1394,5.1394,5.1394,5.1394,5.1405,5.1403,5.1404,5.1405,5.1406,5.1406,5.1406,5.1406,5.1406,5.1406,5.1406,5.1406,5.1406,5.1406,5.1406,5.1406,5.1406,5.1385,5.1361,2.1157,2.157,2.2486,2.3031,0.0,0.0,2.7723,2.8468,2.9387,3.2852,3.4534,3.5987,3.7877,3.8934,3.9917,4.1124,4.1732,4.2455,4.3548,4.4133,4.4465,4.4465,4.5226,4.5753,4.5753,4.6085,4.6301,4.6301,4.6301,4.6301,4.6301,4.6788,4.7431,4.827,4.8797,4.9227,4.9559,5.0417,5.0866,5.0866,5.1238,5.1394,5.1394,5.1394,5.1394,5.1394,5.1394,5.1394,5.1394,5.1394,5.1394,5.1394,5.1394,5.1394,5.1394,5.1394,5.1394,5.1394,5.1394,5.1394,5.1394,5.1394,5.1394,5.1394,5.1394,5.1394,5.1394,5.1394,5.1394,5.1394,5.1394,5.1394,5.1394,5.1394,5.1394,5.1394,5.1394,5.1394,5.1394,5.1394,5.1394,5.1394,5.1394,5.1394,5.1394,5.1394,5.1394,5.1394,5.1394,5.1394,5.1401,5.1395,5.1396,5.1401,5.1406,5.1406,5.1406,5.1406,5.1406,5.1406,5.1406,5.1406,5.1406,5.1406,5.1406,5.1406,5.1406,5.1406,5.1406,5.1406,5.1406,5.1406,2.4141,2.381,0.0,2.6302,2.4764,0.0,2.897,2.8446,2.7825,3.1003,3.2822,3.4197,3.5345,3.6209,3.7231,3.8822,3.9331,4.0424,4.3041,4.349,4.3568,4.3568,4.4328,4.4855,4.4855,4.5558,4.6047,4.6144,4.6242,4.6301,4.6301,4.6301,4.6651,4.7431,4.7548,4.7938,4.8662,4.952,4.9967,4.9967,5.0847,5.1258,5.1258,5.1355,5.1394,5.1394,5.1394,5.1394,5.1394,5.1394,5.1394,5.1394,5.1394,5.1394,5.1394,5.1394,5.1394,5.1394,5.1394,5.1394,5.1394,5.1394,5.1394,5.1394,5.1394,5.1394,5.1394,5.1394,5.1394,5.1394,5.1394,5.1394,5.1394,5.1394,5.1394,5.1394,5.1394,5.1394,5.1394,5.1394,5.1394,5.1394,5.1394,5.1394,5.1394,5.1394,5.1394,5.1394,5.1394,5.1398,5.1393,5.1406,5.1406,5.1406,5.1406,5.1406,5.1406,5.1406,5.1406,5.1406,5.1406,5.1406,5.1406,5.1406,5.1406,5.1406,5.1406,5.1406,5.1406,5.1406,5.1406,5.1406,2.7685,2.823,2.8756,2.6497,2.751,0.0,2.6166,2.6333,2.7355,2.8695,2.8723,2.9396,3.2329,3.2993,3.3444,3.4488,3.6403,3.8687,4.1245,4.2201,4.265,4.265,4.3411,4.3958,4.3958,4.4114,4.4504,4.5206,4.5909,4.6301,4.6301,4.6301,4.6379,4.6554,4.7236,4.7685,4.7821,4.8641,4.9052,4.9052,4.9949,5.0358,5.0378,5.1081,5.1394,5.1394,5.1394,5.1394,5.1394,5.1394,5.1394,5.1394,5.1394,5.1394,5.1394,5.1394,5.1394,5.1394,5.1394,5.1394,5.1394,5.1394,5.1394,5.1394,5.1394,5.1394,5.1394,5.1394,5.1394,5.1394,5.1394,5.1394,5.1394,5.1394,5.1394,5.1394,5.1394,5.1394,5.1394,5.1394,5.1394,5.1394,5.1394,5.1394,5.1394,5.1394,5.1394,5.1394,5.1394,5.1397,5.1406,5.1406,5.1406,5.1406,5.1406,5.1406,5.1406,5.1406,5.1406,5.1406,5.1406,5.1406,5.1406,5.1406,5.1406,5.1406,5.1406,5.1406,5.1406,5.1406,5.1406,5.1406,3.0609,3.0784,3.1135,2.987,2.9848,0.0,0.0,2.6956,2.6945,2.905,2.8164,2.8038,3.1475,3.1418,3.1401,3.3122,3.4861,3.6443,3.7732,4.0132,4.1752,4.1752,4.2513,4.304,4.304,4.3431,4.388,4.4328,4.5168,4.5656,4.5656,4.6066,4.6301,4.6301,4.6729,4.6944,4.6944,4.7782,4.8192,4.8212,4.9051,4.9441,4.948,5.0359,5.0749,5.0788,5.1219,5.1394,5.1394,5.1394,5.1394,5.1394,5.1394,5.1394,5.1394,5.1394,5.1394,5.1394,5.1394,5.1394,5.1394,5.1394,5.1394,5.1394,5.1394,5.1394,5.1394,5.1394,5.1394,5.1394,5.1394,5.1394,5.1394,5.1394,5.1394,5.1394,5.1394,5.1394,5.1394,5.1394,5.1394,5.1394,5.1394,5.1394,5.1394,5.1394,5.1394,5.1402,5.1397,5.1405,5.1406,5.1406,5.1406,5.1406,5.1406,5.1406,5.1406,5.1406,5.1406,5.1406,5.1406,5.1406,5.1406,5.1406,5.1406,5.1406,5.1406,5.1406,5.1406,5.1406,5.1406,5.1406,3.3748,3.3456,3.3553,3.3436,3.2304,3.1074,0.0,0.0,0.0,2.9852,2.8558,2.7886,3.0835,2.9999,2.9572,3.1816,3.3046,3.371,3.371,3.7126,3.9684,3.9859,4.0932,4.1674,4.1674,4.2299,4.2787,4.2943,4.3606,4.4152,4.4484,4.548,4.6046,4.6046,4.6203,4.6301,4.6301,4.7002,4.7353,4.7353,4.8174,4.8564,4.8603,4.9461,4.9948,5.0143,5.0847,5.1238,5.1394,5.1394,5.1394,5.1394,5.1394,5.1394,5.1394,5.1394,5.1394,5.1394,5.1394,5.1394,5.1394,5.1394,5.1394,5.1394,5.1394,5.1394,5.1394,5.1394,5.1394,5.1394,5.1394,5.1394,5.1394,5.1394,5.1394,5.1394,5.1394,5.1394,5.1394,5.1394,5.1394,5.1394,5.1394,5.1394,5.1394,5.1394,5.1401,5.1395,5.1406,5.1406,5.1406,5.1406,5.1406,5.1406,5.1406,5.1406,5.1406,5.1406,5.1406,5.1406,5.1406,5.1406,5.1406,5.1406,5.1406,5.1406,5.1406,5.1406,5.1406,5.1406,5.2001,5.2283,3.8032,3.8344,3.8032,3.4333,3.5462,3.5907,2.9866,0.0,3.0834,2.8962,0.0,2.7347,2.8517,0.0,0.0,2.7543,2.9104,3.0178,3.0178,3.2539,3.4568,3.5331,3.7556,3.9021,3.9021,3.9118,3.9488,4.019,4.0327,4.1068,4.261,4.4249,4.5147,4.5147,4.5909,4.6301,4.6301,4.6397,4.6456,4.6456,4.7314,4.7743,4.7763,4.8584,4.9363,5.0104,5.0202,5.0691,5.1394,5.1394,5.1394,5.1394,5.1394,5.1394,5.1394,5.1394,5.1394,5.1394,5.1394,5.1394,5.1394,5.1394,5.1394,5.1394,5.1394,5.1394,5.1394,5.1394,5.1394,5.1394,5.1394,5.1394,5.1394,5.1394,5.1394,5.1394,5.1394,5.1394,5.1394,5.1394,5.1394,5.1394,5.1394,5.1394,5.1394,5.1394,5.1398,5.1406,5.1406,5.1406,5.1406,5.1406,5.1406,5.1406,5.1406,5.1406,5.1406,5.1406,5.1406,5.1406,5.1406,5.1406,5.1406,5.1406,5.1406,5.1406,5.1406,5.1406,5.1406,5.1465,5.4202,5.5478,3.8733,3.8772,3.85,3.6182,3.5929,3.5363,3.1973,3.0898,3.0716,3.1161,0.0,0.0,0.0,0.0,0.0,0.0,2.8362,2.8499,2.7484,2.9553,3.1875,3.3729,3.4901,3.5974,3.6989,3.6638,3.7107,3.8961,3.9098,3.9859,4.1557,4.3781,4.4991,4.4991,4.5851,4.6301,4.6301,4.6301,4.6301,4.6301,4.6671,4.6846,4.6866,4.7724,4.8309,4.8699,4.9675,5.0319,5.0671,5.1199,5.1394,5.1394,5.1394,5.1394,5.1394,5.1394,5.1394,5.1394,5.1394,5.1394,5.1394,5.1394,5.1394,5.1394,5.1394,5.1394,5.1394,5.1394,5.1394,5.1394,5.1394,5.1394,5.1394,5.1394,5.1394,5.1394,5.1394,5.1394,5.1394,5.1394,5.1394,5.1394,5.1394,5.1394,5.1402,5.1399,5.1405,5.1406,5.1406,5.1406,5.1406,5.1406,5.1406,5.1406,5.1406,5.1406,5.1406,5.1406,5.1406,5.1406,5.1406,5.1406,5.1406,5.1406,5.1406,5.1406,5.1406,5.1406,5.1406,5.1426,5.2724,5.4286,3.9375,3.9219,3.8831,3.7233,3.589,3.4565,3.3026,3.1597,3.1044,3.2699,3.1448,0.0,0.0,0.0,2.8441,2.8635,0.0,2.7697,2.5941,2.7132,2.8947,3.1035,3.2128,3.3182,3.445,3.3807,3.4374,3.697,3.6951,3.7869,4.0289,4.265,4.4152,4.462,4.55,4.6066,4.6301,4.6301,4.6301,4.6301,4.6301,4.6301,4.632,4.6963,4.7372,4.7665,4.8894,4.9675,5.0143,5.0788,5.118,5.1394,5.1394,5.1394,5.1394,5.1394,5.1394,5.1394,5.1394,5.1394,5.1394,5.1394,5.1394,5.1394,5.1394,5.1394,5.1394,5.1394,5.1394,5.1394,5.1394,5.1394,5.1394,5.1394,5.1394,5.1394,5.1394,5.1394,5.1394,5.1394,5.1394,5.1394,5.1394,5.1403,5.1396,5.1406,5.1406,5.1406,5.1406,5.1406,5.1406,5.1406,5.1406,5.1406,5.1406,5.1406,5.1406,5.1406,5.1406,5.1406,5.1406,5.1406,5.1406,5.1406,5.1406,5.1406,5.1406,5.1406,5.1406,5.1406,5.1406,5.2834,4.1011,4.1011,4.0193,3.6785,3.591,3.4973,3.1639,3.2116,3.3063,3.2296,3.3397,3.4264,3.3492,3.2578,3.1407,0.0,2.885,0.0,0.0,2.5042,2.4905,2.5844,2.8869,3.0918,3.0957,3.0236,3.0822,3.3377,3.2792,3.418,3.8454,4.0309,4.2006,4.3685,4.4582,4.544,4.6281,4.6301,4.6301,4.6301,4.6301,4.6301,4.6301,4.634,4.6807,4.7607,4.7665,4.8601,5.0104,5.0124,5.0632,5.1394,5.1394,5.1394,5.1394,5.1394,5.1394,5.1394,5.1394,5.1394,5.1394,5.1394,5.1394,5.1394,5.1394,5.1394,5.1394,5.1394,5.1394,5.1394,5.1394,5.1394,5.1394,5.1394,5.1394,5.1394,5.1394,5.1394,5.1394,5.1394,5.1394,5.1394,5.1394,5.1399,5.1406,5.1406,5.1406,5.1406,5.1406,5.1406,5.1406,5.1406,5.1406,5.1406,5.1406,5.1406,5.1406,5.1406,5.1406,5.1406,5.1406,5.1406,5.1406,5.1406,5.1406,5.1406,5.1406,5.1406,5.1406,5.1406,5.1406,5.2245,4.1109,4.1109,4.0544,3.8207,3.6746,3.5306,3.3044,3.2975,3.316,3.229,3.3492,3.4438,3.3566,3.2692,0.0,0.0,0.0,2.7483,0.0,2.4086,2.3657,2.3931,2.6019,2.7659,2.8225,2.8031,2.9182,3.2304,3.2792,3.4608,3.8396,4.0738,4.2494,4.3666,4.4543,4.5421,4.6281,4.6301,4.6301,4.6301,4.6301,4.6301,4.6301,4.6301,4.6456,4.6768,4.7353,4.7918,4.8523,4.9636,5.026,5.0593,5.118,5.1394,5.1394,5.1394,5.1394,5.1394,5.1394,5.1394,5.1394,5.1394,5.1394,5.1394,5.1394,5.1394,5.1394,5.1394,5.1394,5.1394,5.1394,5.1394,5.1394,5.1394,5.1394,5.1398,5.1409,5.1403,5.1394,5.1394,5.1393,5.1402,5.1402,5.1405,5.1406,5.1406,5.1406,5.1406,5.1406,5.1406,5.1406,5.1406,5.1406,5.1406,5.1406,5.1406,5.1406,5.1406,5.1406,5.1406,5.1406,5.1406,5.1406,5.1406,5.1406,5.1406,5.1406,5.1406,5.1406,5.1387,5.1165,5.1462,4.1109,4.1109,4.068,3.8948,3.7666,3.6306,3.4295,3.4306,3.4512,3.3658,3.4624,3.5551,3.5304,3.402,3.2637,0.0,0.0,0.0,0.0,2.393,2.3559,2.3559,2.4829,2.5922,2.6489,2.6254,2.7367,3.0509,3.1563,3.369,3.7478,3.9819,4.1869,4.3646,4.4231,4.5109,4.6281,4.6301,4.6301,4.6301,4.6301,4.6301,4.6301,4.6301,4.6301,4.634,4.6885,4.7314,4.7704,4.9071,4.9812,5.0182,5.1062,5.1394,5.1394,5.1394,5.1394,5.1394,5.1394,5.1394,5.1394,5.1394,5.1394,5.1394,5.1394,5.1394,5.1394,5.1394,5.1394,5.1394,5.1394,5.1394,5.1394,5.1394,5.1405,5.1395,5.1402,5.1398,5.1393,5.1393,5.1403,5.1406,5.1406,5.1406,5.1406,5.1406,5.1406,5.1406,5.1406,5.1406,5.1406,5.1406,5.1406,5.1406,5.1406,5.1406,5.1406,5.1406,5.1406,5.1406,5.1406,5.1406,5.1406,5.1406,5.1406,5.1406,5.1406,5.1406,5.1406,5.1387,5.119,5.1122]}]]